[[{"header":{"parameterUnit":"m.s-1","parameterCategory":1,"la1":30.6,"la2":29.2853,"lo1":-89.7004,"lo2":-87.6739,"dy":0.0162,"dx":0.0183,"nx":112,"ny":82,"refTime":"2023-11-01T06:00:00:Z","depth":0,"parameterNumber":2,"parameterNumberName":"U-component_of_WINDS"},"data":[0.0,0.0,0.0,0.0,0.0,0.0,0.0,0.0,0.0,0.0,0.0,0.0,0.0,0.0,0.0,0.0,0.0,0.0,0.0,0.0,0.0,0.0,0.0,0.0,0.0,0.0,0.0,0.0,0.0,0.0,0.0,0.0,0.0,0.0,0.0,0.0,0.0,0.0,0.0,0.0,0.0,0.0,0.0,0.0,0.0,0.0,0.0,0.0,0.0,0.0,0.0,0.0,0.0,0.0,0.0,0.0,0.0,0.0,0.0,0.0,0.0,0.0,0.0,0.0,0.0,0.0,0.0,0.0,0.0,0.0,0.0,0.0,0.0,0.0,0.0,0.0,0.0,0.0,0.0,0.0,0.0,0.0,0.0,0.0,0.0,0.0,0.0,0.0,0.0,0.0,0.0,1.2358,1.2551,1.2845,1.3167,1.342,1.3447,1.3207,0.0,0.0,0.0,0.0,0.0,0.0,0.0,0.0,0.0,0.0,0.0,0.0,0.0,0.0,0.0,0.0,0.0,0.0,0.0,0.0,0.0,0.0,0.0,0.0,0.0,0.0,0.0,0.0,0.0,0.0,0.0,0.0,0.0,0.0,0.0,0.0,0.0,0.0,0.0,0.0,0.0,0.0,0.0,0.0,0.0,0.0,0.0,0.0,0.0,0.0,0.0,0.0,0.0,0.0,0.0,0.0,0.0,0.0,0.0,0.0,0.0,0.0,0.0,0.0,0.0,0.0,0.0,0.0,0.0,0.0,0.0,0.0,0.0,0.0,0.0,0.0,0.0,0.0,0.0,0.0,0.0,0.0,0.0,0.0,0.0,0.0,0.0,0.0,0.0,0.0,0.0,0.0,0.0,0.0,0.0,0.0,0.0,0.0,0.0,0.0,0.0,0.0,0.0,0.0,1.2717,1.2345,1.2345,1.2599,1.314,1.3233,1.3233,1.3193,0.0,0.0,0.0,0.0,0.0,0.0,0.0,0.0,0.0,0.0,0.0,0.0,0.0,0.0,0.0,0.0,0.0,0.0,0.0,0.0,0.0,0.0,0.0,0.0,0.0,0.0,0.0,0.0,0.0,0.0,0.0,0.0,0.0,0.0,0.0,0.0,0.0,0.0,0.0,0.0,0.0,0.0,0.0,0.0,0.0,0.0,0.0,0.0,0.0,0.0,0.0,0.0,0.0,0.0,0.0,0.0,0.0,0.0,0.0,0.0,0.0,0.0,0.0,0.0,0.0,0.0,0.0,0.0,0.0,0.0,0.0,0.0,0.0,0.0,0.0,0.0,0.0,0.0,0.0,0.0,0.0,0.0,0.0,0.0,0.0,0.0,0.0,0.0,0.0,0.0,0.0,0.0,0.0,0.0,0.0,0.0,0.0,0.0,0.0,0.0,0.0,0.0,0.0,1.3186,1.2898,1.2591,1.2839,1.306,1.318,1.3507,1.3614,1.3433,1.3273,0.0,0.0,0.0,0.0,0.0,0.0,0.0,0.0,0.0,0.0,0.0,0.0,0.0,0.0,0.0,0.0,0.0,0.0,0.0,0.0,0.0,0.0,0.0,0.0,0.0,0.0,0.0,0.0,0.0,0.0,0.0,0.0,0.0,0.0,0.0,0.0,0.0,0.0,0.0,0.0,0.0,0.0,0.0,0.0,0.0,0.0,0.0,0.0,0.0,0.0,0.0,0.0,0.0,0.0,0.0,0.0,0.0,0.0,0.0,0.0,0.0,0.0,0.0,0.0,0.0,0.0,0.0,0.0,0.0,0.0,0.0,0.0,0.0,0.0,0.0,0.0,0.0,0.0,0.0,0.0,0.0,0.0,0.0,0.0,0.0,0.0,0.0,0.0,0.0,0.0,0.0,0.0,0.0,0.0,0.0,0.0,0.0,0.0,0.0,0.0,0.0,0.0,1.3433,1.32,1.2931,1.3267,1.346,1.33,1.3721,1.386,1.3613,1.342,0.0,0.0,0.0,0.0,0.0,0.0,0.0,0.0,0.0,0.0,0.0,0.0,0.0,0.0,0.0,0.0,0.0,0.0,0.0,0.0,0.0,0.0,0.0,0.0,0.0,0.0,0.0,0.0,0.0,0.0,0.0,0.0,0.0,0.0,0.0,0.0,0.0,0.0,0.0,0.0,0.0,0.0,0.0,0.0,0.0,0.0,0.0,0.0,0.0,0.0,0.0,0.0,0.0,0.0,0.0,0.0,0.0,0.0,0.0,0.0,0.0,0.0,0.0,0.0,0.0,0.0,0.0,0.0,0.0,0.0,0.0,0.0,0.0,0.0,0.0,0.0,0.0,0.0,0.0,0.0,0.0,0.0,0.0,0.0,0.0,0.0,0.0,0.0,0.0,0.0,0.0,0.0,0.0,0.0,0.0,0.0,0.0,0.0,0.0,0.0,0.0,0.0,1.3586,1.3467,1.3193,1.3213,1.3327,1.3547,1.3613,1.3626,1.36,1.3586,0.0,0.0,0.0,0.0,0.0,0.0,0.0,0.0,0.0,0.0,0.0,0.0,0.0,0.0,0.0,0.0,0.0,0.0,0.0,0.0,0.0,0.0,0.0,0.0,0.0,0.0,0.0,0.0,0.0,0.0,0.0,0.0,0.0,0.0,0.0,0.0,0.0,0.0,0.0,0.0,0.0,0.0,0.0,0.0,0.0,0.0,0.0,0.0,0.0,0.0,0.0,0.0,0.0,0.0,0.0,0.0,0.0,0.0,0.0,0.0,0.0,0.0,0.0,0.0,0.0,0.0,0.0,0.0,0.0,0.0,0.0,0.0,0.0,0.0,0.0,0.0,0.0,0.0,0.0,0.0,0.0,0.0,0.0,0.0,0.0,0.0,0.0,0.0,0.0,0.0,0.0,0.0,0.0,0.0,0.0,0.0,0.0,0.0,0.0,0.0,0.0,0.0,1.39,1.378,0.0,1.3654,1.3734,1.3613,1.3794,1.39,1.39,0.0,0.0,0.0,0.0,0.0,0.0,0.0,0.0,0.0,0.0,0.0,0.0,0.0,0.0,0.0,0.0,0.0,0.0,0.0,0.0,0.0,0.0,0.0,0.0,0.0,0.0,0.0,0.0,0.0,0.0,0.0,0.0,0.0,0.0,0.0,0.0,0.0,0.0,0.0,0.0,0.0,0.0,0.0,0.0,0.0,0.0,0.0,0.0,0.0,0.0,0.0,0.0,0.0,0.0,0.0,0.0,0.0,0.0,0.0,0.0,0.0,0.0,0.0,0.0,0.0,0.0,0.0,0.0,0.0,0.0,0.0,0.0,0.0,0.0,0.0,0.0,0.0,0.0,0.0,0.0,0.0,0.0,0.0,0.0,0.0,0.0,0.0,0.0,0.0,0.0,0.0,0.0,0.0,0.0,0.0,0.0,0.0,0.0,0.0,0.0,0.0,0.0,1.4055,1.4103,1.4015,0.0,1.3961,1.4001,1.378,1.3975,1.4041,1.3948,0.0,0.0,0.0,0.0,0.0,0.0,0.0,0.0,0.0,0.0,0.0,0.0,0.0,0.0,0.0,0.0,0.0,0.0,0.0,0.0,0.0,0.0,0.0,0.0,0.0,0.0,0.0,0.0,0.0,0.0,0.0,0.0,0.0,0.0,0.0,0.0,0.0,0.0,0.0,0.0,0.0,0.0,0.0,0.0,0.0,0.0,0.0,0.0,0.0,0.0,0.0,0.0,0.0,0.0,0.0,0.0,0.0,0.0,0.0,0.0,0.0,0.0,0.0,0.0,0.0,0.0,0.0,0.0,0.0,0.0,0.0,0.0,0.0,0.0,0.0,0.0,0.0,0.0,0.0,0.0,0.0,0.0,0.0,0.0,0.0,0.0,0.0,0.0,0.0,0.0,0.0,0.0,0.0,0.0,0.0,0.0,0.0,0.0,0.0,0.0,0.0,0.0,1.4055,1.4116,1.4116,1.4095,1.4095,1.4095,1.4103,1.4103,1.3961,0.0,0.0,0.0,0.0,0.0,0.0,0.0,0.0,0.0,0.0,0.0,0.0,0.0,0.0,0.0,0.0,0.0,0.0,0.0,0.0,0.0,0.0,0.0,0.0,0.0,0.0,0.0,0.0,0.0,0.0,0.0,0.0,0.0,0.0,0.0,0.0,0.0,0.0,0.0,0.0,0.0,0.0,0.0,0.0,0.0,0.0,0.0,0.0,0.0,0.0,0.0,0.0,0.0,0.0,0.0,0.0,0.0,0.0,0.0,0.0,0.0,0.0,0.0,0.0,0.0,0.0,0.0,0.0,0.0,0.0,0.0,0.0,0.0,0.0,0.0,0.0,0.0,0.0,0.0,0.0,0.0,0.0,0.0,0.0,0.0,0.0,0.0,0.0,0.0,0.0,0.0,0.0,0.0,0.0,0.0,0.0,0.0,0.0,0.0,0.0,0.0,0.0,0.0,0.0,1.4598,1.4651,1.4416,1.4367,1.4309,1.4129,1.4103,1.4055,1.3961,0.0,0.0,0.0,0.0,0.0,0.0,0.0,0.0,0.0,0.0,0.0,0.0,0.0,0.0,0.0,0.0,0.0,0.0,0.0,0.0,0.0,0.0,0.0,0.0,0.0,0.0,0.0,0.0,0.0,0.0,0.0,0.0,0.0,0.0,0.0,0.0,0.0,0.0,0.0,0.0,0.0,0.0,0.0,0.0,0.0,0.0,0.0,0.0,0.0,0.0,0.0,0.0,0.0,0.0,0.0,0.0,0.0,0.0,0.0,0.0,0.0,0.0,0.0,0.0,0.0,0.0,0.0,0.0,0.0,0.0,0.0,0.0,0.0,0.0,0.0,0.0,0.0,0.0,0.0,0.0,0.0,0.0,0.0,0.0,0.0,0.0,0.0,0.0,0.0,0.0,0.0,0.0,0.0,0.0,0.0,0.0,0.0,0.0,0.0,0.0,0.0,0.0,1.4461,1.4798,1.4865,1.4527,1.4501,1.4421,1.4269,1.4148,1.4041,1.3921,0.0,0.0,0.0,0.0,0.0,0.0,0.0,0.0,0.0,0.0,0.0,0.0,0.0,0.0,0.0,0.0,0.0,0.0,0.0,0.0,0.0,0.0,0.0,0.0,0.0,0.0,0.0,0.0,0.0,0.0,0.0,0.0,0.0,0.0,0.0,0.0,0.0,0.0,0.0,0.0,0.0,0.0,0.0,0.0,0.0,0.0,0.0,0.0,0.0,0.0,0.0,0.0,0.0,0.0,0.0,0.0,0.0,0.0,0.0,0.0,0.0,0.0,0.0,0.0,0.0,0.0,0.0,0.0,0.0,0.0,0.0,0.0,0.0,0.0,0.0,0.0,0.0,0.0,0.0,0.0,0.0,0.0,0.0,0.0,0.0,0.0,0.0,0.0,0.0,0.0,0.0,0.0,0.0,0.0,0.0,0.0,0.0,0.0,0.0,0.0,0.0,0.0,1.4541,1.4865,1.4905,1.4567,1.4514,1.4487,1.4461,1.4242,1.3961,1.3626,0.0,0.0,0.0,0.0,0.0,0.0,0.0,0.0,0.0,0.0,0.0,0.0,0.0,0.0,0.0,0.0,0.0,0.0,0.0,0.0,0.0,0.0,0.0,0.0,0.0,0.0,0.0,0.0,0.0,0.0,0.0,0.0,0.0,0.0,0.0,0.0,0.0,0.0,0.0,0.0,0.0,0.0,0.0,0.0,0.0,0.0,0.0,0.0,0.0,0.0,0.0,0.0,0.0,0.0,0.0,0.0,0.0,0.0,0.0,0.0,1.2994,0.0,0.0,0.0,0.0,0.0,0.0,0.0,0.0,0.0,0.0,0.0,0.0,0.0,0.0,0.0,0.0,0.0,0.0,0.0,0.0,0.0,0.0,0.0,0.0,0.0,0.0,0.0,0.0,0.0,0.0,0.0,0.0,0.0,0.0,0.0,0.0,0.0,0.0,0.0,0.0,0.0,1.5137,1.5271,1.5213,1.4919,1.4656,1.4407,1.4202,1.4122,1.3961,1.3626,0.0,0.0,0.0,0.0,0.0,0.0,0.0,0.0,0.0,0.0,0.0,0.0,0.0,0.0,0.0,0.0,0.0,0.0,0.0,0.0,0.0,0.0,0.0,0.0,0.0,0.0,0.0,0.0,0.0,0.0,0.0,0.0,0.0,0.0,0.0,0.0,0.0,0.0,0.0,0.0,0.0,0.0,0.0,0.0,0.0,0.0,0.0,0.0,0.0,0.0,0.0,0.0,0.0,0.0,0.0,0.0,0.0,0.0,0.0,0.0,0.0,1.3019,0.0,0.0,0.0,0.0,0.0,0.0,0.0,0.0,0.0,0.0,0.0,0.0,0.0,0.0,0.0,0.0,0.0,0.0,0.0,0.0,0.0,0.0,0.0,0.0,0.0,0.0,0.0,0.0,0.0,0.0,0.0,0.0,0.0,0.0,0.0,0.0,0.0,0.0,0.0,0.0,1.516,1.5213,1.5146,1.4999,1.4696,1.4434,1.4309,1.4162,1.4015,1.3847,1.3313,0.0,0.0,0.0,0.0,0.0,0.0,0.0,0.0,0.0,0.0,0.0,0.0,0.0,0.0,0.0,0.0,0.0,0.0,0.0,0.0,0.0,0.0,0.0,0.0,0.0,0.0,0.0,0.0,0.0,0.0,0.0,0.0,0.0,0.0,0.0,0.0,0.0,0.0,0.0,0.0,0.0,0.0,0.0,0.0,0.0,0.0,0.0,0.0,0.0,0.0,0.0,0.0,0.0,0.0,0.943,0.9496,0.9496,1.0076,1.1052,1.0555,1.1905,1.4402,0.0,0.0,0.0,0.0,0.0,0.0,0.0,0.0,0.0,0.0,0.0,0.0,0.0,0.0,0.0,0.0,0.0,0.0,0.0,0.0,0.0,0.0,0.0,0.0,0.0,1.7166,1.6857,0.0,0.0,0.0,0.0,0.0,0.0,0.0,0.0,0.0,0.0,0.0,0.0,1.4959,1.4946,1.4905,1.4905,1.4576,1.4367,1.4421,1.4175,1.4015,1.4015,1.3507,1.312,0.0,0.0,0.0,0.0,0.0,0.0,0.0,0.0,0.0,0.0,0.0,0.0,0.0,0.0,0.0,0.0,0.0,0.0,0.0,0.0,0.0,0.0,0.0,0.0,0.0,0.0,0.0,0.0,0.0,0.0,0.0,0.0,0.7801,0.811,0.0,0.0,0.0,0.0,0.0,0.0,0.0,0.0,0.0,0.0,0.0,0.0,0.0,0.0,0.932,0.9578,0.9683,0.9734,1.0036,1.0073,0.9934,0.9934,1.0019,1.0166,1.009,0.0,1.3324,1.3102,0.0,0.0,0.0,0.0,0.0,0.0,0.0,0.0,0.0,0.0,0.0,0.0,0.0,0.0,0.0,0.0,0.0,0.0,0.0,0.0,0.0,0.0,1.7609,1.6927,1.6993,1.7072,0.0,1.6115,1.5701,1.5404,0.0,0.0,0.0,0.0,0.0,0.0,0.0,0.0,1.4986,1.4758,1.4576,1.4576,1.406,1.3847,1.4122,1.3847,1.3666,1.3666,1.3367,1.3287,1.35,1.3006,0.0,0.0,0.0,0.0,0.0,0.0,0.0,0.0,0.0,0.0,0.0,0.0,0.0,0.0,0.0,0.0,0.0,0.0,0.0,0.0,0.0,0.0,0.0,0.0,0.0,0.0,0.0,0.0,0.0,0.7868,0.8174,0.8147,0.8277,0.829,0.0,0.0,0.0,0.0,0.0,0.0,0.0,0.0,0.0,0.9646,0.9771,0.9886,1.0036,1.0134,1.0202,1.0202,1.0337,1.0405,1.0393,1.0393,1.0393,1.0393,1.0393,1.0885,1.1635,1.1361,1.1968,1.302,0.0,0.0,0.0,0.0,0.0,1.2697,1.3244,0.0,0.0,0.0,0.0,0.0,0.0,0.0,0.0,0.0,0.0,0.0,0.0,0.0,0.0,1.7529,1.7689,1.7849,1.7502,1.7089,1.6687,0.0,1.619,1.6056,1.5538,0.0,0.0,0.0,0.0,0.0,1.5213,1.4803,1.4567,1.475,1.4242,1.3948,1.4103,1.3975,1.3874,1.3874,1.3594,1.319,1.2659,1.2415,1.2168,0.0,0.0,0.0,0.0,0.0,0.0,0.0,0.0,0.0,0.0,0.0,0.0,0.0,0.0,0.0,0.0,0.0,0.0,0.0,0.0,0.0,0.0,0.0,0.0,0.0,0.0,0.0,0.0,0.837,0.856,0.8277,0.8669,0.8791,0.0,0.0,0.0,0.0,0.0,0.0,1.0354,1.0898,1.1355,1.1673,1.1372,1.1458,1.1994,1.1512,1.1261,1.1225,1.1225,1.1028,1.0684,1.0684,1.0684,1.0684,1.0684,1.0656,1.0521,1.0148,1.1012,1.2494,1.1285,1.1322,0.0,1.2465,1.2375,1.2225,1.3515,1.3878,1.384,1.3835,0.0,1.5732,1.5493,0.0,0.0,0.0,0.0,1.7367,1.7555,0.0,1.7916,1.7902,1.809,1.8196,1.7956,1.7689,1.7341,0.0,1.6846,1.6712,1.5928,0.0,0.0,0.0,0.0,1.5146,1.5294,1.491,1.4696,1.4852,1.441,1.4103,1.4103,1.4015,1.4001,1.4082,1.386,1.3355,1.2501,1.2468,1.2177,0.0,0.0,0.0,0.0,0.0,0.0,0.0,0.0,0.0,0.0,0.0,0.0,0.0,0.0,0.0,0.0,0.0,0.0,0.0,0.0,0.0,0.0,0.0,0.0,0.0,0.0,0.0,0.0,0.0,0.0,0.8885,0.9379,0.0,0.0,0.0,0.0,0.9669,1.2772,1.4173,1.2994,1.4617,1.5803,1.6242,1.4551,1.4418,1.6085,1.427,1.3286,1.3144,1.3144,1.2306,1.0684,1.0684,1.0684,1.0684,1.0684,1.0684,1.0697,1.0527,1.0347,1.0167,1.0098,1.0002,0.9977,1.0105,1.0094,1.0219,1.2037,1.3326,1.4236,1.4625,1.5326,1.6295,1.7466,1.7689,0.0,0.0,1.7582,1.7595,1.7608,1.7622,1.7635,1.7635,1.7622,1.7648,1.7609,1.7408,1.7125,0.0,1.6524,1.6244,1.5861,0.0,0.0,1.5418,1.5378,1.5284,1.5039,1.4986,1.4865,1.4554,1.4269,1.4103,1.4103,1.3807,1.3767,1.4089,1.4068,1.4047,1.4005,1.4005,1.293,1.0703,1.2802,0.0,0.0,0.0,0.0,0.0,0.0,0.0,0.0,0.0,0.0,0.0,0.0,0.0,0.0,0.0,0.0,0.0,0.0,0.0,0.0,0.0,0.0,0.0,0.0,0.0,0.0,0.0,0.0,0.9494,1.1011,0.0,0.0,1.3514,1.4482,1.3819,1.5351,1.6118,1.5766,1.6284,1.6768,1.7159,1.6412,1.624,1.6784,1.6104,1.5692,1.5538,1.5538,1.5238,1.4645,1.4645,1.4645,1.4636,1.4443,1.377,1.2897,1.3678,1.2532,1.0331,1.0331,1.0932,1.1798,1.1933,1.2639,1.3578,1.4332,1.4775,1.5174,1.5968,1.6207,1.6494,1.7903,1.8263,1.821,1.8397,1.845,1.845,1.845,1.8303,1.8116,1.7902,1.7729,1.7608,1.7608,1.7528,1.7367,1.7073,1.6632,1.627,1.6126,1.5928,1.5768,1.5675,1.5648,1.5608,1.5538,1.5351,1.5204,1.5097,1.4852,1.4598,1.4389,1.4247,1.4154,1.4095,1.4269,1.3637,1.2046,1.217,1.1489,0.9799,1.0588,1.041,0.0,0.0,0.0,0.0,0.0,0.0,0.0,0.0,0.0,0.0,0.0,0.0,0.0,0.0,0.0,0.0,0.0,0.0,0.0,0.0,0.0,0.0,0.0,0.0,0.0,0.0,1.2024,1.1931,1.3631,1.4642,1.4317,1.6315,1.7391,1.6742,1.8193,1.8924,1.8452,1.9008,1.94,1.9606,1.8853,1.8674,1.9128,1.8493,1.8054,1.781,1.781,1.7463,1.6806,1.6806,1.6806,1.6806,1.6619,1.5946,1.5014,1.5869,1.4777,1.2594,1.2409,1.2966,1.3925,1.402,1.4719,1.5719,1.6403,1.6917,1.7356,1.8022,1.7963,1.7781,1.866,1.8931,1.8958,1.9052,1.8998,1.889,1.889,1.8704,1.8437,1.8209,1.7942,1.7742,1.7742,1.7582,1.7408,1.7233,1.6779,1.6417,1.631,1.6019,1.5835,1.5941,1.5861,1.5848,1.5941,1.5701,1.5511,1.5404,1.524,1.5013,1.4696,1.4669,1.4589,1.441,1.4563,1.3916,1.2305,1.2439,1.1947,1.0639,1.0619,1.0905,1.1495,0.0,0.0,0.0,0.0,0.0,0.0,0.0,0.0,0.0,0.0,0.0,0.0,0.0,0.0,0.0,0.0,0.0,0.0,0.0,0.0,0.0,0.0,0.0,1.4963,1.5595,1.616,1.6179,1.716,1.7638,1.7177,1.913,1.9772,1.8225,2.1334,2.2637,2.109,2.2778,2.3803,2.3817,2.2013,2.177,2.3305,2.1498,2.0378,1.9937,1.9937,1.8914,1.7027,1.7027,1.7027,1.7027,1.7016,1.6983,1.6925,1.6972,1.6972,1.6864,1.6181,1.5966,1.5998,1.5988,1.6021,1.6302,1.7988,1.9499,2.0712,2.0712,2.0481,2.0144,1.9893,1.9813,1.976,1.9495,1.9185,1.8916,1.8916,1.8731,1.8504,1.8504,1.8249,1.8009,1.7995,1.7582,1.7233,1.7219,1.6953,1.662,1.6364,1.6046,1.5928,1.627,1.6046,0.0,1.627,1.6032,1.5728,1.5471,1.5431,1.5347,1.5039,1.5013,1.5022,1.5008,1.5022,1.4999,1.4968,1.4968,1.4427,1.3247,1.319,1.4039,1.5821,0.0,0.0,0.0,0.0,0.0,0.0,0.0,0.0,0.0,0.0,0.0,0.0,0.0,0.0,0.0,0.0,0.0,0.0,0.0,0.0,0.0,0.0,1.7887,1.6328,1.6777,1.7427,1.7864,1.9363,2.0367,2.0344,2.2187,2.3171,2.2524,2.3402,2.3822,2.3587,2.373,2.391,2.4075,2.3556,2.3425,2.3647,2.3334,2.3041,2.2713,2.2713,2.2416,2.1883,2.1883,2.1883,2.187,2.1634,2.0868,1.9863,2.0833,2.0543,1.9275,1.7307,1.7331,1.8403,1.8232,1.8806,1.9737,2.0227,2.0532,2.0712,2.0712,2.0481,2.0184,2.0104,2.0077,2.0064,1.9983,1.9786,1.9559,1.9559,1.9185,1.8783,1.8783,1.8584,1.8303,1.8035,1.7889,1.7702,1.7528,1.7247,1.6953,1.6633,1.6513,1.6475,1.658,0.0,0.0,1.658,1.6513,1.6408,1.6353,1.6339,1.6139,1.5608,1.5591,1.5404,0.0,1.5186,1.4972,1.4239,1.4375,1.434,1.3991,1.3273,1.3992,0.0,0.0,0.0,0.0,0.0,0.0,0.0,0.0,0.0,0.0,0.0,0.0,0.0,0.0,0.0,0.0,0.0,0.0,0.0,0.0,0.0,0.0,2.0199,2.1112,2.0267,2.0298,2.0635,2.1238,2.2384,2.3167,2.3216,2.4308,2.4893,2.477,2.4756,2.4823,2.4959,2.469,2.4583,2.4743,2.4756,2.4676,2.4502,2.4663,2.4609,2.4352,2.4352,2.4249,2.4142,2.4142,2.4142,0.0,2.3919,2.3307,2.248,2.3182,2.2878,0.0,0.0,0.0,0.0,0.0,2.0715,2.1296,2.1296,2.1109,2.0855,2.0855,2.0748,2.0544,2.0454,2.0414,2.0388,2.0237,2.0077,1.9987,1.9987,1.9703,1.941,1.929,1.9065,1.8799,1.8449,1.8289,1.8156,1.7996,0.0,0.0,1.7488,1.7034,1.674,1.6899,1.678,1.6754,0.0,1.678,1.67,1.67,1.67,1.6567,1.6195,1.6168,0.0,0.0,0.0,1.5669,1.5095,0.0,0.0,0.0,0.0,1.562,0.0,0.0,0.0,0.0,1.6918,1.701,0.0,0.0,0.0,0.0,0.0,0.0,0.0,0.0,0.0,0.0,0.0,0.0,0.0,0.0,0.0,0.0,2.274,2.4569,2.5184,2.4823,2.4663,2.5168,2.5411,2.5571,2.5611,2.5611,2.5625,2.5651,2.5625,2.5625,2.5651,0.0,0.0,0.0,0.0,2.5585,2.5611,2.5585,2.5451,2.5262,2.5195,2.501,2.4746,2.4706,2.4693,2.4693,2.4693,2.4693,2.4679,2.4462,2.4329,2.4209,2.3348,2.28,2.2432,2.2178,2.1917,0.0,0.0,0.0,0.0,2.1162,2.1136,2.1069,2.0833,2.0753,2.0668,2.037,2.0277,2.025,2.025,2.0224,2.0144,1.9907,1.9653,1.9372,1.901,1.8771,1.8571,1.8504,1.849,1.849,1.849,1.7609,1.6994,1.7313,1.71,0.0,1.7326,1.71,1.6901,1.6901,0.0,0.0,1.686,1.686,1.6822,1.6807,1.6834,1.686,1.686,1.7207,1.7367,1.7274,1.7622,1.8023,1.849,1.8584,1.896,1.9468,1.8569,1.8463,0.0,0.0,0.0,0.0,0.0,0.0,0.0,0.0,0.0,0.0,0.0,0.0,0.0,0.0,0.0,2.2981,2.4306,2.5545,2.6373,2.6386,2.6186,2.5864,2.5877,2.5998,2.6199,2.6226,2.6319,2.6547,2.6346,2.6319,2.656,2.6119,0.0,2.6213,2.6038,2.6024,2.6213,2.6024,2.5998,2.6132,0.0,0.0,2.573,2.5451,2.5344,2.5344,2.5344,2.5344,2.5331,2.5277,2.5117,2.4823,2.3977,2.3295,2.28,2.2746,2.2398,2.193,2.193,2.1743,2.1502,2.1502,2.1309,2.1096,2.1042,2.1029,0.0,2.0949,2.0775,2.0588,2.0588,2.0414,2.0184,2.013,2.0077,1.992,1.9428,1.9267,1.908,1.8584,1.849,1.849,1.849,1.8303,1.817,1.8251,1.8183,1.817,1.8251,1.8183,1.8143,1.8143,1.8143,1.805,1.7782,1.7756,1.7649,1.7435,1.7622,1.7756,1.7756,1.8276,1.8329,1.7849,1.8624,1.8879,1.849,1.9199,1.9733,2.0024,1.9412,1.9305,0.0,0.0,0.0,0.0,0.0,0.0,0.0,0.0,0.0,0.0,0.0,2.0342,0.0,0.0,2.4035,2.4943,2.5692,2.6373,2.6961,2.7041,2.6934,2.6693,2.6653,2.6707,2.6854,2.6867,2.6934,2.7028,2.6907,2.6894,2.7041,2.6814,2.672,2.6867,2.6734,2.672,2.6867,2.672,2.672,2.6867,2.6533,2.6506,2.664,2.6306,2.6253,2.6373,2.6079,2.6039,2.6146,2.5852,2.5558,2.5237,2.4649,2.4098,2.35,2.3207,2.2806,2.2439,2.2258,2.1957,2.1582,2.1582,2.1381,2.1109,2.1109,2.1109,2.1109,2.1109,2.1002,2.0895,2.0895,2.0788,2.0641,2.0494,2.0454,2.0334,1.9893,1.98,1.9666,1.9239,1.9265,1.9319,1.9172,1.9265,1.9172,1.8584,1.849,1.849,1.849,1.849,1.849,1.849,1.8624,1.8623,1.8476,1.8463,1.8329,1.8077,1.8289,1.8463,1.8463,1.9023,1.9225,1.8903,1.9506,1.9733,1.9586,2.0057,2.0388,2.0637,2.0374,2.0321,0.0,0.0,0.0,0.0,0.0,0.0,0.0,0.0,1.9668,2.1284,2.2231,2.3081,2.4058,2.4676,2.536,2.64,2.68,2.7094,2.7429,2.7483,2.7483,2.7483,2.7376,2.7322,2.7389,2.7389,2.7416,2.7469,2.7483,2.7483,2.7483,2.7416,2.7416,2.7469,2.7362,2.7362,2.7469,2.7362,2.7362,2.7469,2.7362,2.7336,2.7389,2.7041,2.7041,2.7282,2.6707,2.66,2.6747,2.6292,2.5904,2.5571,2.5277,2.4836,2.4302,2.3714,2.326,2.2947,2.2672,2.2205,2.1756,2.1756,2.1555,2.1283,2.1283,2.1283,2.1283,2.1283,2.1243,2.1189,2.1189,2.1149,2.1056,2.0815,2.0793,2.0681,2.0388,2.029,2.0197,1.9947,2.0037,2.013,1.992,2.005,1.989,1.8971,1.8824,1.8824,1.8824,1.8824,1.8824,1.8824,1.901,1.9143,1.9143,1.9143,1.905,1.8838,1.9023,1.9143,1.9143,1.9693,1.9947,1.988,2.0197,2.0494,2.0712,2.0766,2.0882,2.1109,2.1109,2.1109,1.1464,1.2937,1.5104,1.7708,1.8258,1.9112,0.0,0.0,2.3497,2.4706,2.5264,2.5596,2.573,2.6186,2.6707,2.7148,2.7415,2.7709,2.8045,2.8085,2.8085,2.8085,2.763,2.7403,2.7629,2.7655,2.7804,2.8072,2.8085,2.8085,2.8085,2.7831,2.7776,2.8085,2.7576,2.7563,2.8085,2.7563,2.7576,2.8085,2.755,2.7443,2.7642,2.7389,2.7269,2.7282,2.6921,2.6747,2.68,2.6466,2.6212,2.5917,2.5585,2.5264,2.4917,2.4315,2.3754,2.3238,2.3198,2.2798,2.2325,2.2325,2.2124,2.1884,2.1884,2.1884,2.1884,2.1884,2.1729,2.1542,2.1542,2.1309,2.1096,2.1069,2.1069,2.0989,2.0695,2.0628,2.0535,2.021,2.0184,2.0197,2.0157,2.0184,2.0157,2.0024,2.001,2.001,2.001,2.001,2.001,2.001,2.0037,2.005,2.005,2.005,2.0037,2.001,2.0037,2.005,2.005,2.0401,2.0454,2.0157,2.0704,2.0895,2.0712,2.0935,2.1082,2.1109,2.1109,2.1109,1.5574,1.6781,0.0,0.0,2.153,2.2319,2.416,2.4716,2.5024,2.5852,2.6253,2.656,2.6907,2.7161,2.7428,0.0,2.7924,2.8045,2.8165,2.8179,2.8179,2.8179,2.7965,2.7938,2.8203,2.823,2.8283,2.8404,2.8417,2.8379,2.8192,2.8072,2.8058,2.8179,2.7951,2.7938,2.8179,2.7938,2.7938,2.8179,2.7938,2.7884,2.7991,2.7655,2.7469,2.7309,2.7308,2.7134,2.6774,2.6694,2.6466,2.6225,2.5917,2.573,2.5516,2.4543,2.4048,2.3808,2.3647,2.33,2.2913,2.2739,2.2472,2.2205,2.2031,2.1991,2.1991,2.1991,2.193,2.1836,2.1836,2.1743,2.1617,2.1617,2.1617,2.159,2.147,2.1341,2.1181,2.1029,2.1002,2.0949,2.0775,2.1029,2.1136,2.0802,2.0424,2.0197,2.0197,2.0197,2.0264,2.0468,2.0494,2.0494,2.0494,2.0494,2.0414,2.021,2.0401,2.0494,2.0494,2.0775,2.0869,2.0748,2.0989,2.1042,2.0922,2.1056,2.1109,2.1109,2.1109,2.1109,1.9035,0.0,0.0,2.2875,2.4022,2.481,2.5264,2.5758,2.6266,2.6814,2.7041,2.7321,2.7749,2.7816,2.7923,2.8259,2.8312,2.8312,2.8312,2.8312,2.8286,2.8192,2.8179,2.8312,2.8577,2.8604,2.8644,2.8724,2.8657,2.8511,2.8326,2.8312,2.8272,2.8192,2.8272,2.8272,2.8179,2.8179,2.8179,2.8179,2.8179,2.8179,2.8179,2.7965,2.775,2.755,2.7642,2.7455,2.7054,2.6974,2.6827,2.66,2.6265,2.6118,2.5984,2.4943,2.4516,2.4409,2.4115,2.3821,2.3514,2.3255,2.2966,2.2752,2.2572,2.2505,2.2505,2.2505,2.2418,2.2352,2.2352,2.2285,2.2265,2.2265,2.2265,2.2205,2.2124,2.197,2.1796,2.1716,2.1703,2.1636,2.139,2.171,2.1844,2.1416,2.0989,2.0624,2.0464,2.0437,2.053,2.0775,2.0802,2.0802,2.0802,2.0802,2.0708,2.0464,2.0681,2.0802,2.0802,2.1002,2.1109,2.1109,2.1109,2.1109,2.1109,2.1109,2.1109,2.1109,2.1109,2.1109,2.0927,0.0,2.3078,2.4252,2.5251,2.6172,2.7028,2.7415,2.7722,2.8072,2.8138,2.8152,2.8165,2.8165,2.8272,2.8537,2.8591,2.8591,2.8591,2.8591,2.8484,2.8219,2.8179,2.8312,0.0,2.8604,2.8724,2.8961,2.8764,2.8604,2.8591,2.8591,2.8457,2.8192,2.843,2.8444,2.8192,2.8179,2.8179,2.8179,2.8179,2.8179,2.8179,2.8179,2.8165,2.8138,2.7816,2.7682,2.7655,2.7375,2.7282,2.7229,2.66,2.6373,2.6306,2.5692,2.5291,2.5048,2.4679,2.4386,2.4128,2.387,2.3777,2.3763,2.375,2.375,2.375,2.375,2.3514,2.3252,2.3252,2.306,2.2867,2.2867,2.2867,2.2786,2.2472,2.2392,2.2311,2.2031,2.201,2.1964,2.1964,2.1977,2.1977,2.1997,2.1951,2.1724,2.1162,2.1082,2.1082,2.1096,2.1096,2.1096,2.1096,2.1096,2.1096,2.1082,2.1096,2.1096,2.1096,2.1109,2.1109,2.1109,2.1109,2.1109,2.1109,2.1109,2.1109,2.1109,2.1109,2.1109,2.2377,2.3514,2.4623,2.5746,2.6453,2.7041,2.7737,2.7965,2.8058,2.8165,2.7871,2.7603,2.7603,2.7603,2.763,2.7696,2.8217,2.8537,2.8366,2.8644,2.8711,2.8245,2.8366,0.0,0.0,0.0,0.0,2.8988,2.9125,2.9098,2.8855,2.8855,2.8801,2.8738,2.8845,2.8751,2.8457,2.8457,2.8393,2.8179,2.8179,2.8179,2.8179,2.8179,2.8179,2.8179,2.8072,2.7924,2.7696,2.7589,2.7483,2.7282,2.7081,2.6854,2.6653,2.6453,2.6199,2.5879,2.5384,2.5157,2.5024,2.473,2.4502,2.4302,2.4115,2.3928,2.3803,2.3803,2.3736,2.3621,2.3621,2.3541,2.3496,2.3496,2.3496,2.3469,2.334,2.3166,2.3046,2.3188,2.3006,2.2873,2.2873,2.3046,2.31,2.2913,2.2365,2.1943,2.171,2.1555,2.1515,2.167,2.1555,2.1435,2.1435,2.1435,2.1435,2.1435,2.1435,2.1529,2.1683,2.1697,2.1603,2.1435,2.1435,2.1309,2.1109,2.1109,2.1109,2.1109,2.1109,2.1109,2.3647,2.473,2.5798,2.6867,2.7362,2.7724,2.8098,2.8179,2.8179,2.8179,2.771,2.7269,2.7121,2.7108,2.7148,2.7282,2.7965,2.8526,2.8647,2.8778,2.8818,2.8687,2.8617,0.0,0.0,0.0,0.0,2.9192,2.9379,2.9406,2.9205,2.9255,2.9215,2.9001,2.9202,2.9121,2.8764,2.8721,2.8604,2.8353,2.8232,2.8179,2.8179,2.8179,2.8179,2.8179,2.8179,2.8072,2.7898,2.7898,2.7791,2.7617,2.7496,2.7308,2.7121,2.7014,2.6867,2.66,2.5919,2.5678,2.5625,2.5331,2.5104,2.4879,2.473,2.4543,2.4396,2.4396,2.4352,2.4272,2.4272,2.4191,2.4075,2.4075,2.4075,2.4048,2.3941,2.3768,2.3674,2.379,2.3621,2.3447,2.3305,2.3487,2.3554,2.3319,2.2926,2.2512,2.2178,2.1917,2.181,2.1964,2.185,2.1743,2.1743,2.1743,2.1743,2.1743,2.1743,2.1783,2.1863,2.197,2.1836,2.1435,2.1529,2.1435,2.1109,2.1109,2.1109,2.1109,2.1216,2.1269,2.478,2.5785,2.6653,2.7509,2.7978,2.8179,2.8179,2.8179,2.8179,2.8138,2.7657,2.7148,0.0,0.0,2.6881,2.7215,2.7817,2.8553,2.9339,2.9018,2.8885,0.0,0.0,0.0,0.0,0.0,0.0,2.9513,0.0,2.9526,2.9553,2.9806,2.9655,2.9108,2.9615,2.9615,2.9041,2.9015,2.8855,2.8604,2.8353,2.8205,2.8179,2.8179,2.8179,2.8179,2.8179,2.8179,2.8179,2.8179,2.8179,2.8152,2.7829,2.7709,2.7669,2.7429,2.7322,2.7188,2.6346,2.6065,2.6011,2.5678,2.5571,2.5558,2.5545,2.5518,2.5518,2.5518,2.5304,2.5115,2.5115,2.4863,2.4599,2.4599,2.4599,2.4519,2.4289,2.4222,2.4142,2.391,2.3843,2.3728,2.3412,2.3359,2.3359,2.3359,2.3621,2.3474,2.2605,2.2231,2.2058,2.2058,2.2044,2.2031,2.2004,2.2004,2.2004,2.2004,2.2004,2.193,2.1695,2.1917,2.175,2.1162,2.1462,2.1462,2.1109,2.1109,2.1122,2.1136,2.1448,2.1582,2.5718,2.6694,2.7468,2.7965,2.8125,2.8179,2.8179,2.8179,2.8058,2.7617,2.6894,2.6172,0.0,0.0,0.0,2.656,2.8072,0.0,2.9152,2.9593,0.0,2.9175,0.0,2.9526,2.9379,2.9766,0.0,0.0,2.9927,2.9993,3.0434,3.0528,3.0501,3.0354,3.0287,3.0074,2.9655,2.9215,2.8855,2.8604,2.8524,2.8406,2.8179,2.8179,2.8179,2.8179,2.8179,2.8179,2.8179,2.8179,2.8179,2.8179,2.8098,2.7938,2.7696,2.7615,2.7455,2.7269,2.7055,2.6974,2.6921,2.6587,2.6346,2.6132,2.5944,2.5692,2.5518,2.5518,2.5304,2.5115,2.5115,2.4863,2.4599,2.4599,2.4599,2.4572,2.4506,2.4492,2.4466,2.4399,2.4422,2.4359,2.4279,2.4266,2.4266,2.4266,2.4182,2.3928,2.3487,2.3166,2.2993,2.2993,2.2779,2.2586,2.2325,2.2311,2.2311,2.2311,2.2311,2.2378,2.2559,2.2639,2.2398,2.1777,2.183,2.1617,2.1109,2.1109,2.1229,2.1475,2.1542,2.1582,2.652,2.7362,2.7978,2.8138,2.8179,2.8085,2.7697,2.7603,2.7403,2.664,2.5892,0.0,2.4783,2.5277,0.0,0.0,0.0,0.0,2.9566,2.994,3.0127,0.0,3.006,0.0,3.006,3.0354,3.0595,0.0,3.0474,3.0448,3.0768,3.0915,3.0929,3.0795,3.0635,3.0341,2.9913,2.9459,2.9152,2.8991,2.8738,2.8511,2.8379,2.8245,2.8179,2.8179,0.0,2.8179,2.8179,2.8179,2.8179,2.8179,2.8179,2.8085,2.7938,2.7938,2.7831,2.7697,2.7697,2.7697,2.7603,2.7001,2.6627,2.636,2.6238,2.6026,2.5892,2.5892,2.5692,2.5503,2.5503,2.5251,2.4986,2.4986,2.4986,2.4986,2.4986,2.4986,2.4946,2.4863,2.4693,2.4559,2.4426,2.4412,2.4412,2.4412,2.4422,2.4329,2.4168,2.3661,2.3292,2.3292,2.3046,2.2827,2.2632,2.2619,2.2619,2.2619,2.2619,2.2632,2.2672,2.2827,2.2612,2.1991,2.2111,2.1951,2.1496,2.1496,2.1577,2.1783,2.1903,2.197,2.7269,2.7791,2.8179,2.8179,2.8152,2.7911,2.7014,2.6747,2.6507,2.5585,0.0,2.4439,2.4142,2.4796,2.5531,2.5984,0.0,2.9005,3.0186,3.014,3.0301,3.1022,3.0742,3.0641,3.0875,3.0942,3.1076,3.1283,3.1102,3.0955,3.0915,3.1142,3.1129,3.0808,3.0822,3.0555,2.9927,2.97,2.9566,2.9472,2.8925,2.8644,2.8591,2.8326,2.8179,2.8179,0.0,0.0,2.8179,2.8179,2.8179,2.8179,2.8179,2.8179,2.8179,2.8179,2.8179,2.8179,2.8179,2.8165,2.7991,2.7134,2.6707,2.6493,2.6413,2.6386,2.6386,2.6386,2.6225,2.5998,2.5998,2.5732,2.5518,2.5518,2.5518,2.5518,2.5518,2.5518,2.5438,2.5184,2.4903,2.4586,2.4409,2.4342,2.4315,2.4315,2.4529,2.4639,2.4599,2.3932,2.3452,2.3412,2.3166,2.3,2.296,2.292,2.2893,2.2893,2.2893,2.2786,2.2485,2.276,2.2639,2.2058,2.2285,2.2271,2.1991,2.1991,2.2004,2.2044,2.2298,2.2385,2.7871,2.8112,2.8179,2.8179,2.8005,2.7602,2.6974,2.664,0.0,0.0,2.4516,2.4115,2.3545,2.4159,2.5079,2.6146,2.7602,2.8925,2.986,3.0368,3.0608,0.0,0.0,0.0,0.0,0.0,0.0,0.0,0.0,0.0,3.1577,3.157,3.1343,3.0808,3.1022,3.0755,2.9927,3.0114,3.0012,2.9486,2.9125,2.8788,2.8591,2.8326,2.8179,2.8179,0.0,0.0,2.8179,2.8179,2.8179,2.8179,2.8179,2.8179,2.8179,2.8179,2.8179,2.8179,2.8179,2.8018,2.7709,2.7362,2.7202,2.7068,2.6533,2.6386,2.6386,2.6386,2.6225,2.5998,2.5998,2.5732,2.5518,2.5518,2.5518,2.5518,2.5518,2.5518,2.5504,2.5451,2.5197,2.5064,2.5251,2.509,2.493,2.493,2.497,2.4917,2.4639,2.4466,2.4279,2.4075,2.3781,2.3514,2.326,2.3041,2.2893,2.2893,2.2893,2.288,2.2827,2.2867,2.2733,2.2352,2.2392,2.2271,2.1991,2.1991,2.2111,2.2352,2.2392,2.2385,2.8112,2.8179,2.8179,2.8179,2.7844,2.7241,2.6346,0.0,0.0,0.0,2.3474,2.3233,2.3113,2.3808,2.469,2.5571,2.6814,2.8096,2.9242,2.9967,0.0,3.0768,0.0,0.0,0.0,0.0,0.0,0.0,0.0,0.0,3.1724,3.1711,3.1463,3.1036,3.1009,3.0728,3.0154,3.014,2.9913,2.9486,2.9179,2.8921,2.8775,2.8393,2.8272,2.8419,0.0,0.0,2.8179,2.8179,2.8179,2.8179,2.8179,2.8179,2.8179,2.8179,2.8179,2.8179,2.8179,2.8085,2.7924,2.763,2.7281,2.6987,2.6707,2.6507,2.6386,2.6386,2.6332,2.6225,2.6225,2.6079,2.5972,2.5972,2.5972,2.5972,2.5972,2.5972,2.5932,2.5772,2.5663,2.5531,2.5518,2.5398,2.5251,2.5104,2.5115,2.497,2.4639,2.4599,2.4492,2.4235,2.3808,2.3541,2.3554,2.3273,2.3166,2.3362,2.3375,2.3295,2.3113,2.31,2.2966,2.2659,2.2645,2.2612,2.2479,2.2479,2.2512,2.2645,2.2645,2.2739,2.8085,2.8138,2.8179,2.8179,2.7737,2.7001,2.5785,2.4877,0.0,2.3094,2.2672,2.2579,2.2853,2.35,2.4249,2.4957,2.5959,2.7175,2.8681,2.9468,3.0221,0.0,0.0,0.0,0.0,0.0,0.0,0.0,0.0,0.0,3.1724,3.1711,3.153,3.1189,3.1009,3.0715,3.0413,3.0127,2.986,2.9579,2.9272,2.9095,2.9068,2.8553,2.8419,2.8591,0.0,0.0,0.0,2.8179,2.8179,2.8179,2.8179,2.8179,2.8179,2.8179,2.8179,2.8179,2.8179,2.8179,2.8138,2.7789,2.7388,2.7001,2.6934,2.672,2.648,2.648,2.644,2.6386,2.6386,2.6386,2.6386,2.6386,2.6386,2.6386,2.6386,2.6386,2.6319,2.6131,2.6038,2.5944,2.5732,2.5651,2.5531,2.5304,2.5302,2.5157,2.4826,2.4786,2.4693,2.4502,2.3901,2.3607,2.3848,2.3594,2.3527,2.379,2.3803,2.3661,2.3434,2.3332,2.3207,2.3,2.2934,2.2893,2.2893,2.2893,2.2893,2.2893,2.2893,2.3033,2.7736,2.7978,2.8179,2.8179,2.7737,2.7001,2.5785,0.0,2.4262,2.3134,2.288,2.2867,2.2893,2.3153,2.3781,2.4903,2.565,2.668,2.8404,2.9379,3.014,3.0755,0.0,0.0,0.0,0.0,0.0,0.0,0.0,0.0,0.0,3.1711,3.153,3.1189,3.1196,3.0915,3.0413,3.0386,3.0167,2.9873,2.9579,2.9446,2.9419,2.8831,2.8577,2.8591,0.0,0.0,0.0,2.8179,2.8179,2.8179,2.8179,2.8179,2.8179,2.8179,2.8179,2.8179,2.8179,2.8179,2.8138,2.7789,2.7655,2.7562,2.7349,2.7014,2.6747,2.6747,2.6587,2.6386,2.6386,2.6386,2.6386,2.6386,2.6386,2.6386,2.6386,2.6386,2.6386,2.636,2.6172,2.6078,2.6266,2.6131,2.5944,2.5917,2.5917,2.581,2.5464,2.5438,2.5424,2.5398,2.4636,2.4128,2.4155,2.3901,2.3777,2.3803,2.3803,2.379,2.3763,2.3474,2.3278,2.3252,2.3006,2.2893,2.2893,2.2893,2.2893,2.2893,2.2893,2.3033,2.7602,2.7951,2.8179,2.8179,2.7349,2.6346,2.5665,0.0,2.3434,2.3,2.2746,2.2712,2.3073,2.3086,2.338,2.4382,2.4609,2.5235,2.6827,2.7615,2.8604,3.0087,3.0635,0.0,0.0,0.0,0.0,0.0,0.0,0.0,0.0,3.1396,3.1263,3.0969,3.0795,3.0641,3.0413,3.0181,2.994,2.9659,2.9539,2.9486,2.9459,2.8871,2.8698,2.8801,0.0,0.0,0.0,2.8179,2.8179,2.8179,2.8179,2.8179,2.8179,2.8179,2.8179,2.8179,2.8179,2.8179,2.8165,2.8045,2.8005,2.7884,2.7201,2.68,2.656,2.656,2.648,2.6386,2.6386,2.6386,2.6426,2.6613,2.652,2.6386,2.6386,2.6386,2.644,2.6613,2.6413,2.6306,2.66,2.6413,2.6198,2.6024,2.5998,2.5891,2.5545,2.5518,2.5518,2.5518,2.4839,2.4543,2.4716,2.4302,2.4102,2.4275,2.4289,2.4209,2.4035,2.3915,2.3768,2.3594,2.33,2.314,2.314,2.2987,2.2893,2.2893,2.2893,2.3033,2.7175,2.7764,2.8179,2.8179,2.7148,2.6024,0.0,0.0,2.3121,2.2934,2.2699,2.2686,2.3113,2.3041,2.3161,2.3941,2.3981,2.4446,2.5917,2.6587,2.7602,0.0,0.0,0.0,0.0,0.0,0.0,0.0,0.0,0.0,0.0,3.1022,3.0915,3.0795,3.056,3.04,3.04,3.006,2.982,2.9606,2.9606,2.9606,2.9593,2.9005,2.8801,0.0,0.0,0.0,0.0,2.8179,2.8179,2.8179,2.8179,2.8179,2.8179,2.8179,2.7757,2.7279,2.7968,2.7757,2.7266,2.7861,2.8058,2.7924,2.7161,2.6814,2.6627,2.6547,2.652,2.652,2.652,2.652,2.6573,2.6774,2.6667,2.6547,2.6627,2.6693,2.6707,2.6907,2.6787,2.672,2.6921,2.6707,2.6453,2.6279,2.6185,2.6051,2.5798,2.5772,2.554,2.4856,2.4938,2.5077,2.5197,2.4756,2.4556,2.4756,2.477,2.4636,2.4342,2.4329,2.4195,2.3901,2.3607,2.346,2.346,2.3268,2.3121,2.3027,2.3027,2.3166,2.6319,2.7296,2.8179,2.8179,2.7296,2.6226,2.5638,2.4609,2.3629,2.3014,2.2893,2.2893,2.2893,2.2893,2.3094,2.371,2.4008,2.4716,2.6172,2.6934,2.7643,0.0,0.0,0.0,0.0,0.0,0.0,0.0,0.0,0.0,0.0,3.0574,3.0547,3.0782,3.056,3.04,3.04,3.006,2.9913,2.9913,2.9913,2.9913,2.9887,2.9255,0.0,0.0,0.0,0.0,0.0,2.8179,2.8179,2.8179,2.8179,2.8179,2.8179,2.8179,2.6715,2.5075,2.7405,2.6673,2.5082,2.7067,2.7709,2.7642,2.7389,2.7296,2.7242,2.6894,2.6814,2.6814,2.6814,2.6814,2.6814,2.6787,2.6814,2.6894,2.7229,2.7296,2.7296,2.7309,2.7296,2.7296,2.7309,2.7014,2.6774,2.6774,2.6573,2.6386,2.6386,2.6386,2.5568,2.3368,2.4825,2.5864,2.5531,2.5237,2.5077,2.5077,2.5077,2.4943,2.4613,2.4599,2.4452,2.4209,2.3915,2.3803,2.3803,2.3803,2.3607,2.3292,2.3292,2.3487,2.5064,2.5611,2.6038,2.5798,2.517,2.4556,2.4369,2.375,2.3134,2.2934,2.2893,2.296,2.314,2.3006,2.3228,2.4195,2.4275,2.4569,2.5638,0.0,0.0,2.8708,0.0,0.0,0.0,0.0,0.0,0.0,0.0,0.0,0.0,3.0221,3.01,3.0194,3.01,3.006,3.006,2.9967,2.9913,2.9913,2.9713,2.9619,2.9606,2.9005,0.0,0.0,0.0,0.0,0.0,2.8179,2.8179,2.8179,2.8179,2.7236,2.5811,2.5811,2.4337,2.2428,2.3158,2.2944,2.2396,2.2925,2.3159,2.3183,2.2813,2.4865,2.7282,2.7148,2.5995,2.5124,2.6755,2.7121,2.7068,2.6867,2.6974,2.7094,2.6987,2.7121,2.7362,2.7522,2.7443,2.7362,2.7522,2.7148,2.6787,2.6787,2.6573,2.6386,2.6386,2.6386,2.5528,2.334,2.5003,2.5531,2.3727,2.4675,2.5371,2.5371,2.5371,2.5251,2.4957,2.4943,2.4796,2.4466,2.4209,2.4062,2.4062,2.391,2.3763,2.3634,2.3634,2.3781,2.3879,2.4516,2.4863,2.4653,2.4115,0.0,2.3777,2.3161,2.2599,2.2706,2.2699,2.2752,2.2918,2.2913,2.3215,2.4155,2.4155,2.4422,2.5531,0.0,0.0,2.8655,0.0,0.0,0.0,0.0,0.0,0.0,0.0,0.0,0.0,0.0,2.9753,2.9753,2.9646,2.9535,2.9535,2.9535,2.9535,2.9535,2.9406,2.9312,2.9299,0.0,0.0,0.0,0.0,0.0,0.0,2.7236,2.6885,2.68,2.5884,2.4679,2.3384,2.3384,2.1911,2.0053,2.0919,2.061,1.9962,2.0757,2.1064,2.1102,2.091,2.2626,2.4848,2.5839,2.4412,2.3324,2.6464,2.6682,2.6182,2.6692,2.7134,2.7375,2.7188,2.7388,2.7697,2.7871,2.7764,2.7697,2.7884,2.7468,2.7121,2.7001,2.6747,2.6507,2.64,2.6386,2.5528,2.334,2.5092,2.5424,2.3036,2.457,2.5678,2.5678,2.5678,2.5545,2.5251,2.5237,2.5104,2.4773,2.4516,2.4369,2.4369,2.4075,2.3928,2.3928,2.3928,2.4035,0.0,2.3745,2.4372,2.4359,2.3759,2.3273,2.3589,2.28,0.0,2.2338,2.2405,2.2432,2.2445,2.2672,2.3108,2.3736,2.3843,0.0,0.0,2.6319,0.0,0.0,0.0,0.0,0.0,0.0,0.0,0.0,0.0,0.0,0.0,0.0,2.9419,2.9419,2.9125,2.8948,2.9001,2.9001,2.9001,2.9001,2.8975,2.8961,2.8961,0.0,0.0,0.0,0.0,0.0,0.0,2.5853,2.4861,2.4477,2.2299,2.1264,2.0962,2.0962,1.9488,1.7851,1.9966,1.9186,1.7622,1.978,2.0485,2.0514,2.0657,2.0406,2.0645,2.3236,2.2242,2.139,2.5697,2.5339,2.4222,2.5937,2.6803,2.721,2.7197,2.7462,2.7743,2.7926,2.7841,2.7799,2.8136,2.7632,2.7188,2.7089,2.6771,2.648,2.6215,2.632,2.5528,2.334,2.5092,2.5489,2.33,2.4889,2.6024,2.6024,2.6024,2.5891,2.5558,2.5518,2.5371,2.5128,2.4783,2.4599,2.4599,2.4369,2.4235,2.4235,2.4235,2.4235,2.155,0.0,2.2251,2.1991,2.1951,2.2024,0.0,2.2064,2.2004,2.2071,2.2258,2.2485,2.2746,2.2853,2.3174,2.3968,0.0,2.4449,2.5478,0.0,0.0,0.0,0.0,0.0,0.0,0.0,0.0,0.0,0.0,0.0,0.0,0.0,2.8818,2.8818,2.8553,2.8577,2.8988,2.9001,2.9001,2.8988,2.8775,2.8711,2.8612,0.0,0.0,0.0,0.0,0.0,2.8136,2.7575,2.6333,2.4648,2.4081,2.1696,1.8584,1.8584,1.7115,1.5212,1.5734,1.5454,1.4974,1.5523,1.5605,1.5529,1.5703,1.6988,1.8883,2.1259,2.024,1.9054,2.1663,2.2086,2.1863,2.1828,2.2307,2.2684,2.2457,2.2652,2.3384,2.516,2.4069,2.3984,2.7575,2.4975,2.2994,2.4681,2.4521,2.4195,2.4134,2.5458,2.5528,2.334,2.5092,2.5489,2.33,2.5068,2.6332,2.6332,2.6332,2.6198,2.5904,2.5638,2.5371,2.5128,2.4783,2.4599,2.4599,2.4532,2.4492,2.4492,2.4492,2.4492,2.1109,2.1323,2.1542,2.1381,2.1462,2.1622,2.1756,2.167,2.1617,2.1796,2.1943,2.2144,2.2439,2.2719,2.3148,0.0,2.4222,0.0,0.0,0.0,0.0,0.0,0.0,0.0,0.0,0.0,0.0,0.0,0.0,0.0,0.0,0.0,2.8604,2.8604,2.8353,2.8339,2.8617,2.8631,2.8631,2.8631,2.847,2.8433,2.839,0.0,0.0,0.0,0.0,0.0,2.6406,2.4283,2.2686,2.1437,2.0366,1.9063,1.7676,1.6597,1.6078,1.5734,1.469,1.4156,1.3966,1.3966,1.3905,1.3815,1.3939,1.4967,1.6542,1.8775,1.7759,1.6717,1.9877,2.0098,1.9661,2.0182,2.077,2.1419,2.2182,2.2567,2.3169,2.4465,2.3684,2.3255,2.4764,2.2749,2.1735,2.3894,2.3026,2.2445,2.3365,2.4323,2.4442,2.322,2.5092,2.5898,2.4721,2.5817,2.6587,2.6587,2.6587,2.652,2.636,2.5945,2.5571,2.5291,2.4813,2.4666,2.4836,2.4666,2.4599,2.4599,2.4599,2.4599,2.1162,2.1422,2.1622,2.1542,2.1515,2.1582,2.179,2.147,2.1176,2.1462,2.1582,2.1756,2.2091,2.2639,0.0,0.0,0.0,0.0,2.676,0.0,0.0,0.0,0.0,0.0,0.0,0.0,0.0,0.0,0.0,0.0,0.0,0.0,0.0,2.8537,2.8326,2.8179,2.8179,2.7841,2.7659,2.7659,2.7321,2.7321,2.7672,2.7279,0.0,0.0,0.0,0.0,2.4392,2.0096,1.8104,1.7588,1.5601,1.5814,1.7028,1.5036,1.5557,1.6976,1.4963,1.4095,1.3914,1.4257,1.4115,1.388,1.4223,1.4184,1.4426,1.618,1.5323,1.4686,1.8584,1.8305,1.7373,1.9015,1.9752,2.0696,2.2777,2.3154,2.3309,2.4038,2.3609,2.2697,2.1437,2.0616,2.0945,2.3371,2.1979,2.1379,2.3423,2.3706,2.3728,2.3692,2.5354,2.644,2.6386,2.6694,2.6894,2.6894,2.6518,2.6118,2.5706,2.557,2.5334,2.5007,2.4783,2.485,2.5144,2.4759,2.4626,2.4666,2.4626,2.4626,2.1448,2.1729,2.1836,2.1296,2.1176,2.1189,2.1229,2.1176,2.1122,2.1162,2.1577,2.2117,2.2666,2.3255,2.3821,0.0,0.0,0.0,0.0,0.0,0.0,0.0,0.0,0.0,0.0,0.0,0.0,0.0,0.0,0.0,0.0,0.0,0.0,2.8259,2.8205,2.8179,2.8179,2.6236,2.5245,2.5203,2.3212,2.3298,2.516,2.3169,2.4454,0.0,0.0,0.0,2.4465,2.1782,1.9532,1.7763,1.7413,1.6246,1.4778,1.4431,1.4513,1.4757,1.4281,1.4119,1.4381,1.6297,1.5517,1.418,1.6153,1.5418,1.386,1.3958,1.3894,1.4,1.4851,1.4865,1.4698,1.5111,1.5308,1.5982,1.8287,1.7274,1.7036,2.0962,1.8593,1.7036,2.0572,1.7938,1.6809,2.0998,2.1149,2.1589,2.3809,2.5586,2.6541,2.6251,2.6546,2.6653,2.6413,2.6921,2.7242,2.7242,2.526,2.3034,2.0713,2.2275,2.3077,2.2814,2.425,2.5157,2.5451,2.4866,2.477,2.501,2.4719,2.4733,2.1034,2.1208,2.1328,2.1368,2.147,2.1537,2.139,2.1229,2.1149,2.1309,2.1596,2.2064,2.2939,0.0,2.4396,2.5586,0.0,0.0,0.0,0.0,0.0,0.0,0.0,0.0,0.0,0.0,0.0,0.0,0.0,0.0,0.0,0.0,0.0,0.0,2.6892,2.6216,2.6024,2.2545,2.2096,2.4691,2.3598,2.2998,2.2869,2.4326,2.5458,0.0,0.0,2.3695,2.452,2.217,1.977,1.7654,1.7654,1.6912,1.5932,1.5932,1.5177,1.4163,1.4139,1.4119,1.4503,1.6768,1.6647,1.6018,1.8262,1.734,1.552,1.5359,1.4655,1.3966,1.3953,1.4068,1.4555,1.5887,1.621,1.7159,2.0746,2.0669,2.0539,2.2697,2.1361,2.0192,2.1048,1.9454,1.8758,2.0875,2.1029,2.127,2.234,2.4235,2.5395,2.5119,2.626,2.6947,2.6653,2.7161,2.7495,2.7495,2.6303,2.497,2.3496,2.4103,2.4489,2.4514,2.5033,2.5451,2.5758,2.5317,2.5184,2.5304,2.517,2.5184,2.0601,2.0753,2.0882,2.1368,2.1649,2.1777,2.1796,2.1577,2.1523,2.193,2.2064,2.2398,2.3354,2.4128,0.0,2.6547,0.0,0.0,0.0,0.0,0.0,0.0,0.0,0.0,0.0,0.0,0.0,0.0,0.0,0.0,0.0,0.0,0.0,0.0,2.5952,0.0,2.4167,2.0223,1.9847,2.3083,2.2514,2.1568,2.0529,2.4112,2.5373,2.4648,2.3567,2.3384,2.3684,2.129,1.9158,1.7441,1.7399,1.7067,1.6558,1.6558,1.5504,1.4119,1.4119,1.4119,1.4503,1.6768,1.7014,1.6789,1.8968,1.8088,1.6347,1.6173,1.5177,1.4089,1.3933,1.4068,1.4685,1.6545,1.6984,1.8113,2.2223,2.2654,2.2568,2.3652,2.3427,2.2697,2.1437,2.1221,2.1221,2.1221,2.1112,2.1257,2.1821,2.3191,2.4288,2.4518,2.6262,2.7268,2.7041,2.7442,2.7722,2.7802,2.6936,2.6107,2.5309,2.5318,2.5439,2.5608,2.5607,2.5758,2.6091,2.5692,2.5545,2.5611,2.5545,2.5545,2.0601,2.0869,2.1082,2.1136,2.1162,2.1376,2.2178,2.2305,2.2451,2.3073,2.342,0.0,0.0,2.5101,2.6091,2.6707,0.0,0.0,0.0,0.0,0.0,0.0,0.0,0.0,0.0,0.0,0.0,0.0,0.0,0.0,0.0,0.0,0.0,0.0,0.0,0.0,2.4022,2.1588,1.9694,1.8279,1.5961,1.5969,1.806,1.8409,2.0789,2.4465,2.0139,1.9488,2.1244,1.8639,1.7493,1.7295,1.7179,1.5981,1.4315,1.4315,1.4235,1.4119,1.4119,1.4119,1.4503,1.6768,1.6078,1.4714,1.6865,1.6016,1.4253,1.3921,1.4032,1.4251,1.4095,1.4119,1.421,1.4485,1.4564,1.5256,1.7763,1.6597,1.6342,2.0616,1.9749,1.8932,2.0875,2.1221,2.1221,2.1221,2.1211,2.1977,2.4143,2.4558,2.5343,2.7199,2.7573,2.7655,2.7642,2.7669,2.7816,2.8138,2.5475,2.2928,2.0847,2.24,2.3328,2.334,2.5074,2.6105,2.636,2.5785,2.5651,2.5957,2.5638,2.5665,2.0054,2.0347,2.0624,2.1015,2.1109,2.1336,2.2185,2.2565,2.2913,2.3714,2.4102,0.0,0.0,0.0,2.6453,0.0,0.0,0.0,0.0,0.0,0.0,0.0,0.0,0.0,0.0,0.0,0.0,0.0,0.0,0.0,0.0,0.0,0.0,0.0,0.0,0.0,0.0,2.1427,1.929,1.7382,1.6572,1.5889,1.542,1.8431,2.064,2.2127,2.1779,2.2927,2.4908,2.3925,2.1818,1.8876,1.5949,1.4308,1.3654,1.3654,1.3715,1.3797,1.3797,1.3851,1.4306,1.6641,1.6695,1.6251,1.8476,1.7669,1.5942,1.5817,1.5046,1.4265,1.4109,1.4143,1.462,1.6107,1.6466,1.7115,1.9411,1.9237,1.9106,2.0875,2.0486,2.0183,2.1048,2.1221,2.0702,1.9315,2.1523,2.3169,2.2611,2.5075,2.7078,2.7639,2.7696,2.7776,2.8005,2.8018,2.8072,2.8179,2.6768,2.5521,2.4678,2.4959,2.5171,2.5171,2.5872,2.6279,2.6386,2.6172,2.6119,2.6265,2.6106,2.6119,1.9746,2.008,2.0468,2.0869,2.1176,2.1643,2.2619,2.3041,2.3496,2.4529,2.4836,2.4999,2.5438,0.0,0.0,0.0,0.0,0.0,0.0,0.0,0.0,0.0,0.0,0.0,0.0,0.0,0.0,0.0,0.0,0.0,0.0,0.0,0.0,0.0,0.0,0.0,0.0,2.1793,2.0364,1.8991,1.8524,1.7103,1.4984,1.8939,2.0695,2.0679,2.2192,2.3324,2.4193,2.478,2.2721,1.8796,1.5644,1.3998,1.3471,1.3471,1.3539,1.3585,1.3585,1.3653,1.3983,1.5617,1.6034,1.6181,1.7743,1.723,1.6155,1.61,1.5219,1.4278,1.417,1.4224,1.469,1.629,1.6685,1.7115,1.8671,1.9019,1.9237,1.9966,2.0139,2.0356,2.1091,2.1221,2.0443,1.8148,2.0486,2.2223,2.1307,2.3984,2.6457,2.7731,2.7843,2.7965,2.8165,2.8179,2.8179,2.8179,2.763,2.7309,2.7309,2.6734,2.6386,2.6386,2.6386,2.6386,2.6386,2.6386,2.6386,2.6386,2.6386,2.6386,1.98,2.0227,2.0699,2.0712,2.1336,2.2298,2.3536,2.3803,2.4231,2.5703,2.5732,2.5518,2.5518,0.0,0.0,0.0,0.0,0.0,0.0,0.0,0.0,0.0,0.0,0.0,0.0,0.0,0.0,0.0,0.0,0.0,0.0,0.0,0.0,0.0,0.0,0.0,0.0,2.31,2.31,2.306,2.109,1.9055,1.7214,1.9348,2.0428,2.0586,2.0428,1.9212,1.7526,1.9359,1.8777,1.6647,1.6606,1.5376,1.3627,1.3627,1.3627,1.3627,1.3627,1.3627,1.3627,1.3627,1.3722,1.3768,1.3626,1.3831,1.4034,1.3835,1.4061,1.4299,1.4299,1.4299,1.4299,1.4299,1.4299,1.4299,1.4299,1.4299,1.4992,1.7326,1.7763,1.8497,2.0746,2.1135,2.0356,1.8104,1.7807,1.8627,2.0919,2.1221,2.2987,2.7659,2.8179,2.8179,2.8179,2.8179,2.8192,2.8136,2.7589,2.7268,2.7309,2.6734,2.6386,2.6386,2.6386,2.6386,2.6386,2.6386,2.6386,2.6386,2.6386,2.6386,1.9599,1.9803,2.016,2.0605,2.1221,2.2077,2.3482,2.4088,2.4796,2.6266,2.6172,2.5931,2.6092,0.0,0.0,0.0,0.0,0.0,0.0,0.0,0.0,0.0,0.0,0.0,0.0,0.0,0.0,0.0,0.0,0.0,0.0,0.0,0.0,0.0,0.0,0.0,0.0,0.0,2.291,2.2791,2.2293,2.1007,1.9084,1.9848,2.0981,2.234,2.2299,2.2797,2.3606,2.2624,2.1779,2.0867,1.7783,1.6238,1.5552,1.3999,1.4407,1.5709,1.5709,1.5709,1.5709,1.5709,1.4727,1.3526,1.3485,1.3607,1.3749,1.366,1.3905,1.4143,1.4143,1.4217,1.4299,1.4299,1.4299,1.4299,1.4299,1.4299,1.452,1.5212,1.5337,1.5557,1.621,1.6342,1.6122,1.5425,1.6721,1.8627,2.0919,2.1221,2.2385,2.5416,2.5726,2.5726,2.5726,2.7236,2.68,2.347,2.4446,2.579,2.7227,2.6734,2.6386,2.6386,2.6386,2.6386,2.6386,2.6386,2.6386,2.6386,2.6386,2.6386,1.995,2.0094,2.0468,2.1087,2.177,2.2612,2.3834,2.4743,0.0,0.0,2.636,2.6091,0.0,0.0,0.0,0.0,0.0,0.0,0.0,0.0,0.0,0.0,0.0,0.0,0.0,0.0,0.0,0.0,0.0,0.0,0.0,0.0,0.0,0.0,0.0,0.0,0.0,0.0,0.0,2.2639,2.3509,2.3321,2.2134,2.2475,2.2797,2.306,2.2206,2.306,2.492,2.274,2.1845,2.1563,1.8923,1.7914,1.7751,1.6451,1.682,1.7914,1.7914,1.7343,1.6606,1.6606,1.5152,1.3403,1.3403,1.3505,1.3585,1.3585,1.3844,1.4119,1.4119,1.4183,1.4299,1.4299,1.4299,1.4299,1.4299,1.4299,1.4299,1.4299,1.4299,1.4299,1.4299,1.4299,1.4299,1.4299,1.629,1.8279,1.9662,2.0659,2.1739,2.3169,2.3298,2.3298,2.3298,2.4594,2.4197,2.1394,2.3076,2.4687,2.5849,2.5458,2.5578,2.6386,2.6386,2.6386,2.6386,2.6386,2.6386,2.6386,2.6386,2.6386,2.0565,2.0895,2.1256,2.1871,2.2739,2.3639,2.4492,2.5558,2.6426,2.6694,0.0,2.6131,0.0,0.0,0.0,0.0,0.0,0.0,0.0,0.0,0.0,0.0,0.0,0.0,0.0,0.0,0.0,0.0,0.0,0.0,0.0,0.0,0.0,0.0,0.0,0.0,0.0,0.0,0.0,0.0,2.4291,2.5274,2.5491,2.6079,2.5265,2.33,2.1321,2.1592,2.3225,2.1249,2.0432,2.0371,2.023,2.016,2.0119,1.9957,2.0008,2.019,2.017,1.8751,1.6893,1.6893,1.5309,1.3403,1.3403,1.3498,1.3565,1.3565,1.3824,1.4091,1.4078,1.4156,1.4278,1.4278,1.4292,1.4299,1.4299,1.4299,1.4299,1.4299,1.4299,1.4299,1.4299,1.4299,1.4299,1.4299,1.6122,1.7501,1.7501,1.9271,2.0659,2.0875,2.0875,2.0875,2.0875,2.1091,2.1005,2.0616,2.2662,2.3802,2.3548,2.3651,2.4566,2.636,2.6386,2.6386,2.6386,2.6386,2.6386,2.6386,2.6386,2.6386,2.0672,2.0895,2.1309,2.2124,2.3319,2.4492,2.517,2.5705,2.6105,2.6172,2.6265,0.0,0.0,0.0,0.0,0.0,0.0,0.0,0.0,0.0,0.0,0.0,0.0,0.0,0.0,0.0,0.0,0.0,0.0,0.0,0.0,0.0,0.0,0.0,0.0,0.0,2.2602,2.1195,2.1033,0.0,2.2567,2.3618,2.5197,2.5824,2.5924,2.566,2.5211,2.5123,2.5322,2.4879,2.4517,2.4146,2.2686,2.2083,2.1885,2.0193,2.0788,2.2384,2.2191,2.0799,1.9176,1.9176,1.6574,1.3403,1.3403,1.3424,1.3451,1.3451,1.3661,1.3822,1.3707,1.3919,1.4122,1.4122,1.4211,1.4299,1.4299,1.4299,1.4299,1.4299,1.4299,1.4299,1.4299,1.4299,1.4299,1.4299,1.4734,1.5036,1.5036,1.5469,1.6466,1.8322,1.854,1.854,1.854,2.0183,1.9671,1.599,1.9581,2.1734,2.1472,2.4432,2.616,2.64,2.6386,2.6386,2.6386,2.6386,2.6386,2.6386,2.6386,2.6386,2.0672,2.1127,2.1804,2.2979,2.3919,2.4679,2.4986,2.5317,2.5569,2.5569,0.0,0.0,0.0,0.0,0.0,0.0,0.0,0.0,0.0,0.0,0.0,0.0,0.0,0.0,0.0,0.0,0.0,0.0,0.0,0.0,0.0,0.0,0.0,0.0,2.2957,2.2357,2.2254,2.2048,2.1881,2.1839,2.2792,2.3906,2.5128,2.5545,2.5905,2.6212,2.6026,2.5879,2.5745,2.5745,2.5651,2.5403,2.4418,2.4042,2.3913,2.276,2.3291,2.4311,2.3127,2.1486,1.9745,1.8648,1.609,1.3403,1.3403,1.3403,1.3403,1.3403,1.3566,1.368,1.3605,1.3797,1.398,1.4098,1.4136,1.4211,1.4285,1.4299,1.4299,1.4299,1.4299,1.4299,1.4299,1.4299,1.4299,1.4299,1.5256,1.599,1.599,1.6948,1.764,1.7807,1.8802,1.8976,1.7894,1.9879,2.0183,1.7772,2.0929,2.276,2.2436,2.5508,2.7041,2.66,2.66,2.6533,2.6386,2.6386,2.6386,2.6386,2.6386,2.6386,2.0619,2.1422,2.2472,2.3861,2.4386,2.4613,2.4666,2.4903,2.509,2.5144,0.0,0.0,0.0,0.0,0.0,0.0,0.0,0.0,0.0,0.0,0.0,0.0,0.0,0.0,0.0,0.0,0.0,0.0,0.0,0.0,0.0,0.0,2.2405,2.2709,2.2363,2.208,2.1848,2.358,2.3441,2.146,2.3176,2.4011,2.4072,2.4568,2.5238,2.5904,2.5625,2.5478,2.5438,2.5438,2.5169,2.4825,2.4864,2.4686,2.438,2.4393,2.4624,2.4633,2.2792,2.1166,1.9582,1.7751,1.572,1.4011,1.4417,1.4011,1.3486,1.388,1.3818,1.3585,1.3585,1.3693,1.3829,1.4,1.4395,1.4632,1.4353,1.4601,1.4778,1.4387,1.4646,1.4911,1.4911,1.5212,1.5469,1.5469,1.7159,1.8409,1.8409,1.9705,1.9879,1.8017,1.9488,1.9836,1.7973,1.9879,2.1221,2.1221,2.3384,2.4597,2.4289,2.654,2.7522,2.6987,2.6921,2.6787,2.6573,2.6493,2.6466,2.6466,2.6413,2.6386,2.0552,2.1716,2.3014,2.3955,2.4386,2.4666,2.4957,0.0,2.5157,0.0,0.0,0.0,0.0,0.0,0.0,0.0,0.0,0.0,0.0,0.0,0.0,0.0,0.0,0.0,0.0,0.0,0.0,0.0,0.0,0.0,0.0,2.4258,2.4258,2.4298,2.2619,2.1578,2.132,2.1578,2.141,2.0823,2.1386,2.1023,1.9856,2.1401,2.3392,2.5571,2.5531,2.5371,2.5144,2.5144,2.3944,2.2144,2.2371,2.1414,1.9891,1.9976,2.0248,2.0488,2.008,1.9915,1.9866,1.9542,1.7955,1.6524,1.8444,1.6377,1.3839,1.587,1.5062,1.3585,1.3585,1.3693,1.3802,1.3822,1.5461,1.6557,1.4699,1.5902,1.6729,1.469,1.5946,1.7326,1.7326,1.8976,2.0269,2.0269,2.0529,2.0746,2.0746,1.9271,1.8148,1.7842,1.806,1.8148,1.7842,1.9879,2.1221,2.1221,2.3384,2.4667,2.4632,2.6876,2.7965,2.7589,2.7335,2.7229,2.7188,2.6894,2.676,2.676,2.6507,2.6386,2.1162,2.1917,2.2706,2.3901,2.4302,2.4439,2.4756,2.4836,2.4863,0.0,0.0,0.0,0.0,0.0,0.0,0.0,0.0,0.0,0.0,0.0,0.0,0.0,0.0,0.0,0.0,0.0,0.0,0.0,0.0,0.0,2.4396,2.3367,2.3294,2.4359,2.2325,0.0,2.286,2.1655,2.0424,1.9224,1.9406,1.9144,1.8625,1.9303,2.1072,2.3579,2.4588,2.4943,2.4836,2.4836,2.4223,2.3277,2.3403,2.2917,2.2128,2.2198,2.2546,2.2775,2.1514,2.1325,2.1281,1.8842,1.8231,1.8159,1.6697,1.5761,1.5167,1.4995,1.4242,1.3519,1.3565,1.3632,1.372,1.3933,1.5772,1.7284,1.6426,1.8069,1.9401,1.8375,1.9019,1.9705,1.9705,2.0529,2.1221,2.1221,2.2299,2.3169,2.3169,2.3427,2.2643,2.0009,2.2084,2.2557,1.9922,2.303,2.5105,2.5105,2.6109,2.6673,2.6673,2.7672,2.8125,2.7991,2.7697,2.7348,2.7014,2.6881,2.6734,2.6573,2.6453,2.6386,2.1269,2.1643,2.2084,2.342,2.3861,2.4075,2.4399,0.0,2.4436,0.0,0.0,0.0,0.0,0.0,0.0,0.0,0.0,0.0,0.0,0.0,0.0,0.0,0.0,0.0,0.0,0.0,0.0,0.0,0.0,0.0,2.4102,2.2783,2.2637,2.4052,2.2508,2.217,2.3235,2.1091,1.9036,1.7253,1.7253,1.7067,1.674,1.7656,1.9101,2.1022,2.2349,2.3209,2.3663,2.3663,2.3702,2.373,2.373,2.3473,2.3079,2.3117,2.3455,2.3675,2.2136,2.2252,2.2447,1.8679,1.8566,1.938,1.6697,1.6205,1.6492,1.6056,1.5138,1.4304,1.4426,1.4098,1.3911,1.4736,1.6725,1.8622,1.9374,2.0399,2.1394,2.1954,2.161,2.1221,2.1221,2.1221,2.1221,2.1221,2.2697,2.3824,2.3824,2.5331,2.5063,2.1566,2.485,2.5884,2.2385,2.5841,2.8179,2.8179,2.8179,2.8179,2.8179,2.8179,2.8179,2.8179,2.7965,2.7562,2.7041,2.6974,2.6787,2.6493,2.6426,2.6386,2.013,2.0704,2.1376,2.2285,2.2905,2.3492,0.0,0.0,0.0,0.0,0.0,0.0,0.0,0.0,0.0,0.0,0.0,0.0,0.0,0.0,0.0,0.0,0.0,0.0,0.0,0.0,0.0,0.0,0.0,0.0,2.383,2.3723,2.3723,2.383,2.371,2.2685,2.0698,1.8495,1.6548,1.4873,1.4873,1.3997,1.2552,1.6232,1.7988,1.8138,1.8347,1.9438,2.1078,2.1078,2.1196,2.1384,2.1384,2.0377,1.8943,1.9045,1.927,1.9544,1.9631,2.1145,2.274,2.0473,1.9826,2.0231,2.2046,1.9775,1.7492,2.1704,1.9922,1.6718,1.6726,1.5396,1.457,1.6635,1.9115,2.1642,2.3867,2.2697,2.1868,2.4081,2.274,2.1221,2.1221,2.1221,2.1221,2.1221,2.1307,2.1394,2.1394,2.148,2.148,2.1221,2.3427,2.4776,2.4563,2.68,2.8179,2.8179,2.8179,2.8179,2.8179,2.8179,2.8179,2.8179,2.8165,2.8005,2.7655,2.7416,2.7094,2.6747,2.652,2.6386,1.9943,2.0224,2.0575,2.183,2.2298,2.2672,2.346,2.3567,0.0,0.0,0.0,0.0,0.0,0.0,0.0,0.0,0.0,0.0,0.0,0.0,0.0,0.0,0.0,0.0,0.0,0.0,0.0,0.0,0.0,0.0,2.3487,2.2355,2.2248,2.3452,2.0933,1.8584,1.6616,1.5806,1.4442,1.2572,1.2682,1.2366,1.1812,1.3207,1.3906,1.4038,1.5218,1.8395,2.2658,2.1402,2.1788,2.3006,2.1812,2.1785,2.2459,2.2739,2.3007,2.307,2.1952,2.2242,2.2487,1.8923,1.8815,1.9629,1.7501,1.6864,1.6816,1.6931,1.6831,1.6435,1.5217,1.5405,1.6172,1.7178,1.9379,2.1437,2.2256,2.4155,2.5926,2.68,2.5075,2.3427,2.3427,2.2213,2.1221,2.1221,2.1221,2.1221,2.1221,2.2514,2.2869,2.1351,2.4636,2.6321,2.4819,2.6842,2.8179,2.8179,2.8179,2.8179,2.8179,2.8179,2.8179,2.8179,2.8179,2.8031,2.7696,2.7589,2.7388,2.7108,2.7041,2.6854,1.953,1.9733,1.9987,2.1349,2.1617,2.183,2.2926,0.0,0.0,0.0,0.0,0.0,0.0,0.0,0.0,0.0,0.0,0.0,0.0,0.0,0.0,0.0,0.0,0.0,0.0,0.0,0.0,0.0,0.0,0.0,2.3166,2.1979,2.1837,2.2951,1.9183,1.6469,1.5147,1.393,1.2662,1.1314,1.147,1.1859,1.2457,1.2509,1.2949,1.3682,1.4839,1.7739,2.148,2.02,2.0995,2.2902,2.1704,2.2191,2.3711,2.4589,2.4689,2.415,2.297,2.2314,2.1373,1.7765,1.816,1.9352,1.5595,1.6089,1.7593,1.5999,1.613,1.6419,1.5066,1.5855,1.7087,1.7519,1.9426,2.1173,2.1201,2.4294,2.68,2.6011,2.3984,2.2396,2.2396,2.0443,1.8889,1.8889,1.8889,1.8889,1.8889,2.161,2.2912,2.1351,2.5404,2.7575,2.6024,2.7321,2.8179,2.8179,2.8179,2.8179,2.8179,2.8179,2.8179,2.8179,2.8179,2.8085,2.7884,2.7749,2.7549,2.7309,2.7309,2.7202,0.0,0.0,0.0,2.0762,2.0842,2.1047,2.2519,0.0,0.0,0.0,0.0,0.0,0.0,0.0,0.0,0.0,0.0,0.0,0.0,0.0,0.0,0.0,0.0,0.0,0.0,0.0,0.0,0.0,0.0,2.2893,2.2893,2.2893,2.2712,2.2317,1.8857,1.6837,1.6523,1.2967,1.1193,1.1193,1.1349,1.2387,1.4214,1.4339,1.5416,1.7213,1.7213,1.7213,1.7213,1.7153,1.8517,2.0598,2.0718,2.107,2.1739,2.3698,2.3417,2.2013,2.209,2.1044,1.9314,1.7191,1.7946,1.9298,1.7179,1.7996,1.9714,1.9704,1.8348,1.6842,1.6665,1.6799,1.712,1.7576,1.9331,2.0905,2.0998,2.2826,2.3824,2.161,1.9358,1.7807,1.7807,1.5858,1.4299,1.4299,1.4343,1.4387,1.4387,1.8462,2.1307,2.1307,2.5458,2.8179,2.8179,2.8179,2.8179,2.8179,2.8179,2.8179,2.8179,2.8179,2.8179,2.8179,2.8179,2.8179,2.8179,2.7856,2.7562,2.7336,2.7322,2.7322,1.8464,0.0,0.0,0.0,0.0,0.0,2.1309,2.1274,2.1315,0.0,0.0,0.0,0.0,0.0,0.0,0.0,0.0,0.0,0.0,0.0,0.0,0.0,0.0,0.0,0.0,0.0,0.0,0.0,2.2893,2.2893,2.2893,2.2659,2.1787,2.0142,1.7901,1.604,1.459,1.2315,1.1145,1.0975,1.1158,1.2251,1.4062,1.4179,1.5315,1.7213,1.7213,1.7213,1.7127,1.59,1.663,1.8422,1.7282,1.78,1.933,2.0211,2.1148,2.1593,1.8846,1.8533,1.8769,1.527,1.4609,1.5069,1.4458,1.4788,1.5313,1.5231,1.5917,1.6707,1.6792,1.5881,1.4959,1.509,1.6933,1.8218,1.6589,1.8069,2.0009,2.1005,1.9358,1.7807,1.7807,1.5858,1.4299,1.4299,1.5734,1.6809,1.6809,2.0875,2.3738,2.3738,2.6406,2.8179,2.8179,2.8179,2.8179,2.8179,2.8179,2.8179,2.8179,2.8179,2.8179,2.8179,2.8179,2.8179,2.8179,2.8098,2.8018,2.7938,2.7724,2.7575,0.0,0.0,0.0,0.0,0.0,0.0,2.0508,2.0521,2.0655,0.0,0.0,0.0,0.0,0.0,0.0,0.0,0.0,0.0,0.0,0.0,0.0,0.0,0.0,0.0,0.0,0.0,0.0,0.0,2.2893,2.2893,2.2893,2.2579,2.177,2.041,1.8572,1.6665,1.4709,1.2948,1.1637,1.0819,1.1736,1.3162,1.5014,1.5197,1.5901,1.7002,1.633,1.5601,1.4804,1.385,1.4689,1.644,1.5576,1.5984,1.7274,1.8397,1.9032,1.8986,1.6772,1.6215,1.6109,1.3901,1.3881,1.4493,1.3666,1.4075,1.4666,1.3673,1.4293,1.5322,1.557,1.4763,1.3933,1.4122,1.5264,1.5906,1.4588,1.5381,1.6729,1.8069,1.7247,1.6641,1.7632,1.6685,1.6078,1.7036,1.8322,1.9228,1.9228,2.2439,2.4691,2.4691,2.68,2.8179,2.8179,2.8179,2.8179,2.8179,2.8179,2.8179,2.8179,2.8179,2.8179,2.8179,2.8179,2.8179,2.8179,2.8179,2.8179,2.8179,2.7884,2.7762,0.0,0.0,0.0,0.0,0.0,0.0,1.9917,1.9933,2.0,0.0,0.0,0.0,0.0,0.0,0.0,0.0,0.0,0.0,0.0,0.0,0.0,0.0,0.0,0.0,0.0,0.0,2.288,2.2853,2.2813,2.2786,2.276,2.2458,2.2191,2.1897,1.9801,1.7858,1.6205,1.4068,1.2446,1.1306,1.277,1.4612,1.6687,1.6753,1.6878,1.6977,1.5158,1.3421,1.1886,1.1821,1.2861,1.4563,1.4724,1.4894,1.5366,1.7199,1.6885,1.5488,1.5471,1.4383,1.3049,1.3138,1.4485,1.5699,1.3927,1.4747,1.5835,1.3928,1.341,1.3492,1.3727,1.372,1.3741,1.4204,1.4197,1.4136,1.4272,1.4299,1.4299,1.4299,1.4299,1.4948,1.7071,1.7632,1.8497,2.0529,2.1264,2.161,2.161,2.3641,2.5075,2.5075,2.6969,2.8179,2.8179,2.8179,2.8179,2.8179,2.8179,2.8179,2.8179,2.8179,2.8179,2.8179,2.8179,2.8179,2.8179,2.8179,2.8179,2.8179,2.7869,2.7898,0.0,0.0,0.0,0.0,0.0,0.0,1.9468,1.9522,1.9736,0.0,0.0,0.0,0.0,0.0,0.0,0.0,0.0,0.0,0.0,0.0,0.0,0.0,0.0,0.0,0.0,0.0,2.28,2.2525,2.2285,2.2091,2.185,2.1783,2.1622,2.1283,1.8187,1.6969,1.7988,1.3488,1.2446,1.4884,1.3818,1.5157,1.843,1.7101,1.735,1.8721,1.56,1.4029,1.3598,1.2194,1.189,1.2265,1.255,1.2723,1.2832,1.3332,1.4365,1.528,1.3682,1.405,1.4978,1.3495,1.3401,1.3764,1.3473,1.3687,1.3928,1.3521,1.3492,1.3585,1.3754,1.3912,1.4041,1.4251,1.4278,1.4265,1.4292,1.4299,1.4299,1.4299,1.4299,1.4431,1.4911,1.6553,1.7929,1.8409,2.161,2.4038,2.4038,2.6066,2.7532,2.7532,2.7926,2.8179,2.8179,2.8179,2.8179,2.8179,2.8179,2.8179,2.8179,2.8179,2.8179,2.8179,2.8179,2.8179,2.8179,2.8179,2.8179,2.8179,2.8125,2.7871,0.0,0.0,0.0,1.7982,0.0,0.0,0.0,1.896,1.916,1.9896,0.0,0.0,0.0,0.0,0.0,0.0,0.0,0.0,0.0,0.0,0.0,0.0,0.0,0.0,0.0,0.0,2.2385,2.1192,2.0847,2.0633,2.0495,2.0369,2.0618,2.1336,1.8635,1.7216,1.7216,1.4591,1.3742,1.4623,1.5492,1.6429,1.7456,1.762,1.7235,1.6362,1.478,1.3569,1.2623,1.1825,1.1504,1.1538,1.183,1.1993,1.2118,1.2237,1.2972,1.3763,1.2821,1.3251,1.41,1.317,1.2996,1.3227,1.3261,1.3342,1.3403,1.3403,1.3458,1.3566,1.3741,1.3856,1.4014,1.4245,1.4299,1.4299,1.4299,1.4299,1.4299,1.4299,1.4299,1.469,1.5858,1.7028,1.8584,2.0875,2.3212,2.5117,2.6278,2.7448,2.8179,2.8179,2.8179,2.8179,2.8179,2.8179,2.8179,2.8179,2.8179,2.8179,2.8179,2.8179,2.8179,2.8179,2.8179,2.8179,2.8179,2.8179,2.8179,2.8179,2.7884,2.767,0.0,0.0,0.0,0.0,0.0,1.8289,0.0,0.0,0.0,1.9134,0.0,0.0,0.0,0.0,0.0,0.0,0.0,0.0,0.0,0.0,0.0,0.0,0.0,0.0,0.0,0.0,2.2036,2.0349,1.9599,1.9366,1.9697,1.9197,1.9707,2.147,1.9562,1.7988,1.6915,1.6237,1.5524,1.4819,1.7313,1.7956,1.6926,1.7933,1.6779,1.3928,1.3586,1.2543,1.1172,1.1727,1.1741,1.1416,1.1687,1.1884,1.2077,1.2227,1.2264,1.2311,1.2454,1.2603,1.2693,1.2693,1.2929,1.322,1.3248,1.3302,1.3403,1.3403,1.3424,1.3498,1.3693,1.4116,1.4414,1.4237,1.4539,1.4773,1.4339,1.4278,1.4299,1.4299,1.4299,1.5036,1.7413,1.8148,1.9879,2.4081,2.5075,2.5896,2.7321,2.7532,2.7532,2.7532,2.7532,2.7714,2.8136,2.8179,2.8179,2.8179,2.8179,2.8179,2.8179,2.8179,2.8179,2.8179,2.8179,2.8179,2.8179,2.8179,2.8179,2.8179,2.7697,2.7535,0.0,0.0,0.0,0.0,1.8637,0.0,0.0,0.0,1.8504,1.8598,0.0,0.0,0.0,0.0,0.0,0.0,0.0,0.0,0.0,0.0,0.0,0.0,0.0,0.0,0.0,0.0,0.0,2.1767,1.9801,1.9281,2.0808,1.9417,1.936,2.1099,1.9431,1.9164,2.0494,1.7441,1.7345,2.0195,1.9056,1.9228,2.043,1.756,1.6019,1.5443,1.2533,1.1138,1.1091,1.3085,1.2912,1.1409,1.1579,1.1692,1.1877,1.207,1.2213,1.2311,1.2454,1.2603,1.2693,1.2693,1.2929,1.3241,1.3336,1.339,1.3403,1.3403,1.3498,1.3572,1.3605,1.517,1.6262,1.4307,1.544,1.6447,1.4524,1.4204,1.4299,1.4299,1.4299,1.5036,1.7413,1.9488,2.1696,2.4294,2.6461,2.7152,2.5331,2.5117,2.5117,2.5117,2.5117,2.5939,2.801,2.8179,2.8179,2.8179,2.8179,2.8179,2.8179,2.8179,2.8179,2.8179,2.8179,2.8179,2.8179,2.8179,2.8179,2.8179,2.8112,2.7965,0.0,0.0,0.0,0.0,0.0,0.0,0.0,0.0,1.8009,0.0,0.0,0.0,0.0,0.0,0.0,0.0,0.0,0.0,0.0,0.0,0.0,0.0,0.0,0.0,0.0,0.0,0.0,0.0,0.0,1.8832,1.9546,1.8896,1.9291,2.1046,1.9419,1.8864,1.9578,1.8148,1.8148,1.9578,1.9877,1.9865,1.9546,1.8084,1.6851,1.5826,1.4421,1.3798,1.389,1.4892,1.4301,1.2816,1.2959,1.2458,1.1735,1.2009,1.2139,1.2227,1.242,1.2603,1.272,1.2929,1.3017,1.3132,1.3329,1.3403,1.3403,1.3403,1.3444,1.3539,1.3666,1.4408,1.5185,1.5708,1.6502,1.6973,1.6141,1.7077,1.7341,1.4808,1.5381,1.6641,1.7632,1.8584,2.0009,2.2299,2.3512,2.377,2.2783,2.2654,2.2654,2.2654,2.3909,2.5117,2.6109,2.7405,2.8179,2.8179,2.8179,2.8179,2.8179,2.8179,2.8179,2.8179,2.8179,2.8179,2.8179,2.8179,2.8179,2.8179,2.8005,2.7816,1.845,0.0,0.0,0.0,0.0,0.0,0.0,0.0,0.0,0.0,0.0,0.0,0.0,0.0,0.0,0.0,0.0,0.0,0.0,0.0,0.0,0.0,0.0,0.0,0.0,0.0,0.0,0.0,1.8836,0.0,1.9086,1.8661,1.9218,2.1046,1.9877,1.9228,1.9228,1.9228,1.9228,1.9215,2.0494,2.043,1.9183,1.8736,1.7795,1.6592,1.6108,1.5913,1.5966,1.6616,1.5677,1.3857,1.4527,1.3471,1.1653,1.1989,1.2098,1.2139,1.24,1.2576,1.2718,1.3057,1.3057,1.2963,1.3302,1.337,1.3349,1.339,1.3403,1.3451,1.3619,1.4056,1.4734,1.5933,1.7112,1.7813,1.7409,1.8641,1.8913,1.5872,1.6122,1.7028,1.7676,1.7807,1.8584,2.0875,2.1221,2.0962,2.0356,2.0269,2.0269,2.0269,2.2353,2.3995,2.4648,2.6842,2.8179,2.8179,2.8179,2.8179,2.8179,2.8179,2.8179,2.8179,2.8179,2.8179,2.8179,2.8179,2.8179,2.8179,2.7965,2.7816,0.0,0.0,0.0,0.0,0.0,0.0,0.0,0.0,1.7982,0.0,0.0,0.0,0.0,0.0,0.0,0.0,0.0,0.0,0.0,0.0,0.0,0.0,0.0,0.0,0.0,0.0,0.0,0.0,1.9216,0.0,2.0526,1.9025,1.9022,2.1032,2.1046,2.1014,2.1014,2.1014,2.1014,2.1014,2.1077,2.1077,2.0951,1.9291,1.848,1.8308,1.6625,1.5913,1.6063,1.8066,1.6878,1.3993,1.5956,1.4614,1.1653,1.1989,1.2098,1.2139,1.24,1.2508,1.2562,1.2907,1.2861,1.278,1.3268,1.3295,1.3214,1.3356,1.3403,1.3403,1.341,1.4961,1.6008,1.3991,1.6858,1.9505,1.7678,1.7357,1.7449,1.7642,1.5902,1.5124,1.7413,1.7807,1.8584,2.0875,2.1221,2.0399,1.8191,1.7886,1.7886,1.7886,1.9966,2.2213,2.452,2.6842,2.8179,2.8179,2.8179,2.8179,2.8179,2.8179,2.8179,2.8179,2.8179,2.8179,2.8179,2.8179,2.8179,2.8179,2.8179,2.8165,0.0,0.0,1.8183,1.8169,0.0,0.0,0.0,0.0,0.0,0.0,0.0,0.0,0.0,0.0,0.0,0.0,0.0,0.0,0.0,0.0,0.0,0.0,0.0,0.0,0.0,0.0,0.0,2.049,1.9694,1.9555,0.0,2.0024,2.0149,2.0815,2.1002,2.1109,2.1109,2.1109,2.1109,2.1109,2.1109,2.1109,2.1077,2.0494,2.0227,2.0195,1.961,1.9355,1.9387,2.0106,1.9054,1.7011,1.6668,1.5149,1.3094,1.239,1.2098,1.2139,1.24,1.2501,1.2535,1.2739,1.2773,1.2753,1.3146,1.3254,1.3248,1.3356,1.3403,1.3424,1.3526,1.507,1.6804,1.7625,1.8922,2.0283,2.1357,2.0499,1.9165,1.8,1.8366,1.8156,1.5858,1.8025,1.9792,1.9063,1.8932,1.8113,1.5778,1.5469,1.5469,1.5469,1.8889,2.1523,2.2299,2.5981,2.8179,2.8179,2.8179,2.8179,2.8179,2.8179,2.8179,2.8179,2.8179,2.8179,2.8179,2.8179,2.8179,2.8179,2.8179,2.8179,1.7248,1.7381,0.0,0.0,1.7649,0.0,0.0,0.0,0.0,0.0,0.0,0.0,0.0,0.0,0.0,0.0,0.0,0.0,0.0,1.7836,0.0,0.0,0.0,0.0,0.0,0.0,1.9957,2.0037,1.9907,1.988,0.0,0.0,2.0561,2.0699,2.0962,2.1109,2.1109,2.1109,2.1109,2.1109,2.1109,2.1109,2.1109,2.1109,2.1109,2.1109,2.1109,2.1109,2.1109,2.1109,1.9772,1.7664,1.6758,1.5048,1.3001,1.2269,1.2084,1.2213,1.242,1.2501,1.2528,1.2638,1.2652,1.2705,1.3043,1.3139,1.3166,1.3275,1.3356,1.3424,1.3519,1.4497,1.5826,1.7378,1.8922,2.0324,2.1285,2.1044,2.0363,1.9207,1.9532,1.9324,1.7115,1.854,1.9184,1.6896,1.7282,1.694,1.4601,1.4299,1.4299,1.4299,1.8462,2.1868,2.3555,2.6448,2.8179,2.8179,2.8179,2.8179,2.8179,2.8179,2.8232,2.8353,2.8245,2.8232,2.8353,2.8232,2.8179,2.8179,2.8179,2.8179]},{"header":{"parameterUnit":"m.s-1","parameterCategory":1,"la1":30.6,"la2":29.2853,"lo1":-89.7004,"lo2":-87.6739,"dy":0.0162,"dx":0.0183,"nx":112,"ny":82,"refTime":"2023-11-01T06:00:00:Z","depth":0,"parameterNumber":3,"parameterNumberName":"V-component_of_WINDS"},"data":[0.0,0.0,0.0,0.0,0.0,0.0,0.0,0.0,0.0,0.0,0.0,0.0,0.0,0.0,0.0,0.0,0.0,0.0,0.0,0.0,0.0,0.0,0.0,0.0,0.0,0.0,0.0,0.0,0.0,0.0,0.0,0.0,0.0,0.0,0.0,0.0,0.0,0.0,0.0,0.0,0.0,0.0,0.0,0.0,0.0,0.0,0.0,0.0,0.0,0.0,0.0,0.0,0.0,0.0,0.0,0.0,0.0,0.0,0.0,0.0,0.0,0.0,0.0,0.0,0.0,0.0,0.0,0.0,0.0,0.0,0.0,0.0,0.0,0.0,0.0,0.0,0.0,0.0,0.0,0.0,0.0,0.0,0.0,0.0,0.0,0.0,0.0,0.0,0.0,0.0,0.0,3.3954,3.4424,3.5231,3.6237,3.6934,3.7008,3.6347,0.0,0.0,0.0,0.0,0.0,0.0,0.0,0.0,0.0,0.0,0.0,0.0,0.0,0.0,0.0,0.0,0.0,0.0,0.0,0.0,0.0,0.0,0.0,0.0,0.0,0.0,0.0,0.0,0.0,0.0,0.0,0.0,0.0,0.0,0.0,0.0,0.0,0.0,0.0,0.0,0.0,0.0,0.0,0.0,0.0,0.0,0.0,0.0,0.0,0.0,0.0,0.0,0.0,0.0,0.0,0.0,0.0,0.0,0.0,0.0,0.0,0.0,0.0,0.0,0.0,0.0,0.0,0.0,0.0,0.0,0.0,0.0,0.0,0.0,0.0,0.0,0.0,0.0,0.0,0.0,0.0,0.0,0.0,0.0,0.0,0.0,0.0,0.0,0.0,0.0,0.0,0.0,0.0,0.0,0.0,0.0,0.0,0.0,0.0,0.0,0.0,0.0,0.0,0.0,3.4821,3.3917,3.3917,3.4614,3.6163,3.642,3.642,3.631,0.0,0.0,0.0,0.0,0.0,0.0,0.0,0.0,0.0,0.0,0.0,0.0,0.0,0.0,0.0,0.0,0.0,0.0,0.0,0.0,0.0,0.0,0.0,0.0,0.0,0.0,0.0,0.0,0.0,0.0,0.0,0.0,0.0,0.0,0.0,0.0,0.0,0.0,0.0,0.0,0.0,0.0,0.0,0.0,0.0,0.0,0.0,0.0,0.0,0.0,0.0,0.0,0.0,0.0,0.0,0.0,0.0,0.0,0.0,0.0,0.0,0.0,0.0,0.0,0.0,0.0,0.0,0.0,0.0,0.0,0.0,0.0,0.0,0.0,0.0,0.0,0.0,0.0,0.0,0.0,0.0,0.0,0.0,0.0,0.0,0.0,0.0,0.0,0.0,0.0,0.0,0.0,0.0,0.0,0.0,0.0,0.0,0.0,0.0,0.0,0.0,0.0,0.0,3.6229,3.5378,3.4534,3.5275,3.5943,3.6273,3.711,3.7404,3.6971,3.653,0.0,0.0,0.0,0.0,0.0,0.0,0.0,0.0,0.0,0.0,0.0,0.0,0.0,0.0,0.0,0.0,0.0,0.0,0.0,0.0,0.0,0.0,0.0,0.0,0.0,0.0,0.0,0.0,0.0,0.0,0.0,0.0,0.0,0.0,0.0,0.0,0.0,0.0,0.0,0.0,0.0,0.0,0.0,0.0,0.0,0.0,0.0,0.0,0.0,0.0,0.0,0.0,0.0,0.0,0.0,0.0,0.0,0.0,0.0,0.0,0.0,0.0,0.0,0.0,0.0,0.0,0.0,0.0,0.0,0.0,0.0,0.0,0.0,0.0,0.0,0.0,0.0,0.0,0.0,0.0,0.0,0.0,0.0,0.0,0.0,0.0,0.0,0.0,0.0,0.0,0.0,0.0,0.0,0.0,0.0,0.0,0.0,0.0,0.0,0.0,0.0,0.0,3.6971,3.6266,3.5408,3.645,3.7044,3.6604,3.7698,3.8146,3.7529,3.6934,0.0,0.0,0.0,0.0,0.0,0.0,0.0,0.0,0.0,0.0,0.0,0.0,0.0,0.0,0.0,0.0,0.0,0.0,0.0,0.0,0.0,0.0,0.0,0.0,0.0,0.0,0.0,0.0,0.0,0.0,0.0,0.0,0.0,0.0,0.0,0.0,0.0,0.0,0.0,0.0,0.0,0.0,0.0,0.0,0.0,0.0,0.0,0.0,0.0,0.0,0.0,0.0,0.0,0.0,0.0,0.0,0.0,0.0,0.0,0.0,0.0,0.0,0.0,0.0,0.0,0.0,0.0,0.0,0.0,0.0,0.0,0.0,0.0,0.0,0.0,0.0,0.0,0.0,0.0,0.0,0.0,0.0,0.0,0.0,0.0,0.0,0.0,0.0,0.0,0.0,0.0,0.0,0.0,0.0,0.0,0.0,0.0,0.0,0.0,0.0,0.0,0.0,3.7456,3.7125,3.631,3.6303,3.6677,3.7345,3.7529,3.7566,3.7492,3.7456,0.0,0.0,0.0,0.0,0.0,0.0,0.0,0.0,0.0,0.0,0.0,0.0,0.0,0.0,0.0,0.0,0.0,0.0,0.0,0.0,0.0,0.0,0.0,0.0,0.0,0.0,0.0,0.0,0.0,0.0,0.0,0.0,0.0,0.0,0.0,0.0,0.0,0.0,0.0,0.0,0.0,0.0,0.0,0.0,0.0,0.0,0.0,0.0,0.0,0.0,0.0,0.0,0.0,0.0,0.0,0.0,0.0,0.0,0.0,0.0,0.0,0.0,0.0,0.0,0.0,0.0,0.0,0.0,0.0,0.0,0.0,0.0,0.0,0.0,0.0,0.0,0.0,0.0,0.0,0.0,0.0,0.0,0.0,0.0,0.0,0.0,0.0,0.0,0.0,0.0,0.0,0.0,0.0,0.0,0.0,0.0,0.0,0.0,0.0,0.0,0.0,0.0,3.8256,3.7925,0.0,3.7514,3.7734,3.7529,3.7962,3.8256,3.8256,0.0,0.0,0.0,0.0,0.0,0.0,0.0,0.0,0.0,0.0,0.0,0.0,0.0,0.0,0.0,0.0,0.0,0.0,0.0,0.0,0.0,0.0,0.0,0.0,0.0,0.0,0.0,0.0,0.0,0.0,0.0,0.0,0.0,0.0,0.0,0.0,0.0,0.0,0.0,0.0,0.0,0.0,0.0,0.0,0.0,0.0,0.0,0.0,0.0,0.0,0.0,0.0,0.0,0.0,0.0,0.0,0.0,0.0,0.0,0.0,0.0,0.0,0.0,0.0,0.0,0.0,0.0,0.0,0.0,0.0,0.0,0.0,0.0,0.0,0.0,0.0,0.0,0.0,0.0,0.0,0.0,0.0,0.0,0.0,0.0,0.0,0.0,0.0,0.0,0.0,0.0,0.0,0.0,0.0,0.0,0.0,0.0,0.0,0.0,0.0,0.0,0.0,3.8615,3.8681,3.8505,0.0,3.8358,3.8469,3.7925,3.8395,3.8579,3.8322,0.0,0.0,0.0,0.0,0.0,0.0,0.0,0.0,0.0,0.0,0.0,0.0,0.0,0.0,0.0,0.0,0.0,0.0,0.0,0.0,0.0,0.0,0.0,0.0,0.0,0.0,0.0,0.0,0.0,0.0,0.0,0.0,0.0,0.0,0.0,0.0,0.0,0.0,0.0,0.0,0.0,0.0,0.0,0.0,0.0,0.0,0.0,0.0,0.0,0.0,0.0,0.0,0.0,0.0,0.0,0.0,0.0,0.0,0.0,0.0,0.0,0.0,0.0,0.0,0.0,0.0,0.0,0.0,0.0,0.0,0.0,0.0,0.0,0.0,0.0,0.0,0.0,0.0,0.0,0.0,0.0,0.0,0.0,0.0,0.0,0.0,0.0,0.0,0.0,0.0,0.0,0.0,0.0,0.0,0.0,0.0,0.0,0.0,0.0,0.0,0.0,0.0,3.8615,3.8718,3.8718,3.8726,3.8726,3.8726,3.8681,3.8681,3.8358,0.0,0.0,0.0,0.0,0.0,0.0,0.0,0.0,0.0,0.0,0.0,0.0,0.0,0.0,0.0,0.0,0.0,0.0,0.0,0.0,0.0,0.0,0.0,0.0,0.0,0.0,0.0,0.0,0.0,0.0,0.0,0.0,0.0,0.0,0.0,0.0,0.0,0.0,0.0,0.0,0.0,0.0,0.0,0.0,0.0,0.0,0.0,0.0,0.0,0.0,0.0,0.0,0.0,0.0,0.0,0.0,0.0,0.0,0.0,0.0,0.0,0.0,0.0,0.0,0.0,0.0,0.0,0.0,0.0,0.0,0.0,0.0,0.0,0.0,0.0,0.0,0.0,0.0,0.0,0.0,0.0,0.0,0.0,0.0,0.0,0.0,0.0,0.0,0.0,0.0,0.0,0.0,0.0,0.0,0.0,0.0,0.0,0.0,0.0,0.0,0.0,0.0,0.0,0.0,4.0039,4.0186,3.9606,3.9541,3.9313,3.8755,3.8681,3.8615,3.8358,0.0,0.0,0.0,0.0,0.0,0.0,0.0,0.0,0.0,0.0,0.0,0.0,0.0,0.0,0.0,0.0,0.0,0.0,0.0,0.0,0.0,0.0,0.0,0.0,0.0,0.0,0.0,0.0,0.0,0.0,0.0,0.0,0.0,0.0,0.0,0.0,0.0,0.0,0.0,0.0,0.0,0.0,0.0,0.0,0.0,0.0,0.0,0.0,0.0,0.0,0.0,0.0,0.0,0.0,0.0,0.0,0.0,0.0,0.0,0.0,0.0,0.0,0.0,0.0,0.0,0.0,0.0,0.0,0.0,0.0,0.0,0.0,0.0,0.0,0.0,0.0,0.0,0.0,0.0,0.0,0.0,0.0,0.0,0.0,0.0,0.0,0.0,0.0,0.0,0.0,0.0,0.0,0.0,0.0,0.0,0.0,0.0,0.0,0.0,0.0,0.0,0.0,3.9798,4.0589,4.0773,3.9981,3.9908,3.9688,3.9203,3.8872,3.8579,3.8248,0.0,0.0,0.0,0.0,0.0,0.0,0.0,0.0,0.0,0.0,0.0,0.0,0.0,0.0,0.0,0.0,0.0,0.0,0.0,0.0,0.0,0.0,0.0,0.0,0.0,0.0,0.0,0.0,0.0,0.0,0.0,0.0,0.0,0.0,0.0,0.0,0.0,0.0,0.0,0.0,0.0,0.0,0.0,0.0,0.0,0.0,0.0,0.0,0.0,0.0,0.0,0.0,0.0,0.0,0.0,0.0,0.0,0.0,0.0,0.0,0.0,0.0,0.0,0.0,0.0,0.0,0.0,0.0,0.0,0.0,0.0,0.0,0.0,0.0,0.0,0.0,0.0,0.0,0.0,0.0,0.0,0.0,0.0,0.0,0.0,0.0,0.0,0.0,0.0,0.0,0.0,0.0,0.0,0.0,0.0,0.0,0.0,0.0,0.0,0.0,0.0,0.0,4.0018,4.0773,4.0883,4.0092,3.9945,3.9871,3.9798,3.9129,3.8358,3.7566,0.0,0.0,0.0,0.0,0.0,0.0,0.0,0.0,0.0,0.0,0.0,0.0,0.0,0.0,0.0,0.0,0.0,0.0,0.0,0.0,0.0,0.0,0.0,0.0,0.0,0.0,0.0,0.0,0.0,0.0,0.0,0.0,0.0,0.0,0.0,0.0,0.0,0.0,0.0,0.0,0.0,0.0,0.0,0.0,0.0,0.0,0.0,0.0,0.0,0.0,0.0,0.0,0.0,0.0,0.0,0.0,0.0,0.0,0.0,0.0,4.292,0.0,0.0,0.0,0.0,0.0,0.0,0.0,0.0,0.0,0.0,0.0,0.0,0.0,0.0,0.0,0.0,0.0,0.0,0.0,0.0,0.0,0.0,0.0,0.0,0.0,0.0,0.0,0.0,0.0,0.0,0.0,0.0,0.0,0.0,0.0,0.0,0.0,0.0,0.0,0.0,0.0,4.1589,4.1956,4.1727,4.092,4.0267,3.9651,3.9019,3.8799,3.8358,3.7566,0.0,0.0,0.0,0.0,0.0,0.0,0.0,0.0,0.0,0.0,0.0,0.0,0.0,0.0,0.0,0.0,0.0,0.0,0.0,0.0,0.0,0.0,0.0,0.0,0.0,0.0,0.0,0.0,0.0,0.0,0.0,0.0,0.0,0.0,0.0,0.0,0.0,0.0,0.0,0.0,0.0,0.0,0.0,0.0,0.0,0.0,0.0,0.0,0.0,0.0,0.0,0.0,0.0,0.0,0.0,0.0,0.0,0.0,0.0,0.0,0.0,4.4665,0.0,0.0,0.0,0.0,0.0,0.0,0.0,0.0,0.0,0.0,0.0,0.0,0.0,0.0,0.0,0.0,0.0,0.0,0.0,0.0,0.0,0.0,0.0,0.0,0.0,0.0,0.0,0.0,0.0,0.0,0.0,0.0,0.0,0.0,0.0,0.0,0.0,0.0,0.0,0.0,4.158,4.1727,4.1544,4.114,4.0377,3.9724,3.9313,3.8909,3.8505,3.8109,3.6516,0.0,0.0,0.0,0.0,0.0,0.0,0.0,0.0,0.0,0.0,0.0,0.0,0.0,0.0,0.0,0.0,0.0,0.0,0.0,0.0,0.0,0.0,0.0,0.0,0.0,0.0,0.0,0.0,0.0,0.0,0.0,0.0,0.0,0.0,0.0,0.0,0.0,0.0,0.0,0.0,0.0,0.0,0.0,0.0,0.0,0.0,0.0,0.0,0.0,0.0,0.0,0.0,0.0,0.0,5.3313,5.3857,5.3857,5.3711,5.328,5.047,4.8884,4.8329,0.0,0.0,0.0,0.0,0.0,0.0,0.0,0.0,0.0,0.0,0.0,0.0,0.0,0.0,0.0,0.0,0.0,0.0,0.0,0.0,0.0,0.0,0.0,0.0,0.0,4.7003,4.6159,0.0,0.0,0.0,0.0,0.0,0.0,0.0,0.0,0.0,0.0,0.0,0.0,4.103,4.0993,4.0883,4.0883,4.0047,3.9541,3.9688,3.8946,3.8505,3.8505,3.711,3.6046,0.0,0.0,0.0,0.0,0.0,0.0,0.0,0.0,0.0,0.0,0.0,0.0,0.0,0.0,0.0,0.0,0.0,0.0,0.0,0.0,0.0,0.0,0.0,0.0,0.0,0.0,0.0,0.0,0.0,0.0,0.0,0.0,4.4239,4.5851,0.0,0.0,0.0,0.0,0.0,0.0,0.0,0.0,0.0,0.0,0.0,0.0,0.0,0.0,5.2856,5.4318,5.5093,5.5203,5.6736,5.7126,5.6516,5.6516,5.6462,5.6396,5.5973,0.0,5.0498,5.0435,0.0,0.0,0.0,0.0,0.0,0.0,0.0,0.0,0.0,0.0,0.0,0.0,0.0,0.0,0.0,0.0,0.0,0.0,0.0,0.0,0.0,0.0,4.8462,4.6507,4.6608,4.6746,0.0,4.435,4.3212,4.2323,0.0,0.0,0.0,0.0,0.0,0.0,0.0,0.0,4.1103,4.0479,4.0047,4.0047,3.8696,3.8109,3.8799,3.8109,3.7676,3.7676,3.6787,3.6567,3.7155,3.5672,0.0,0.0,0.0,0.0,0.0,0.0,0.0,0.0,0.0,0.0,0.0,0.0,0.0,0.0,0.0,0.0,0.0,0.0,0.0,0.0,0.0,0.0,0.0,0.0,0.0,0.0,0.0,0.0,0.0,4.4624,4.6355,4.6201,4.7091,4.7167,0.0,0.0,0.0,0.0,0.0,0.0,0.0,0.0,0.0,5.4703,5.5236,5.589,5.6736,5.7473,5.7857,5.7857,5.8627,5.9011,5.9132,5.9132,5.9132,5.9132,5.9132,5.7852,5.5632,5.4173,5.236,5.0457,0.0,0.0,0.0,0.0,0.0,4.8765,5.064,0.0,0.0,0.0,0.0,0.0,0.0,0.0,0.0,0.0,0.0,0.0,0.0,0.0,0.0,4.8242,4.86,4.8957,4.8169,4.7031,4.5847,0.0,4.4406,4.4039,4.269,0.0,0.0,0.0,0.0,0.0,4.1727,4.0671,4.0092,4.0524,3.9129,3.8322,3.8681,3.8395,3.8182,3.8182,3.7412,3.7183,3.7697,3.7037,3.7037,0.0,0.0,0.0,0.0,0.0,0.0,0.0,0.0,0.0,0.0,0.0,0.0,0.0,0.0,0.0,0.0,0.0,0.0,0.0,0.0,0.0,0.0,0.0,0.0,0.0,0.0,0.0,0.0,4.7471,4.8548,4.7091,4.9322,5.0014,0.0,0.0,0.0,0.0,0.0,0.0,5.4215,5.4786,5.5969,5.7858,5.8674,5.9293,5.9785,5.992,5.9848,5.9656,5.9656,6.005,6.0787,6.0787,6.0787,6.0787,6.0787,6.0435,5.9665,5.755,5.5361,5.3321,5.2951,5.2144,0.0,5.2807,5.2426,5.1539,5.4079,5.3785,5.222,5.1858,0.0,5.0087,4.795,0.0,0.0,0.0,0.0,4.7553,4.815,0.0,4.9224,4.927,4.9701,4.9994,4.9417,4.86,4.7562,0.0,4.6205,4.5838,4.3836,0.0,0.0,0.0,0.0,4.1544,4.1947,4.0965,4.0377,4.0736,3.9525,3.8681,3.8681,3.8505,3.8469,3.8689,3.8146,3.7912,3.812,3.8089,3.8183,0.0,0.0,0.0,0.0,0.0,0.0,0.0,0.0,0.0,0.0,0.0,0.0,0.0,0.0,0.0,0.0,0.0,0.0,0.0,0.0,0.0,0.0,0.0,0.0,0.0,0.0,0.0,0.0,0.0,0.0,5.0553,5.3362,0.0,0.0,0.0,0.0,5.4143,5.3456,5.4193,5.7135,5.6903,5.7841,6.0353,6.0903,6.0934,6.0556,6.105,6.0871,6.0063,6.0063,6.032,6.0787,6.0787,6.0787,6.0787,6.0787,6.0787,6.0666,5.9704,5.8308,5.6753,5.6725,5.6187,5.5517,5.6407,5.617,5.5473,5.6026,5.4849,5.3247,5.3992,5.2903,5.1097,4.9841,4.8849,0.0,0.0,4.8223,4.826,4.8296,4.8333,4.837,4.837,4.8416,4.8406,4.8379,4.7746,4.6892,0.0,4.5324,4.4553,4.3653,0.0,0.0,4.2359,4.2249,4.1992,4.125,4.1103,4.0773,4.0055,3.9203,3.8681,3.8681,3.7999,3.7889,3.8644,3.8652,3.866,3.8675,3.8675,3.8924,3.9513,3.8966,0.0,0.0,0.0,0.0,0.0,0.0,0.0,0.0,0.0,0.0,0.0,0.0,0.0,0.0,0.0,0.0,0.0,0.0,0.0,0.0,0.0,0.0,0.0,0.0,0.0,0.0,0.0,0.0,5.4016,5.6157,0.0,0.0,5.5487,5.6251,5.674,5.7922,5.9375,6.0963,6.0907,6.1505,6.2937,6.3176,6.2938,6.2229,6.2409,6.2071,6.1183,6.1183,6.1258,6.1443,6.1443,6.1443,6.1405,6.0889,6.1164,6.1833,6.0144,5.9116,5.8588,5.8588,5.7923,5.7035,5.7844,5.7454,5.6557,5.7217,5.662,5.5421,5.4343,5.2803,5.1239,5.0556,5.0178,5.0031,5.0545,5.0692,5.0692,5.0692,5.0288,4.9774,4.927,4.871,4.8296,4.8296,4.8076,4.7636,4.6828,4.5617,4.4626,4.4305,4.3836,4.3396,4.3139,4.3065,4.2955,4.269,4.2176,4.1772,4.1479,4.0736,4.0039,3.9533,3.921,3.8953,3.8726,3.9203,3.9675,4.0105,4.0598,4.108,4.1515,4.0756,4.0802,0.0,0.0,0.0,0.0,0.0,0.0,0.0,0.0,0.0,0.0,0.0,0.0,0.0,0.0,0.0,0.0,0.0,0.0,0.0,0.0,0.0,0.0,0.0,0.0,0.0,0.0,5.7027,5.6129,5.8752,5.9836,5.7824,5.8956,6.0032,6.0499,6.1791,6.3,6.3954,6.3913,6.4081,6.4631,6.4814,6.4459,6.3429,6.3576,6.3093,6.1984,6.1984,6.192,6.1778,6.1778,6.1778,6.1778,6.1222,6.1521,6.2238,6.0815,6.0245,6.022,5.966,5.8942,5.8281,5.8821,5.8489,5.7783,5.8161,5.7688,5.6659,5.526,5.3881,5.2665,5.2153,5.2013,5.2087,5.2344,5.2197,5.1987,5.1987,5.1389,5.0655,5.0115,4.938,4.8746,4.8746,4.8306,4.7746,4.7186,4.6021,4.503,4.4737,4.4011,4.3579,4.3873,4.3653,4.3616,4.3873,4.3212,4.2616,4.2323,4.1801,4.1177,4.0377,4.0304,4.0084,3.9525,4.001,4.0488,4.0965,4.1496,4.1925,4.2276,4.1716,4.1885,4.2901,0.0,0.0,0.0,0.0,0.0,0.0,0.0,0.0,0.0,0.0,0.0,0.0,0.0,0.0,0.0,0.0,0.0,0.0,0.0,0.0,0.0,0.0,0.0,5.3615,5.6115,5.7904,5.7128,6.1356,6.3332,6.0905,6.2448,6.4171,6.5439,6.4698,6.4709,6.6009,6.557,6.5288,6.5325,6.579,6.5418,6.4139,6.4603,6.4022,6.24,6.24,6.2228,6.192,6.192,6.192,6.192,6.1883,6.1892,6.1948,6.1854,6.1854,6.1722,6.0126,5.9456,5.9447,5.941,5.9401,5.9284,5.8835,5.7857,5.6811,5.6811,5.6271,5.5438,5.4656,5.4436,5.4289,5.3471,5.2711,5.206,5.206,5.1463,5.0839,5.0839,5.0225,4.9647,4.961,4.8306,4.7186,4.7149,4.6498,4.5663,4.4883,4.4085,4.3836,4.4626,4.4085,0.0,4.4626,4.4048,4.3286,4.2506,4.2396,4.2094,4.125,4.1177,4.1132,4.1095,4.1132,4.114,4.1193,4.1193,4.1385,4.1696,4.1755,4.2342,4.3543,0.0,0.0,0.0,0.0,0.0,0.0,0.0,0.0,0.0,0.0,0.0,0.0,0.0,0.0,0.0,0.0,0.0,0.0,0.0,0.0,0.0,0.0,5.8621,5.7654,6.0368,6.3107,6.4688,6.5763,6.6359,6.6284,6.6432,6.6468,6.6236,6.5972,6.6237,6.7191,6.598,6.5582,6.6145,6.629,6.5922,6.4971,6.5665,6.552,6.4475,6.4475,6.4414,6.435,6.435,6.435,6.4313,6.3733,6.3988,6.4716,6.3177,6.3108,6.3792,6.1883,6.0943,6.0546,5.9986,5.9194,5.8354,5.8227,5.7582,5.6811,5.6811,5.6271,5.5548,5.5328,5.5254,5.5218,5.4997,5.4363,5.3739,5.3739,5.2711,5.1693,5.1693,5.1059,5.0288,4.9721,4.9233,4.8719,4.8076,4.7305,4.6498,4.57,4.5369,4.5342,4.5553,0.0,0.0,4.5553,4.5369,4.5158,4.4929,4.4892,4.4342,4.2955,4.2837,4.2323,0.0,4.1654,4.2353,4.3182,4.3754,4.4135,4.4206,4.5079,4.5147,0.0,0.0,0.0,0.0,0.0,0.0,0.0,0.0,0.0,0.0,0.0,0.0,0.0,0.0,0.0,0.0,0.0,0.0,0.0,0.0,0.0,0.0,6.0259,6.2755,6.3197,6.4376,6.5948,6.8134,6.8383,6.8616,6.9136,6.8883,6.8508,6.8054,6.8017,6.8201,6.8692,6.7834,6.754,6.7981,6.8017,6.7797,6.732,6.776,6.7614,6.6793,6.6793,6.6623,6.6329,6.6329,6.6329,0.0,6.5828,6.6047,6.6581,6.5014,6.4831,0.0,0.0,0.0,0.0,0.0,5.9422,5.851,5.851,5.7997,5.7299,5.7299,5.7005,5.6539,5.6198,5.6088,5.6014,5.5695,5.5254,5.4913,5.4913,5.4226,5.3419,5.3088,5.238,5.1563,5.0775,5.0335,4.9968,4.9444,0.0,0.0,4.8049,4.6801,4.5993,4.6351,4.6104,4.603,0.0,4.6104,4.5883,4.5883,4.5883,4.5516,4.4571,4.4497,0.0,0.0,0.0,4.4096,4.479,0.0,0.0,0.0,0.0,4.7456,0.0,0.0,0.0,0.0,4.8873,4.8966,0.0,0.0,0.0,0.0,0.0,0.0,0.0,0.0,0.0,0.0,0.0,0.0,0.0,0.0,0.0,0.0,6.5004,6.7504,6.9192,6.8201,6.776,6.9032,6.9816,7.0257,7.0367,7.0367,7.0403,7.0477,7.0403,7.0403,7.0477,0.0,0.0,0.0,0.0,7.0293,7.0367,7.0293,6.9926,6.9288,6.9105,6.8715,6.8104,6.7994,6.7958,6.7958,6.7958,6.7958,6.7921,6.721,6.6843,6.6512,6.404,6.2536,6.163,6.0933,6.0114,0.0,0.0,0.0,0.0,5.8143,5.807,5.7886,5.7141,5.6921,5.6785,5.6062,5.5805,5.5732,5.5732,5.5658,5.5438,5.4693,5.3995,5.3225,5.2317,5.1573,5.1022,5.0839,5.0802,5.0802,5.0802,4.8379,4.6691,4.7406,4.6902,0.0,4.7443,4.6902,4.6434,4.6434,0.0,0.0,4.6324,4.6324,4.6296,4.6177,4.625,4.6324,4.6324,4.7195,4.7553,4.7379,4.8333,4.9517,5.0802,5.1059,5.2003,5.3398,5.1106,5.0812,0.0,0.0,0.0,0.0,0.0,0.0,0.0,0.0,0.0,0.0,0.0,0.0,0.0,0.0,0.0,6.4339,6.735,7.0183,7.2459,7.2496,7.1945,7.094,7.0977,7.1307,7.1982,7.2055,7.2312,7.2936,7.2386,7.2312,7.2973,7.1762,0.0,7.2018,7.1417,7.138,7.2018,7.138,7.1307,7.1798,0.0,0.0,7.0573,6.9926,6.9633,6.9633,6.9633,6.9633,6.9596,6.9449,6.9009,6.8201,6.5765,6.3894,6.2536,6.2389,6.1435,6.015,6.015,5.9636,5.8976,5.8976,5.8547,5.796,5.7813,5.7776,0.0,5.7556,5.7079,5.6565,5.6565,5.6088,5.5548,5.5401,5.5254,5.473,5.3287,5.2847,5.2333,5.1059,5.0802,5.0802,5.0802,5.0288,4.9921,5.0058,4.9958,4.9921,5.0058,4.9958,4.9848,4.9848,4.9848,4.9591,4.894,4.8866,4.8573,4.7902,4.8499,4.8866,4.8866,5.0298,5.0445,4.9123,5.1169,5.1783,5.0802,5.2747,5.4216,5.5108,5.3335,5.3041,0.0,0.0,0.0,0.0,0.0,0.0,0.0,0.0,0.0,0.0,0.0,5.8766,0.0,0.0,6.6035,6.8531,7.0587,7.2459,7.4074,7.4294,7.4001,7.3215,7.3105,7.3252,7.3656,7.3692,7.3876,7.4258,7.3927,7.3891,7.4294,7.3546,7.3289,7.3692,7.3325,7.3289,7.3692,7.3289,7.3289,7.3692,7.2899,7.2701,7.3068,7.2275,7.2129,7.2459,7.1651,7.1541,7.1835,7.1027,7.022,6.9339,6.7724,6.6096,6.4567,6.3759,6.2658,6.1545,6.1153,6.0224,5.9196,5.9196,5.8646,5.7997,5.7997,5.7997,5.7997,5.7997,5.7703,5.7409,5.7409,5.7116,5.6712,5.6308,5.6198,5.5868,5.4656,5.4399,5.4032,5.2858,5.2931,5.3078,5.2674,5.2931,5.2674,5.1059,5.0802,5.0802,5.0802,5.0802,5.0802,5.0802,5.1169,5.1253,5.0849,5.0812,5.0445,4.9581,5.0335,5.0812,5.0812,5.2354,5.2821,5.2024,5.3592,5.4216,5.3812,5.5012,5.6014,5.6796,5.5978,5.5831,0.0,0.0,0.0,0.0,0.0,0.0,0.0,0.0,5.8254,5.9179,6.108,6.3306,6.5985,6.7797,6.9793,7.2532,7.3634,7.4441,7.5234,7.538,7.538,7.538,7.5087,7.494,7.5124,7.5124,7.5197,7.5344,7.538,7.538,7.538,7.5197,7.5197,7.5344,7.505,7.505,7.5344,7.505,7.505,7.5344,7.505,7.4977,7.5124,7.4294,7.4294,7.483,7.3377,7.3083,7.3611,7.2114,7.105,7.0257,6.9449,6.8238,6.6769,6.5154,6.3906,6.2939,6.2291,6.1006,5.9673,5.9673,5.9123,5.8474,5.8474,5.8474,5.8474,5.8474,5.8364,5.8217,5.8217,5.8107,5.785,5.7189,5.7031,5.6822,5.6014,5.5842,5.5585,5.4803,5.5144,5.5401,5.473,5.5181,5.474,5.2123,5.172,5.172,5.172,5.172,5.172,5.172,5.2317,5.2685,5.2685,5.2685,5.2428,5.1756,5.2354,5.2685,5.2685,5.4106,5.4803,5.462,5.5585,5.6308,5.6811,5.6957,5.7373,5.7997,5.7997,5.7997,5.1313,5.2009,5.3779,5.6918,5.736,5.8603,0.0,0.0,6.5109,6.7994,6.9412,7.0206,7.0573,7.1945,7.3377,7.4463,7.5322,7.613,7.6922,7.7032,7.7032,7.7032,7.5784,7.516,7.5909,7.5983,7.6261,7.6995,7.7032,7.7032,7.7032,7.6335,7.6313,7.7032,7.5637,7.5601,7.7032,7.5601,7.5637,7.7032,7.5564,7.527,7.5946,7.5124,7.4793,7.483,7.3964,7.3611,7.3634,7.2716,7.1894,7.1087,7.0293,6.9412,6.8458,6.6806,6.5264,6.3956,6.3846,6.2744,6.1337,6.1337,6.0786,6.0126,6.0126,6.0126,6.0126,6.0126,5.96,5.9086,5.9086,5.8547,5.796,5.7886,5.7886,5.7666,5.6859,5.6675,5.6418,5.5622,5.5548,5.5585,5.5475,5.5548,5.5475,5.5108,5.5071,5.5071,5.5071,5.5071,5.5071,5.5071,5.5144,5.5181,5.5181,5.5181,5.5144,5.5071,5.5144,5.5181,5.5181,5.6051,5.6198,5.5475,5.698,5.7409,5.6811,5.7519,5.7923,5.7997,5.7997,5.7997,5.604,5.6995,0.0,0.0,6.1869,6.3579,6.6946,6.7907,6.8752,7.1027,7.2129,7.2973,7.3927,7.4625,7.5359,0.0,7.6592,7.6922,7.7252,7.7289,7.7289,7.7289,7.6702,7.6628,7.7488,7.7561,7.7708,7.8038,7.8075,7.7839,7.7326,7.6995,7.6959,7.7289,7.6665,7.6628,7.7289,7.6628,7.6628,7.7289,7.6628,7.6481,7.6775,7.5983,7.5344,7.4903,7.5028,7.4551,7.3685,7.334,7.2716,7.1931,7.1087,7.0573,6.9986,6.743,6.6072,6.5411,6.4971,6.4016,6.2952,6.2475,6.1741,6.1006,6.0529,6.0419,6.0419,6.0419,6.015,5.9893,5.9893,5.9636,5.9391,5.9391,5.9391,5.9318,5.8988,5.8535,5.8095,5.7776,5.7703,5.7556,5.7079,5.7776,5.807,5.7152,5.6209,5.5585,5.5585,5.5585,5.5768,5.6235,5.6308,5.6308,5.6308,5.6308,5.6088,5.5622,5.6051,5.6308,5.6308,5.7079,5.7336,5.7005,5.7666,5.7813,5.7483,5.785,5.7997,5.7997,5.7997,5.7997,5.9243,0.0,0.0,6.3713,6.5999,6.8164,6.9412,7.077,7.2165,7.3546,7.4294,7.5065,7.624,7.6423,7.6717,7.7509,7.7656,7.7656,7.7656,7.7656,7.7582,7.7326,7.7289,7.7656,7.8516,7.8589,7.8699,7.8919,7.8736,7.8332,7.7693,7.7656,7.7546,7.7326,7.7546,7.7546,7.7289,7.7289,7.7289,7.7289,7.7289,7.7289,7.7289,7.6702,7.6114,7.5564,7.5946,7.5432,7.4331,7.4111,7.3707,7.3083,7.2041,7.1637,7.127,6.8531,6.7357,6.7063,6.6256,6.5448,6.4604,6.3783,6.3099,6.2511,6.1912,6.1728,6.1728,6.1728,6.1594,6.141,6.141,6.1227,6.1068,6.1068,6.1068,6.1006,6.0786,6.026,5.9783,5.9563,5.9526,5.9343,5.8767,5.9648,6.0015,5.8841,5.7666,5.676,5.6319,5.6246,5.6503,5.7079,5.7152,5.7152,5.7152,5.7152,5.6895,5.6319,5.6822,5.7152,5.7152,5.7703,5.7997,5.7997,5.7997,5.7997,5.7997,5.7997,5.7997,5.7997,5.7997,5.7997,5.8892,0.0,6.3515,6.6746,6.9376,7.1784,7.4133,7.5322,7.6166,7.6995,7.7179,7.7215,7.7252,7.7252,7.7546,7.8405,7.8552,7.8552,7.8552,7.8552,7.8259,7.7399,7.7289,7.7656,0.0,7.8589,7.8919,7.9706,7.9029,7.8589,7.8552,7.8552,7.8185,7.7326,7.8112,7.8148,7.7326,7.7289,7.7289,7.7289,7.7289,7.7289,7.7289,7.7289,7.7252,7.7179,7.6423,7.6056,7.5983,7.5212,7.483,7.4683,7.3083,7.2459,7.2275,7.0587,6.9486,6.8701,6.7921,6.7113,6.6292,6.5472,6.5215,6.5178,6.5141,6.5141,6.5141,6.5141,6.4604,6.3992,6.3992,6.3356,6.2719,6.2719,6.2719,6.2499,6.1741,6.152,6.13,6.0529,6.037,6.0346,6.0346,6.0382,6.0382,6.0334,6.0309,5.9685,5.8143,5.7923,5.7923,5.796,5.796,5.796,5.796,5.796,5.796,5.7923,5.796,5.796,5.796,5.7997,5.7997,5.7997,5.7997,5.7997,5.7997,5.7997,5.7997,5.7997,5.7997,5.7997,6.19,6.4604,6.765,7.0858,7.2679,7.4169,7.6078,7.6702,7.6959,7.7252,7.6445,7.5711,7.5711,7.5711,7.5784,7.6093,7.7524,7.8405,7.7803,7.8699,7.8883,7.7472,7.7803,0.0,0.0,0.0,0.0,7.9779,8.0021,7.9947,7.9412,7.9412,7.9265,7.8956,7.925,7.8993,7.8185,7.8185,7.7876,7.7289,7.7289,7.7289,7.7289,7.7289,7.7289,7.7289,7.6995,7.6592,7.6093,7.5799,7.538,7.483,7.428,7.378,7.323,7.2679,7.1982,7.1101,6.9743,6.9119,6.8752,6.7944,6.732,6.6769,6.6256,6.5742,6.5288,6.5288,6.5105,6.4897,6.4897,6.4677,6.4444,6.4444,6.4444,6.4371,6.4127,6.3649,6.3319,6.36,6.3209,6.2842,6.2842,6.3319,6.3466,6.2952,6.1447,6.0187,5.9648,5.9123,5.9013,5.9538,5.9123,5.8792,5.8792,5.8792,5.8792,5.8792,5.8792,5.9049,5.9575,5.9612,5.9355,5.8792,5.8792,5.8547,5.7997,5.7997,5.7997,5.7997,5.7997,5.7997,6.4971,6.7944,7.0881,7.3817,7.5175,7.6041,7.7069,7.7289,7.7289,7.7289,7.6004,7.4793,7.4515,7.4478,7.4588,7.483,7.6702,7.8243,7.8573,7.9066,7.9176,7.8683,7.8626,0.0,0.0,0.0,0.0,8.0204,8.0718,8.0791,8.0241,8.0514,8.0404,7.9816,8.0367,8.0147,7.9029,7.9045,7.8589,7.7766,7.7436,7.7289,7.7289,7.7289,7.7289,7.7289,7.7289,7.6995,7.6518,7.6518,7.6225,7.5747,7.5417,7.5028,7.4515,7.4221,7.3817,7.3083,7.1211,7.055,7.0403,6.9596,6.8972,6.8471,6.7944,6.743,6.7026,6.7026,6.6793,6.6573,6.6573,6.6352,6.6145,6.6145,6.6145,6.6072,6.5778,6.5301,6.5044,6.5251,6.4897,6.442,6.4139,6.453,6.4714,6.4176,6.2989,6.1851,6.0933,6.0114,5.982,6.0346,5.993,5.9636,5.9636,5.9636,5.9636,5.9636,5.9636,5.9747,5.9967,6.026,5.9893,5.8792,5.9049,5.8792,5.7997,5.7997,5.7997,5.7997,5.829,5.8437,6.7967,7.0844,7.323,7.5579,7.6738,7.7289,7.7289,7.7289,7.7289,7.7179,7.5858,7.4463,0.0,0.0,7.3854,7.4647,7.6298,7.8316,8.0608,7.9727,7.936,0.0,0.0,0.0,0.0,0.0,0.0,8.1085,0.0,8.1122,8.1195,8.1893,8.1615,8.011,8.1505,8.1505,7.9926,7.9853,7.9412,7.8589,7.7766,7.7362,7.7289,7.7289,7.7289,7.7289,7.7289,7.7289,7.7289,7.7289,7.7289,7.7215,7.646,7.613,7.6019,7.5234,7.494,7.4573,7.2261,7.149,7.1344,7.055,7.0257,7.022,7.0183,7.011,7.011,7.011,6.9522,6.8885,6.8885,6.8311,6.77,6.77,6.77,6.748,6.6733,6.6549,6.6329,6.5582,6.5398,6.5191,6.4433,6.4286,6.4286,6.4286,6.4897,6.4494,6.2108,6.108,6.0603,6.0603,6.0566,6.0529,6.0456,6.0456,6.0456,6.0456,6.0456,6.015,5.9404,6.0114,5.9758,5.8143,5.8866,5.8866,5.7997,5.7997,5.8033,5.807,5.8829,5.9196,7.066,7.334,7.5469,7.6702,7.7142,7.7289,7.7289,7.7289,7.6959,7.5747,7.3766,7.1784,0.0,0.0,0.0,7.2973,7.6995,0.0,8.0094,8.1305,0.0,8.0293,0.0,8.1122,8.0718,8.1782,0.0,0.0,8.2223,8.2406,8.3618,8.3875,8.3801,8.3398,8.3214,8.2627,8.1615,8.0404,7.9412,7.8589,7.8369,7.7913,7.7289,7.7289,7.7289,7.7289,7.7289,7.7289,7.7289,7.7289,7.7289,7.7289,7.7069,7.6628,7.6093,7.5873,7.5432,7.4793,7.4206,7.3986,7.3839,7.3046,7.2386,7.1798,7.116,7.0587,7.011,7.011,6.9522,6.8885,6.8885,6.8311,6.77,6.77,6.77,6.7627,6.7444,6.7407,6.7333,6.715,6.71,6.704,6.6819,6.6783,6.6783,6.6783,6.6439,6.5742,6.453,6.3649,6.3172,6.3172,6.2585,6.1949,6.1337,6.13,6.13,6.13,6.13,6.1484,6.1875,6.2095,6.1435,5.9832,5.9979,5.9391,5.7997,5.7997,5.8327,5.8902,5.9086,5.9196,7.2863,7.505,7.6738,7.7179,7.7289,7.7032,7.5968,7.5711,7.516,7.3193,7.1138,0.0,6.8091,6.9449,0.0,0.0,0.0,0.0,8.1232,8.226,8.2774,0.0,8.259,0.0,8.259,8.3398,8.4058,0.0,8.3728,8.3654,8.4535,8.4939,8.4976,8.4609,8.4168,8.3361,8.2186,8.0938,8.0094,7.9653,7.8956,7.8332,7.7839,7.7472,7.7289,7.7289,0.0,7.7289,7.7289,7.7289,7.7289,7.7289,7.7289,7.7032,7.6628,7.6628,7.6335,7.5968,7.5968,7.5968,7.5711,7.4184,7.3156,7.2422,7.1967,7.1505,7.1138,7.1138,7.0587,6.9949,6.9949,6.9376,6.8765,6.8765,6.8765,6.8765,6.8765,6.8765,6.8655,6.8311,6.7958,6.759,6.7223,6.7187,6.7187,6.7187,6.71,6.6843,6.6402,6.5007,6.4103,6.4103,6.3319,6.2609,6.2181,6.2144,6.2144,6.2144,6.2144,6.2181,6.2291,6.2609,6.2022,6.0419,6.075,6.0309,5.9061,5.9061,5.9281,5.9747,6.0077,6.026,7.4793,7.6225,7.7289,7.7289,7.7215,7.6555,7.4221,7.3611,7.2826,7.0293,0.0,6.726,6.6329,6.8128,7.0146,7.127,0.0,7.969,8.2794,8.281,8.3251,8.5233,8.4462,8.4042,8.4829,8.5013,8.538,8.6094,8.5453,8.5049,8.4939,8.5563,8.5527,8.4646,8.4682,8.3948,8.2223,8.1599,8.1232,8.0975,7.947,7.8699,7.8552,7.7693,7.7289,7.7289,0.0,0.0,7.7289,7.7289,7.7289,7.7289,7.7289,7.7289,7.7289,7.7289,7.7289,7.7289,7.7289,7.7252,7.6775,7.4551,7.3377,7.2789,7.2569,7.2496,7.2496,7.2496,7.1931,7.1307,7.1307,7.0697,7.011,7.011,7.011,7.011,7.011,7.011,6.9889,6.9192,6.8421,6.7664,6.7063,6.688,6.6806,6.6806,6.7393,6.7811,6.77,6.5865,6.4543,6.4433,6.3649,6.3086,6.2976,6.2866,6.2793,6.2793,6.2793,6.2499,6.1777,6.2426,6.2095,6.0603,6.1227,6.119,6.0419,6.0419,6.0456,6.0566,6.1263,6.1606,7.6445,7.7105,7.7289,7.7289,7.6812,7.5836,7.4111,7.3193,0.0,0.0,6.7357,6.6256,6.48,6.6489,6.9022,7.1835,7.5836,7.947,8.2039,8.3434,8.4095,0.0,0.0,0.0,0.0,0.0,0.0,0.0,0.0,0.0,8.6611,8.6738,8.6114,8.4646,8.5233,8.4499,8.2223,8.2737,8.2317,8.1012,8.0021,7.9229,7.8552,7.7693,7.7289,7.7289,0.0,0.0,7.7289,7.7289,7.7289,7.7289,7.7289,7.7289,7.7289,7.7289,7.7289,7.7289,7.7289,7.6848,7.613,7.505,7.461,7.4243,7.2899,7.2496,7.2496,7.2496,7.1931,7.1307,7.1307,7.0697,7.011,7.011,7.011,7.011,7.011,7.011,7.0073,6.9926,6.9229,6.8862,6.9376,6.8935,6.8495,6.8495,6.8605,6.8458,6.7811,6.7333,6.6819,6.6145,6.5338,6.4604,6.3906,6.3196,6.2793,6.2793,6.2793,6.2756,6.2609,6.2719,6.2352,6.141,6.152,6.119,6.0419,6.0419,6.075,6.141,6.152,6.1606,7.7105,7.7289,7.7289,7.7289,7.6371,7.4845,7.2386,0.0,0.0,0.0,6.4494,6.3833,6.3503,6.5411,6.7834,7.0257,7.367,7.7194,8.0477,8.2333,0.0,8.4535,0.0,0.0,0.0,0.0,0.0,0.0,0.0,0.0,8.7014,8.6978,8.6444,8.527,8.5196,8.4425,8.2847,8.281,8.2186,8.1012,8.0167,7.9596,7.9192,7.7876,7.7546,7.7949,0.0,0.0,7.7289,7.7289,7.7289,7.7289,7.7289,7.7289,7.7289,7.7289,7.7289,7.7289,7.7289,7.7032,7.6592,7.5784,7.4955,7.4147,7.3377,7.2826,7.2496,7.2496,7.2224,7.1931,7.1931,7.1651,7.1358,7.1358,7.1358,7.1358,7.1358,7.1358,7.1248,7.0807,7.0389,7.0146,7.011,6.9779,6.9376,6.8972,6.8885,6.8605,6.7811,6.77,6.7407,6.6586,6.5411,6.4677,6.4714,6.3943,6.3649,6.4077,6.4114,6.3894,6.3503,6.3466,6.3099,6.2254,6.2218,6.2022,6.1655,6.1655,6.1851,6.2218,6.2218,6.2475,7.7032,7.7179,7.7289,7.7289,7.6078,7.4059,7.0844,6.8348,0.0,6.3343,6.2291,6.2034,6.2683,6.4567,6.6623,6.8568,7.1321,7.4661,7.8935,8.1101,8.303,0.0,0.0,0.0,0.0,0.0,0.0,0.0,0.0,0.0,8.7014,8.6978,8.6628,8.5837,8.5196,8.4389,8.3418,8.2774,8.2039,8.1269,8.0424,8.0073,8.0,7.8316,7.7949,7.8552,0.0,0.0,0.0,7.7289,7.7289,7.7289,7.7289,7.7289,7.7289,7.7289,7.7289,7.7289,7.7289,7.7289,7.7179,7.635,7.5249,7.4184,7.4001,7.3413,7.2753,7.2753,7.2642,7.2496,7.2496,7.2496,7.2496,7.2496,7.2496,7.2496,7.2496,7.2496,7.2312,7.1674,7.1417,7.116,7.0697,7.0477,7.0146,6.9522,6.9398,6.9119,6.8325,6.8214,6.7958,6.732,6.5668,6.4861,6.5521,6.4824,6.464,6.5251,6.5288,6.5007,6.4383,6.4213,6.3759,6.3086,6.2903,6.2793,6.2793,6.2793,6.2793,6.2793,6.2793,6.3282,7.6203,7.6738,7.7289,7.7289,7.6078,7.4059,7.0844,0.0,6.6659,6.3453,6.2756,6.2719,6.2793,6.3613,6.5338,6.8421,7.0353,7.3179,7.8038,8.0718,8.281,8.4499,0.0,0.0,0.0,0.0,0.0,0.0,0.0,0.0,0.0,8.6978,8.6628,8.5837,8.571,8.4939,8.3418,8.3344,8.2884,8.2076,8.1269,8.0901,8.0828,7.9213,7.8516,7.8552,0.0,0.0,0.0,7.7289,7.7289,7.7289,7.7289,7.7289,7.7289,7.7289,7.7289,7.7289,7.7289,7.7289,7.7179,7.635,7.5983,7.5726,7.5014,7.4221,7.3611,7.3611,7.3046,7.2496,7.2496,7.2496,7.2496,7.2496,7.2496,7.2496,7.2496,7.2496,7.2496,7.2422,7.1784,7.1527,7.2165,7.1674,7.116,7.1087,7.1087,7.0793,6.9963,6.9889,6.9853,6.9779,6.7687,6.6292,6.6366,6.5668,6.5215,6.5288,6.5288,6.5251,6.5178,6.4494,6.4066,6.3992,6.3209,6.2793,6.2793,6.2793,6.2793,6.2793,6.2793,6.3282,7.5836,7.6665,7.7289,7.7289,7.5014,7.2261,7.0513,0.0,6.4383,6.3086,6.2389,6.2401,6.3392,6.3429,6.4237,6.699,6.7614,6.9215,7.3582,7.5873,7.8589,8.2663,8.4168,0.0,0.0,0.0,0.0,0.0,0.0,0.0,0.0,8.6261,8.5894,8.5086,8.4609,8.4042,8.3418,8.292,8.226,8.1489,8.1158,8.1012,8.0938,7.9323,7.8846,7.9265,0.0,0.0,0.0,7.7289,7.7289,7.7289,7.7289,7.7289,7.7289,7.7289,7.7289,7.7289,7.7289,7.7289,7.7252,7.6922,7.6812,7.6481,7.4735,7.3634,7.2973,7.2973,7.2753,7.2496,7.2496,7.2496,7.2606,7.312,7.2863,7.2496,7.2496,7.2496,7.2642,7.312,7.2569,7.2275,7.3083,7.2569,7.1857,7.138,7.1307,7.1013,7.0183,7.011,7.011,7.011,6.8361,6.743,6.7907,6.6769,6.6219,6.6696,6.6733,6.6512,6.6035,6.5705,6.5301,6.4824,6.4016,6.3576,6.3576,6.305,6.2793,6.2793,6.2793,6.3282,7.4661,7.6151,7.7289,7.7289,7.4463,7.138,0.0,0.0,6.3417,6.2903,6.2365,6.2328,6.3503,6.3196,6.3527,6.5778,6.5888,6.705,7.1087,7.3046,7.5836,0.0,0.0,0.0,0.0,0.0,0.0,0.0,0.0,0.0,0.0,8.5233,8.4939,8.4609,8.3821,8.3381,8.3381,8.259,8.1929,8.1342,8.1342,8.1342,8.1305,7.969,7.9265,0.0,0.0,0.0,0.0,7.7289,7.7289,7.7289,7.7289,7.7289,7.7289,7.7289,7.7441,7.757,7.7365,7.7441,7.7533,7.7072,7.6959,7.6592,7.4625,7.367,7.3156,7.2936,7.2863,7.2863,7.2863,7.2863,7.301,7.356,7.3266,7.2936,7.3156,7.3215,7.3377,7.3927,7.3597,7.3413,7.3964,7.3377,7.2679,7.2078,7.1821,7.1454,7.0881,7.0807,7.0891,7.1051,6.9696,6.8898,6.9229,6.8017,6.7467,6.8017,6.8054,6.7687,6.688,6.6843,6.6476,6.5668,6.4861,6.4457,6.4457,6.382,6.3417,6.316,6.316,6.3649,7.2312,7.4867,7.7289,7.7289,7.4867,7.2055,7.044,6.7614,6.4811,6.3123,6.2793,6.2793,6.2793,6.2793,6.3343,6.5031,6.5962,6.7907,7.1908,7.3876,7.5821,0.0,0.0,0.0,0.0,0.0,0.0,0.0,0.0,0.0,0.0,8.3858,8.3785,8.4572,8.3821,8.3381,8.3381,8.259,8.2186,8.2186,8.2186,8.2186,8.2113,8.0514,0.0,0.0,0.0,0.0,0.0,7.7289,7.7289,7.7289,7.7289,7.7289,7.7289,7.7289,7.7724,7.8187,7.7525,7.7739,7.8062,7.6567,7.613,7.5946,7.5124,7.4867,7.472,7.3891,7.367,7.367,7.367,7.367,7.367,7.3722,7.367,7.3891,7.4683,7.4867,7.4867,7.4903,7.4867,7.4867,7.4903,7.4221,7.3685,7.3685,7.301,7.2496,7.2496,7.2496,7.2705,7.3278,7.2096,7.094,7.0146,6.9339,6.8898,6.8898,6.8898,6.8531,6.7737,6.77,6.7297,6.6512,6.5705,6.5288,6.5288,6.5288,6.4861,6.4103,6.4103,6.453,6.8862,7.0367,7.1417,7.0881,6.9155,6.7467,6.6953,6.5141,6.3453,6.2903,6.2793,6.2976,6.3576,6.3209,6.371,6.6476,6.6696,6.7504,7.044,0.0,0.0,7.9008,0.0,0.0,0.0,0.0,0.0,0.0,0.0,0.0,0.0,8.303,8.27,8.2957,8.27,8.259,8.259,8.2333,8.2186,8.2186,8.1636,8.1379,8.1342,7.969,0.0,0.0,0.0,0.0,0.0,7.7289,7.7289,7.7289,7.7289,7.7585,7.7988,7.7988,7.8379,7.8865,7.8654,7.8716,7.8752,7.7704,7.7716,7.7954,7.6556,7.5544,7.483,7.4588,7.4832,7.5088,7.4647,7.4515,7.4368,7.3817,7.4111,7.4441,7.4147,7.4515,7.505,7.5616,7.527,7.505,7.5616,7.4588,7.3722,7.3722,7.301,7.2496,7.2496,7.2496,7.2719,7.3328,7.2613,7.1973,7.156,7.0411,6.9706,6.9706,6.9706,6.9376,6.8568,6.8531,6.8128,6.7333,6.6512,6.6109,6.6109,6.5582,6.5178,6.4934,6.4934,6.5338,6.5718,6.7357,6.8311,6.7847,6.6256,0.0,6.5215,6.3527,6.1985,6.2279,6.2365,6.2511,6.3075,6.2952,6.3673,6.6366,6.6366,6.71,7.0146,0.0,0.0,7.8862,0.0,0.0,0.0,0.0,0.0,0.0,0.0,0.0,0.0,0.0,8.1746,8.1746,8.1452,8.1285,8.1285,8.1285,8.1285,8.1285,8.0791,8.0534,8.0498,0.0,0.0,0.0,0.0,0.0,0.0,7.7585,7.7666,7.7695,7.7923,7.8272,7.8628,7.8628,7.901,7.9502,7.9279,7.9158,7.8961,7.8149,7.827,7.8583,7.7866,7.6693,7.5632,7.5712,7.5979,7.5993,7.5123,7.5088,7.4974,7.3964,7.4551,7.5212,7.4698,7.5249,7.5968,7.6445,7.6151,7.5968,7.6481,7.5469,7.4515,7.4184,7.3487,7.2826,7.2532,7.2496,7.2719,7.3328,7.2871,7.2549,7.2646,7.1357,7.055,7.055,7.055,7.0183,6.9376,6.9339,6.8972,6.8178,6.7357,6.6953,6.6953,6.6145,6.5742,6.5742,6.5742,6.6035,0.0,6.5351,6.7076,6.704,6.5388,6.3943,6.4701,6.2536,0.0,6.1374,6.1557,6.163,6.1667,6.2291,6.338,6.5105,6.5398,0.0,0.0,7.2188,0.0,0.0,0.0,0.0,0.0,0.0,0.0,0.0,0.0,0.0,0.0,0.0,8.0828,8.0828,8.0021,7.9669,7.9816,7.9816,7.9816,7.9816,7.9743,7.9706,7.9706,0.0,0.0,0.0,0.0,0.0,0.0,7.7974,7.8255,7.8376,7.8901,7.9187,7.9267,7.9267,7.9642,8.0105,7.9524,7.9153,7.8876,7.8241,7.7979,7.8092,7.8984,7.8201,7.7047,7.7204,7.709,7.6641,7.543,7.5593,7.5671,7.4273,7.5169,7.6309,7.6273,7.6883,7.7405,7.7381,7.7411,7.7426,7.7304,7.6698,7.5985,7.5191,7.4309,7.35,7.2765,7.2561,7.2719,7.3328,7.2871,7.2733,7.3341,7.2156,7.138,7.138,7.138,7.1013,7.022,7.011,6.9706,6.8921,6.8091,6.77,6.77,6.6953,6.6586,6.6586,6.6586,6.6586,5.9208,0.0,6.1031,6.0419,6.0309,6.0407,0.0,6.0517,6.0456,6.0639,6.1153,6.1777,6.2389,6.2683,6.3563,6.5852,0.0,6.7173,7.0,0.0,0.0,0.0,0.0,0.0,0.0,0.0,0.0,0.0,0.0,0.0,0.0,0.0,7.9176,7.9176,7.8316,7.8516,7.9779,7.9816,7.9816,7.9779,7.9192,7.8883,7.8877,0.0,0.0,0.0,0.0,0.0,7.7304,7.7465,7.7854,7.8322,7.8458,7.9069,7.9898,7.9898,8.0306,8.0847,8.0707,8.0204,7.958,7.9395,7.8901,7.8518,7.9399,7.9494,7.9226,7.8824,7.8971,7.8984,7.762,7.7825,7.801,7.6436,7.7315,7.8304,7.7678,7.8191,7.8628,7.8159,7.842,7.8447,7.7465,7.7439,7.7317,7.6672,7.5328,7.4325,7.4139,7.3158,7.2719,7.3328,7.2871,7.2733,7.3341,7.2673,7.2224,7.2224,7.2224,7.1857,7.105,7.044,6.9706,6.8921,6.8091,6.77,6.77,6.7517,6.7407,6.7407,6.7407,6.7407,5.7997,5.8584,5.9086,5.8646,5.8866,5.9306,5.9673,5.9538,5.9391,5.9783,6.0187,6.0737,6.1545,6.2316,6.349,0.0,6.6549,0.0,0.0,0.0,0.0,0.0,0.0,0.0,0.0,0.0,0.0,0.0,0.0,0.0,0.0,0.0,7.8589,7.8589,7.7766,7.7729,7.8626,7.8662,7.8662,7.8662,7.8222,7.7986,7.8002,0.0,0.0,0.0,0.0,0.0,7.7789,7.8355,7.8791,7.914,7.9463,7.9785,8.0144,8.0454,8.0599,8.0707,8.0983,8.0285,7.9208,7.9208,7.8861,7.86,7.9054,7.9541,7.9748,7.877,7.8885,7.9072,7.7733,7.8241,7.8674,7.717,7.8025,7.8902,7.7838,7.8216,7.8691,7.8339,7.8538,7.8666,7.8245,7.8366,7.8208,7.7248,7.6206,7.532,7.4672,7.3625,7.305,7.3366,7.2871,7.263,7.2957,7.3032,7.3046,7.3046,7.3046,7.2863,7.2422,7.1284,7.0257,6.9486,6.8288,6.7884,6.8238,6.7884,6.77,6.77,6.77,6.77,5.8143,5.8756,5.9306,5.9086,5.9013,5.9196,5.9869,5.8988,5.818,5.8866,5.9196,5.9673,6.0591,6.2095,0.0,0.0,0.0,0.0,7.3523,0.0,0.0,0.0,0.0,0.0,0.0,0.0,0.0,0.0,0.0,0.0,0.0,0.0,0.0,7.8405,7.7693,7.7289,7.7289,7.7411,7.7435,7.7435,7.7555,7.7555,7.7472,7.757,0.0,0.0,0.0,0.0,7.8403,7.9491,8.0008,8.0163,8.0733,8.0652,8.0324,8.088,8.0741,8.0295,8.0734,7.9939,7.8661,7.86,7.8546,7.8469,7.8408,7.8931,7.9284,7.7788,7.7922,7.8283,7.741,7.8118,7.8771,7.7707,7.849,7.9135,7.7829,7.8166,7.869,7.8471,7.8601,7.8829,7.914,7.9358,7.9029,7.7653,7.7125,7.6442,7.5145,7.4195,7.3573,7.3461,7.2987,7.2642,7.2496,7.334,7.3891,7.3891,7.386,7.3754,7.3609,7.2208,7.1048,7.0252,6.8673,6.8274,6.9082,6.8141,6.7774,6.7884,6.7774,6.7774,5.8829,5.96,5.9893,5.851,5.818,5.8217,5.8327,5.818,5.8033,5.8143,5.9281,6.0664,6.2169,6.3783,6.5448,0.0,0.0,0.0,0.0,0.0,0.0,0.0,0.0,0.0,0.0,0.0,0.0,0.0,0.0,0.0,0.0,0.0,0.0,7.7509,7.7362,7.7289,7.7289,7.7846,7.8132,7.8146,7.8678,7.8653,7.8159,7.8691,7.8301,0.0,0.0,0.0,7.8339,7.9046,7.9632,8.0125,8.0201,8.0526,8.0967,8.1069,8.1015,8.0852,8.0223,7.9815,7.953,7.9,7.868,7.8416,7.7873,7.8181,7.8354,7.6709,7.7316,7.8646,7.9166,7.9481,7.979,8.0309,8.063,8.0579,7.9806,8.0192,8.0362,7.9267,7.9936,8.0362,7.9369,8.0086,8.037,7.9056,7.8247,7.7518,7.6825,7.5509,7.4433,7.3748,7.3559,7.323,7.2569,7.3839,7.472,7.472,7.4547,7.4039,7.3139,7.2433,7.1689,7.0871,6.9442,6.9119,6.9926,6.8435,6.8054,6.8715,6.8031,6.8068,5.7691,5.8168,5.8499,5.8609,5.8988,5.9171,5.8767,5.8327,5.8107,5.8547,5.9233,6.0517,6.3025,0.0,6.7026,7.0417,0.0,0.0,0.0,0.0,0.0,0.0,0.0,0.0,0.0,0.0,0.0,0.0,0.0,0.0,0.0,0.0,0.0,0.0,7.7415,7.7647,7.7217,7.8141,7.8512,7.8309,7.8563,7.8741,7.8779,7.8341,7.8063,0.0,0.0,7.8575,7.8363,7.8938,7.9291,7.9429,7.9429,7.935,7.9194,7.9194,7.9701,8.0323,7.9931,7.9815,7.9707,7.9101,7.8528,7.7861,7.6804,7.7217,7.7803,7.656,7.7652,7.9208,7.9131,7.9785,8.0491,8.0558,8.0573,8.0296,7.9324,7.9384,7.9418,7.8829,7.9201,7.9507,7.9244,7.9691,7.9858,7.929,7.8481,7.785,7.759,7.6282,7.5079,7.4265,7.4284,7.4037,7.323,7.4625,7.5542,7.5542,7.5056,7.4357,7.3401,7.2299,7.1756,7.183,7.0326,6.9926,7.077,6.9559,6.9192,6.9522,6.9155,6.9192,5.6602,5.6921,5.7373,5.8609,5.938,5.9832,5.9783,5.9281,5.9134,6.015,6.0517,6.1435,6.4163,6.6292,0.0,7.3061,0.0,0.0,0.0,0.0,0.0,0.0,0.0,0.0,0.0,0.0,0.0,0.0,0.0,0.0,0.0,0.0,0.0,0.0,7.7282,0.0,7.6795,7.7846,7.8507,7.8716,7.8678,7.8942,7.938,7.8407,7.809,7.8322,7.8614,7.8628,7.8538,7.8937,7.9039,7.8876,7.8685,7.8398,7.8108,7.8108,7.8841,7.9815,7.9815,7.9815,7.9707,7.9101,7.8569,7.7939,7.6431,7.7006,7.7953,7.6912,7.8308,7.99,7.9015,7.9785,8.0706,8.0425,8.0333,8.0046,7.8963,7.8841,7.8866,7.8588,7.8615,7.8829,7.914,7.9198,7.9198,7.9198,7.8621,7.8137,7.8022,7.7054,7.6019,7.5041,7.507,7.4918,7.4294,7.5395,7.6166,7.6387,7.5412,7.4628,7.4159,7.2627,7.2088,7.2692,7.1199,7.077,7.1564,7.0587,7.0183,7.0367,7.0183,7.0183,5.6602,5.7336,5.7923,5.807,5.8143,5.8731,6.0933,6.1386,6.179,6.3392,6.4347,0.0,0.0,6.8848,7.1564,7.3377,0.0,0.0,0.0,0.0,0.0,0.0,0.0,0.0,0.0,0.0,0.0,0.0,0.0,0.0,0.0,0.0,0.0,0.0,0.0,0.0,7.5898,7.6545,7.7901,7.9969,7.9786,7.9824,8.0018,7.9939,7.9313,7.8339,7.948,7.9642,7.9111,7.8963,7.8904,7.8828,7.8094,7.8547,7.9661,7.9661,7.9715,7.9815,7.9815,7.9815,7.9707,7.9101,7.9245,7.939,7.7882,7.85,7.9315,7.7708,7.9077,8.0823,7.9939,7.9815,8.0077,8.0861,8.1045,8.0838,8.0125,8.0454,8.0546,7.9358,7.9578,7.9816,7.929,7.9198,7.9198,7.9198,7.916,7.8911,7.8357,7.8187,7.7566,7.6147,7.6013,7.5983,7.5946,7.6019,7.6423,7.7179,7.5588,7.4848,7.5332,7.3988,7.3291,7.3328,7.1927,7.16,7.2422,7.0844,7.0477,7.1197,7.044,7.0513,5.5097,5.5904,5.676,5.774,5.7997,5.8621,6.1055,6.1998,6.2952,6.5154,6.6219,0.0,0.0,0.0,7.2555,0.0,0.0,0.0,0.0,0.0,0.0,0.0,0.0,0.0,0.0,0.0,0.0,0.0,0.0,0.0,0.0,0.0,0.0,0.0,0.0,0.0,0.0,7.5657,7.6834,7.8609,7.9023,7.9203,7.9097,7.8851,7.8221,7.7326,7.7384,7.7092,7.6517,7.6461,7.6561,7.6776,7.6679,7.6962,7.7438,7.7438,7.7784,7.8246,7.8246,7.8554,7.8869,7.829,7.7919,7.7494,7.6592,7.7303,7.8356,7.7743,7.9248,8.09,8.0015,8.0208,8.0599,8.0514,8.0481,8.0306,7.9701,7.9744,7.9775,7.929,7.9392,7.9469,7.9244,7.9198,7.9335,7.9685,7.9117,7.8691,7.8853,7.8187,7.7268,7.6197,7.6093,7.6313,7.6812,7.6848,7.6995,7.7289,7.572,7.4913,7.5112,7.3659,7.2844,7.2844,7.2307,7.2202,7.2496,7.1908,7.1762,7.2041,7.1725,7.1762,5.4252,5.517,5.6235,5.7336,5.818,5.9465,6.2144,6.3196,6.4444,6.7393,6.8238,6.8802,6.9889,0.0,0.0,0.0,0.0,0.0,0.0,0.0,0.0,0.0,0.0,0.0,0.0,0.0,0.0,0.0,0.0,0.0,0.0,0.0,0.0,0.0,0.0,0.0,0.0,7.4617,7.5343,7.6345,7.7344,7.795,7.8226,7.7766,7.7236,7.6674,7.6291,7.5993,7.5721,7.5284,7.5197,7.5387,7.5625,7.5987,7.6399,7.6399,7.6784,7.7292,7.7292,7.7676,7.8054,7.7624,7.73,7.695,7.6284,7.7122,7.8312,7.8044,7.9454,8.0977,8.0362,8.0669,8.0983,8.0517,8.0436,8.0306,7.9878,7.9796,7.9744,7.9524,7.948,7.9425,7.9233,7.9198,7.9403,7.9998,7.9392,7.8963,7.9175,7.8447,7.7524,7.6579,7.6497,7.6702,7.7252,7.7289,7.7289,7.7289,7.5784,7.4903,7.4903,7.3325,7.2496,7.2496,7.2496,7.2496,7.2496,7.2496,7.2496,7.2496,7.2496,7.2496,5.4399,5.5574,5.6774,5.6811,5.8621,6.1263,6.4554,6.5288,6.6463,7.0499,7.0697,7.011,7.011,0.0,0.0,0.0,0.0,0.0,0.0,0.0,0.0,0.0,0.0,0.0,0.0,0.0,0.0,0.0,0.0,0.0,0.0,0.0,0.0,0.0,0.0,0.0,0.0,7.3404,7.3404,7.3417,7.4778,7.6249,7.7646,7.7061,7.6741,7.6659,7.6741,7.7055,7.7456,7.6051,7.5311,7.5091,7.51,7.5999,7.7284,7.7284,7.7284,7.7284,7.7284,7.7284,7.7284,7.7284,7.7823,7.833,7.7522,7.8438,7.9592,7.8715,7.9746,8.1093,8.1093,8.1093,8.1093,8.1093,8.1093,8.1093,8.1093,8.1093,8.0888,8.022,8.0125,7.9919,7.9324,7.9221,7.9425,8.0008,8.0115,7.9888,7.9279,7.9198,7.8704,7.7435,7.7289,7.7289,7.7289,7.7289,7.7326,7.7304,7.5799,7.4918,7.4903,7.3325,7.2496,7.2496,7.2496,7.2496,7.2496,7.2496,7.2496,7.2496,7.2496,7.2496,5.3849,5.4315,5.539,5.6517,5.8205,6.0554,6.4407,6.6182,6.8128,7.2165,7.1908,7.1123,7.1688,0.0,0.0,0.0,0.0,0.0,0.0,0.0,0.0,0.0,0.0,0.0,0.0,0.0,0.0,0.0,0.0,0.0,0.0,0.0,0.0,0.0,0.0,0.0,0.0,0.0,7.2522,7.2559,7.2918,7.3868,7.5315,7.5723,7.5336,7.4373,7.4386,7.4275,7.4022,7.4001,7.397,7.3989,7.479,7.538,7.5804,7.6225,7.6109,7.5731,7.5731,7.5731,7.5731,7.5731,7.6207,7.6707,7.6476,7.7169,7.7977,7.7715,7.8861,8.0208,8.0208,8.0631,8.1093,8.1093,8.1093,8.1093,8.1093,8.1093,8.1053,8.0847,8.0783,8.0741,8.0573,8.0546,8.0591,8.0767,8.0389,7.9888,7.9279,7.9198,7.8877,7.8077,7.8016,7.8016,7.8016,7.7585,7.7695,7.8602,7.7239,7.5976,7.4933,7.3325,7.2496,7.2496,7.2496,7.2496,7.2496,7.2496,7.2496,7.2496,7.2496,7.2496,5.4719,5.5207,5.6235,5.7838,5.971,6.2022,6.5485,6.7981,0.0,0.0,7.2422,7.1564,0.0,0.0,0.0,0.0,0.0,0.0,0.0,0.0,0.0,0.0,0.0,0.0,0.0,0.0,0.0,0.0,0.0,0.0,0.0,0.0,0.0,0.0,0.0,0.0,0.0,0.0,0.0,7.1665,7.1426,7.1775,7.2681,7.3802,7.3989,7.3417,7.3638,7.3417,7.2889,7.3516,7.3747,7.3829,7.4509,7.4799,7.4837,7.5174,7.5092,7.4799,7.4799,7.4933,7.51,7.51,7.5526,7.6015,7.6015,7.6592,7.7292,7.7292,7.8515,7.9815,7.9815,8.0439,8.1093,8.1093,8.1093,8.1093,8.1093,8.1093,8.1093,8.1093,8.1093,8.1093,8.1093,8.1093,8.1093,8.1093,8.0517,7.9969,7.96,7.9347,7.9058,7.8691,7.8653,7.8653,7.8653,7.8299,7.8381,7.9152,7.7904,7.6547,7.5337,7.4067,7.3116,7.2496,7.2496,7.2496,7.2496,7.2496,7.2496,7.2496,7.2496,7.2496,5.6407,5.7409,5.84,6.0089,6.2475,6.5057,6.7407,7.022,7.2606,7.334,0.0,7.1674,0.0,0.0,0.0,0.0,0.0,0.0,0.0,0.0,0.0,0.0,0.0,0.0,0.0,0.0,0.0,0.0,0.0,0.0,0.0,0.0,0.0,0.0,0.0,0.0,0.0,0.0,0.0,0.0,7.0296,7.0032,7.0036,7.1651,7.2729,7.3341,7.39,7.378,7.3242,7.3799,7.3988,7.3924,7.4044,7.4103,7.4114,7.4158,7.4185,7.4217,7.4141,7.4513,7.5036,7.5036,7.5455,7.6015,7.6015,7.6553,7.7176,7.7176,7.84,7.9662,7.9585,8.0285,8.0977,8.0977,8.1054,8.1093,8.1093,8.1093,8.1093,8.1093,8.1093,8.1093,8.1093,8.1093,8.1093,8.1093,8.0591,8.0182,8.0182,7.9695,7.9347,7.929,7.929,7.929,7.929,7.9233,7.9256,7.9358,7.8066,7.695,7.6129,7.5155,7.3956,7.2547,7.2496,7.2496,7.2496,7.2496,7.2496,7.2496,7.2496,7.2496,5.6701,5.7409,5.8547,6.0786,6.4176,6.7407,6.9155,7.0624,7.16,7.1784,7.2041,0.0,0.0,0.0,0.0,0.0,0.0,0.0,0.0,0.0,0.0,0.0,0.0,0.0,0.0,0.0,0.0,0.0,0.0,0.0,0.0,0.0,0.0,0.0,0.0,0.0,7.1144,7.0843,7.0442,0.0,6.9843,6.9577,6.9229,7.083,7.1957,7.2714,7.283,7.2447,7.1757,7.187,7.1582,7.1131,7.2224,7.2655,7.2715,7.3122,7.3402,7.3503,7.2868,7.344,7.4485,7.4485,7.5147,7.6015,7.6015,7.613,7.6284,7.6284,7.7476,7.8638,7.7984,7.8938,8.0092,8.0092,8.0592,8.1093,8.1093,8.1093,8.1093,8.1093,8.1093,8.1093,8.1093,8.1093,8.1093,8.1093,8.0975,8.088,8.088,8.0758,8.0481,7.9959,7.9908,7.9908,7.9908,7.9469,7.9637,8.0617,7.9459,7.837,7.7591,7.5193,7.3491,7.2532,7.2496,7.2496,7.2496,7.2496,7.2496,7.2496,7.2496,7.2496,5.6701,5.7948,5.9905,6.3135,6.5828,6.7921,6.8765,6.9559,7.0132,7.0132,0.0,0.0,0.0,0.0,0.0,0.0,0.0,0.0,0.0,0.0,0.0,0.0,0.0,0.0,0.0,0.0,0.0,0.0,0.0,0.0,0.0,0.0,0.0,0.0,7.0784,7.0771,7.0312,6.9927,6.9529,6.9132,6.8865,6.8817,6.8921,7.0183,7.1174,7.1894,7.1505,7.1101,7.0734,7.0734,7.0477,7.0151,7.0914,7.1207,7.1209,7.1504,7.1949,7.2394,7.2248,7.3119,7.4336,7.4619,7.5292,7.6015,7.6015,7.6015,7.6015,7.6015,7.6938,7.783,7.7407,7.8246,7.9285,7.97,8.0169,8.0592,8.1016,8.1093,8.1093,8.1093,8.1093,8.1093,8.1093,8.1093,8.1093,8.1093,8.0838,8.0617,8.0617,8.0381,8.0192,8.0115,7.9847,7.9806,8.0096,7.9546,7.9469,8.0163,7.9316,7.8404,7.7603,7.5824,7.4294,7.3083,7.3083,7.2899,7.2496,7.2496,7.2496,7.2496,7.2496,7.2496,5.6554,5.8756,6.1741,6.5558,6.7113,6.7737,6.7884,6.8421,6.8935,6.9082,0.0,0.0,0.0,0.0,0.0,0.0,0.0,0.0,0.0,0.0,0.0,0.0,0.0,0.0,0.0,0.0,0.0,0.0,0.0,0.0,0.0,0.0,6.9731,7.0413,7.0523,7.0162,6.9293,6.8847,6.8441,6.8064,6.7788,6.816,6.9173,6.962,7.0294,7.105,7.0403,7.0,6.9889,6.9889,6.9862,6.9861,6.9971,7.0076,7.0183,7.0344,7.0884,7.1666,7.215,7.3212,7.4379,7.4837,7.537,7.5826,7.571,7.5826,7.6,7.6048,7.6655,7.7292,7.7292,7.7907,7.8677,7.94,7.9607,7.9921,8.0885,8.0999,8.0967,8.1077,8.0991,8.0943,8.0943,8.0847,8.0758,8.0758,8.0296,7.9939,7.9939,7.9589,7.9546,8.0028,7.9642,7.9556,8.0038,7.9546,7.9198,7.9198,7.8628,7.8011,7.733,7.6669,7.5616,7.4147,7.3964,7.3597,7.2885,7.2789,7.2716,7.2716,7.2569,7.2496,5.637,5.9563,6.3123,6.5815,6.7113,6.7884,6.8568,0.0,6.9119,0.0,0.0,0.0,0.0,0.0,0.0,0.0,0.0,0.0,0.0,0.0,0.0,0.0,0.0,0.0,0.0,0.0,0.0,0.0,0.0,0.0,0.0,6.8031,6.8031,6.8141,6.8593,6.8436,6.7617,6.7535,6.7137,6.6422,6.7063,6.8364,7.0256,6.9188,6.9282,7.0257,7.0146,6.9706,6.9082,6.9082,6.8928,6.8789,6.9496,7.0042,7.053,7.1277,7.2093,7.2797,7.287,7.3522,7.4304,7.439,7.4789,7.5118,7.467,7.523,7.6056,7.6297,7.6818,7.7292,7.7292,7.7907,7.8523,7.8638,7.885,7.9385,8.0783,8.0634,8.0427,8.0983,8.0626,8.022,8.022,7.9806,7.9447,7.9447,7.938,7.9324,7.9324,7.9695,7.9998,8.0067,8.0018,7.9998,8.0067,7.9546,7.9198,7.9198,7.8628,7.8234,7.8123,7.7503,7.6702,7.5799,7.5102,7.4683,7.4573,7.3891,7.3523,7.3523,7.2826,7.2496,5.8143,6.0114,6.2279,6.5668,6.6769,6.726,6.8017,6.8238,6.8311,0.0,0.0,0.0,0.0,0.0,0.0,0.0,0.0,0.0,0.0,0.0,0.0,0.0,0.0,0.0,0.0,0.0,0.0,0.0,0.0,0.0,6.7026,6.7268,6.7293,6.704,6.7086,0.0,6.6864,6.6648,6.6545,6.6495,6.685,6.7737,6.9056,6.8017,6.839,6.9838,6.9074,6.8531,6.8238,6.8238,6.8168,6.8084,6.8453,6.8741,6.8999,6.9346,7.0301,7.1417,7.1766,7.2719,7.3911,7.453,7.4682,7.474,7.512,7.5362,7.5603,7.6035,7.6379,7.6669,7.7176,7.7561,7.8061,7.9015,7.9067,7.919,8.029,8.0056,7.9663,7.9987,7.9796,7.9589,7.9589,7.938,7.9198,7.9198,7.8901,7.8691,7.8691,7.8615,7.8803,7.9513,7.8962,7.8828,7.9535,7.8691,7.8136,7.8136,7.7889,7.7739,7.7739,7.7472,7.7142,7.6775,7.5968,7.5139,7.4221,7.3854,7.345,7.301,7.2679,7.2496,5.8437,5.9465,6.0676,6.4347,6.5558,6.6145,6.715,0.0,6.7136,0.0,0.0,0.0,0.0,0.0,0.0,0.0,0.0,0.0,0.0,0.0,0.0,0.0,0.0,0.0,0.0,0.0,0.0,0.0,0.0,0.0,6.6219,6.6519,6.6569,6.6195,6.5952,6.5902,6.6072,6.5763,6.598,6.6711,6.6711,6.7202,6.8089,6.7212,6.7587,6.8895,6.7901,6.7405,6.7288,6.7288,6.7399,6.7596,6.7596,6.781,6.811,6.8345,6.9344,7.063,7.1291,7.2359,7.3565,7.4571,7.4639,7.4432,7.512,7.5227,7.5165,7.5539,7.5888,7.6248,7.6901,7.7478,7.8146,7.9028,7.9111,7.9087,7.955,7.9414,7.9152,7.8998,7.9093,7.9198,7.9198,7.9198,7.9198,7.9198,7.8829,7.8536,7.8536,7.8104,7.815,7.9105,7.8218,7.7923,7.8877,7.7937,7.7289,7.7289,7.7289,7.7289,7.7289,7.7289,7.7289,7.7289,7.6702,7.5726,7.4294,7.4111,7.3597,7.2789,7.2606,7.2496,5.5401,5.698,5.8731,6.1227,6.3038,6.4653,0.0,0.0,0.0,0.0,0.0,0.0,0.0,0.0,0.0,0.0,0.0,0.0,0.0,0.0,0.0,0.0,0.0,0.0,0.0,0.0,0.0,0.0,0.0,0.0,6.5362,6.54,6.54,6.5362,6.5364,6.5189,6.4904,6.4632,6.5158,6.6401,6.6401,6.711,6.8349,6.7288,6.684,6.6962,6.6864,6.6555,6.6095,6.6095,6.6591,6.731,6.731,6.8111,6.9334,7.0156,7.0986,7.1842,7.2628,7.3137,7.3516,7.4139,7.4315,7.4206,7.3687,7.4288,7.5019,7.4765,7.5502,7.6395,7.6433,7.8067,7.9337,7.8052,7.8487,7.9044,7.8523,7.8829,7.9022,7.8458,7.8816,7.9198,7.9198,7.9198,7.9198,7.9198,7.9175,7.9152,7.9152,7.9128,7.9128,7.9198,7.8615,7.8282,7.8349,7.7695,7.7289,7.7289,7.7289,7.7289,7.7289,7.7289,7.7289,7.7289,7.7252,7.6812,7.5983,7.5197,7.4441,7.3611,7.2863,7.2496,5.4887,5.5658,5.6528,5.9979,6.1263,6.2291,6.4457,6.4751,0.0,0.0,0.0,0.0,0.0,0.0,0.0,0.0,0.0,0.0,0.0,0.0,0.0,0.0,0.0,0.0,0.0,0.0,0.0,0.0,0.0,0.0,6.453,6.4807,6.4844,6.4543,6.4665,6.481,6.4979,6.49,6.4977,6.5245,6.582,6.6318,6.6776,6.6394,6.6491,6.6942,6.6083,6.5635,6.5571,6.5868,6.6317,6.6814,6.7131,6.7674,6.8358,6.9212,7.0028,7.0871,7.2083,7.2893,7.3553,7.4509,7.494,7.5054,7.5057,7.5483,7.5853,7.5588,7.553,7.5897,7.7385,7.7667,7.775,7.8294,7.8824,7.914,7.8914,7.8394,7.7909,7.7695,7.8187,7.8615,7.8615,7.8926,7.9198,7.9198,7.9198,7.9198,7.9198,7.884,7.8779,7.9163,7.8285,7.7817,7.8268,7.768,7.7289,7.7289,7.7289,7.7289,7.7289,7.7289,7.7289,7.7289,7.7289,7.6885,7.6093,7.5799,7.5249,7.4478,7.4169,7.378,5.3749,5.4216,5.4913,5.8657,5.9391,5.9979,6.2989,0.0,0.0,0.0,0.0,0.0,0.0,0.0,0.0,0.0,0.0,0.0,0.0,0.0,0.0,0.0,0.0,0.0,0.0,0.0,0.0,0.0,0.0,0.0,6.3649,6.3945,6.387,6.3271,6.3738,6.3969,6.4013,6.4329,6.4392,6.4166,6.5051,6.5378,6.5227,6.5496,6.5848,6.6139,6.5248,6.4925,6.502,6.5306,6.5835,6.6395,6.6673,6.7295,6.8017,6.8369,6.9121,7.0138,7.1355,7.2421,7.3478,7.4714,7.5101,7.5166,7.5596,7.5692,7.5637,7.5471,7.5483,7.5821,7.7057,7.6858,7.6874,7.8819,7.9014,7.8847,7.9123,7.8392,7.7695,7.788,7.8447,7.8915,7.8915,7.9403,7.9827,7.9827,7.9827,7.9827,7.9827,7.9093,7.8766,7.9163,7.8039,7.7465,7.7917,7.7555,7.7289,7.7289,7.7289,7.7289,7.7289,7.7289,7.7289,7.7289,7.7289,7.7032,7.6481,7.624,7.5689,7.4903,7.4903,7.461,0.0,0.0,0.0,5.7042,5.7262,5.7728,6.1765,0.0,0.0,0.0,0.0,0.0,0.0,0.0,0.0,0.0,0.0,0.0,0.0,0.0,0.0,0.0,0.0,0.0,0.0,0.0,0.0,0.0,0.0,6.2793,6.2793,6.2793,6.2401,6.163,6.2531,6.27,6.1935,6.2856,6.3275,6.3275,6.416,6.4286,6.3787,6.4679,6.4833,6.4379,6.4379,6.4379,6.4379,6.4436,6.5113,6.6083,6.6086,6.7081,6.8426,6.798,6.8614,6.9815,7.0732,7.1906,7.3198,7.4647,7.4751,7.4453,7.4971,7.4779,7.4385,7.4347,7.5337,7.6168,7.5367,7.5777,7.7026,7.9486,7.8997,7.8191,7.9056,7.8791,7.8536,7.9093,7.9674,8.0115,8.0115,8.0643,8.1093,8.1093,8.1085,8.1077,8.1077,7.9967,7.9175,7.9175,7.8063,7.7289,7.7289,7.7289,7.7289,7.7289,7.7289,7.7289,7.7289,7.7289,7.7289,7.7289,7.7289,7.7289,7.7289,7.6533,7.5726,7.4977,7.494,7.494,5.0729,0.0,0.0,0.0,0.0,0.0,5.8547,5.8352,5.8462,0.0,0.0,0.0,0.0,0.0,0.0,0.0,0.0,0.0,0.0,0.0,0.0,0.0,0.0,0.0,0.0,0.0,0.0,0.0,6.2793,6.2793,6.2793,6.2254,6.1737,6.1307,6.1917,6.2304,6.2419,6.2987,6.3006,6.2441,6.3281,6.3397,6.294,6.3795,6.4255,6.4379,6.4379,6.4379,6.4483,6.544,6.5782,6.5871,6.743,6.8062,6.8253,6.9341,6.9714,6.9946,7.1584,7.215,7.2412,7.4227,7.5156,7.5543,7.5702,7.6076,7.6331,7.5709,7.5489,7.5557,7.5939,7.7411,7.9026,7.9717,7.9665,7.9702,8.0416,8.0056,7.9513,7.9256,7.9674,8.0115,8.0115,8.0643,8.1093,8.1093,8.0707,8.037,8.037,7.929,7.8562,7.8562,7.7789,7.7289,7.7289,7.7289,7.7289,7.7289,7.7289,7.7289,7.7289,7.7289,7.7289,7.7289,7.7289,7.7289,7.7289,7.7069,7.6848,7.6628,7.6041,7.5763,0.0,0.0,0.0,0.0,0.0,0.0,5.6345,5.6381,5.6748,0.0,0.0,0.0,0.0,0.0,0.0,0.0,0.0,0.0,0.0,0.0,0.0,0.0,0.0,0.0,0.0,0.0,0.0,0.0,6.2793,6.2793,6.2793,6.2034,6.137,6.0889,6.0985,6.1128,6.1267,6.1743,6.1844,6.1556,6.2183,6.2257,6.1796,6.2997,6.3629,6.3869,6.4447,6.4829,6.5095,6.6223,6.6602,6.6554,6.7804,6.8552,6.8963,6.9723,6.9957,7.0091,7.1577,7.2025,7.2289,7.4098,7.4896,7.5218,7.5809,7.6171,7.6338,7.6086,7.5733,7.5731,7.6956,7.799,7.9015,8.0092,8.0161,8.0195,8.0922,8.0775,8.0427,8.0056,8.0277,8.0445,8.0154,8.0436,8.0599,8.0362,7.9959,7.9706,7.9706,7.8902,7.8309,7.8309,7.7695,7.7289,7.7289,7.7289,7.7289,7.7289,7.7289,7.7289,7.7289,7.7289,7.7289,7.7289,7.7289,7.7289,7.7289,7.7289,7.7289,7.7289,7.6481,7.6276,0.0,0.0,0.0,0.0,0.0,0.0,5.4814,5.4766,5.495,0.0,0.0,0.0,0.0,0.0,0.0,0.0,0.0,0.0,0.0,0.0,0.0,0.0,0.0,0.0,0.0,0.0,6.2756,6.2683,6.2572,6.2499,6.2426,6.1704,6.097,6.0162,5.9939,5.969,5.931,5.9893,6.0331,6.0634,6.1062,6.1009,6.0555,6.2116,6.2851,6.2946,6.4372,6.5235,6.5731,6.6615,6.7139,6.7429,6.7635,6.8597,6.9853,6.9465,6.9662,7.0226,7.107,7.1696,7.2388,7.4038,7.4304,7.4257,7.5603,7.5646,7.5306,7.5841,7.6053,7.6515,7.8099,7.8061,7.8176,8.0554,8.0516,8.0169,8.0939,8.1093,8.1093,8.1093,8.1093,8.0896,8.0315,8.0154,7.9919,7.938,7.9187,7.9093,7.9093,7.8551,7.8187,7.8187,7.7636,7.7289,7.7289,7.7289,7.7289,7.7289,7.7289,7.7289,7.7289,7.7289,7.7289,7.7289,7.7289,7.7289,7.7289,7.7289,7.7289,7.7289,7.657,7.6518,0.0,0.0,0.0,0.0,0.0,0.0,5.3398,5.3544,5.4132,0.0,0.0,0.0,0.0,0.0,0.0,0.0,0.0,0.0,0.0,0.0,0.0,0.0,0.0,0.0,0.0,0.0,6.2536,6.1887,6.1227,6.0591,5.993,5.9747,5.9306,5.8474,5.9142,5.9299,5.8835,6.0067,6.0331,5.9696,6.0152,6.0231,6.0048,6.0764,6.1262,6.1593,6.3301,6.4108,6.432,6.5595,6.6167,6.6376,6.7714,6.8437,6.8814,6.9395,6.9827,7.0192,7.0799,7.1245,7.1814,7.3259,7.411,7.4719,7.5685,7.5924,7.5841,7.5954,7.6515,7.7292,7.8253,7.89,7.9631,8.0823,8.0977,8.09,8.1054,8.1093,8.1093,8.1093,8.1093,8.1069,8.0943,8.0463,8.0048,7.9939,7.9093,7.8471,7.8471,7.7903,7.748,7.748,7.7381,7.7289,7.7289,7.7289,7.7289,7.7289,7.7289,7.7289,7.7289,7.7289,7.7289,7.7289,7.7289,7.7289,7.7289,7.7289,7.7289,7.7289,7.7142,7.6445,0.0,0.0,0.0,4.949,0.0,0.0,0.0,5.2003,5.2553,5.4572,0.0,0.0,0.0,0.0,0.0,0.0,0.0,0.0,0.0,0.0,0.0,0.0,0.0,0.0,0.0,0.0,6.2561,6.1985,6.1195,6.0566,6.0159,5.979,5.9249,5.8621,5.8879,5.9065,5.9065,5.9768,5.9969,5.976,5.9501,5.9492,5.9646,6.0087,6.0605,6.1331,6.2615,6.3328,6.3643,6.4789,6.5243,6.5436,6.709,6.8013,6.8507,6.9398,6.9781,6.9988,7.0682,7.1279,7.1912,7.2604,7.3707,7.4776,7.5207,7.5668,7.6015,7.6015,7.6322,7.6938,7.8176,7.883,7.9477,8.0785,8.1093,8.1093,8.1093,8.1093,8.1093,8.1093,8.1093,8.0983,8.0643,8.0324,7.9898,7.929,7.8678,7.8173,7.7832,7.751,7.7289,7.7289,7.7289,7.7289,7.7289,7.7289,7.7289,7.7289,7.7289,7.7289,7.7289,7.7289,7.7289,7.7289,7.7289,7.7289,7.7289,7.7289,7.7289,7.7289,7.6481,7.5894,0.0,0.0,0.0,0.0,0.0,5.0335,0.0,0.0,0.0,5.248,0.0,0.0,0.0,0.0,0.0,0.0,0.0,0.0,0.0,0.0,0.0,0.0,0.0,0.0,0.0,0.0,6.2229,6.1938,6.1114,6.0614,6.0508,5.9971,5.9435,5.8988,5.8784,5.8835,5.9112,5.9302,5.9492,5.9712,5.9037,5.8845,5.9149,5.9586,6.0246,6.1088,6.2085,6.2703,6.316,6.4052,6.4526,6.4743,6.6282,6.7398,6.8276,6.9122,6.9552,6.9821,7.0629,7.1475,7.2213,7.2213,7.3322,7.4738,7.4892,7.5438,7.6015,7.6015,7.613,7.6553,7.7907,7.8308,7.873,8.0231,8.0653,8.069,8.0808,8.0977,8.1093,8.1093,8.1093,8.088,8.0201,7.9998,7.9546,7.8458,7.8187,7.796,7.7555,7.748,7.748,7.748,7.748,7.7457,7.7304,7.7289,7.7289,7.7289,7.7289,7.7289,7.7289,7.7289,7.7289,7.7289,7.7289,7.7289,7.7289,7.7289,7.7289,7.7289,7.5968,7.5652,0.0,0.0,0.0,0.0,5.1206,0.0,0.0,0.0,5.0839,5.1012,0.0,0.0,0.0,0.0,0.0,0.0,0.0,0.0,0.0,0.0,0.0,0.0,0.0,0.0,0.0,0.0,0.0,6.0625,5.961,5.8794,5.8354,5.8667,5.8604,5.8166,5.8498,5.8545,5.8175,5.8999,5.9028,5.8238,5.8539,5.8524,5.8198,5.9046,5.9523,5.9715,6.143,6.2174,6.2302,6.343,6.4183,6.4705,6.5667,6.6519,6.7359,6.8237,6.9045,6.9821,7.0629,7.1475,7.2213,7.2213,7.3322,7.4853,7.563,7.5938,7.6015,7.6015,7.6553,7.7215,7.7407,7.7593,7.797,7.8631,7.8973,7.9289,7.9822,8.0554,8.1093,8.1093,8.1093,8.088,8.0201,7.9642,7.9069,7.8392,7.7811,7.7614,7.8104,7.8173,7.8173,7.8173,7.8173,7.7946,7.735,7.7289,7.7289,7.7289,7.7289,7.7289,7.7289,7.7289,7.7289,7.7289,7.7289,7.7289,7.7289,7.7289,7.7289,7.7289,7.7105,7.6702,0.0,0.0,0.0,0.0,0.0,0.0,0.0,0.0,4.9481,0.0,0.0,0.0,0.0,0.0,0.0,0.0,0.0,0.0,0.0,0.0,0.0,0.0,0.0,0.0,0.0,0.0,0.0,0.0,0.0,5.8611,5.8418,5.8591,5.8503,5.802,5.8461,5.8601,5.8407,5.8786,5.8786,5.8407,5.8348,5.8311,5.8418,5.8806,5.913,5.9453,6.0211,6.0517,6.0616,6.1584,6.2566,6.3525,6.4412,6.5426,6.6551,6.7891,6.8622,6.9122,7.0437,7.1475,7.2367,7.3322,7.3822,7.4238,7.5592,7.6015,7.6015,7.6015,7.6245,7.6784,7.7753,7.7738,7.767,7.8522,7.8479,7.8378,7.9112,7.9275,7.9658,8.0882,8.0775,8.0445,8.0154,7.9898,7.9513,7.8901,7.8589,7.8512,7.8804,7.8841,7.8841,7.8841,7.851,7.8173,7.7889,7.7525,7.7289,7.7289,7.7289,7.7289,7.7289,7.7289,7.7289,7.7289,7.7289,7.7289,7.7289,7.7289,7.7289,7.7289,7.6812,7.6423,5.0692,0.0,0.0,0.0,0.0,0.0,0.0,0.0,0.0,0.0,0.0,0.0,0.0,0.0,0.0,0.0,0.0,0.0,0.0,0.0,0.0,0.0,0.0,0.0,0.0,0.0,0.0,0.0,5.8733,0.0,5.82,5.8297,5.828,5.802,5.8348,5.8524,5.8524,5.8524,5.8524,5.8487,5.8175,5.8198,5.8497,5.8642,5.8894,5.9203,5.9337,5.9389,5.9456,6.017,6.1308,6.2666,6.3396,6.4587,6.609,6.7776,6.8391,6.8622,7.0321,7.1321,7.2129,7.3815,7.3815,7.3514,7.5438,7.5822,7.5707,7.5938,7.6015,7.6284,7.7484,7.7247,7.6922,7.7879,7.7588,7.735,7.8323,7.84,7.8777,8.0481,8.0591,8.0324,8.0144,8.0115,7.9898,7.929,7.9198,7.9267,7.9425,7.9447,7.9447,7.9447,7.8927,7.8484,7.8322,7.768,7.7289,7.7289,7.7289,7.7289,7.7289,7.7289,7.7289,7.7289,7.7289,7.7289,7.7289,7.7289,7.7289,7.7289,7.6702,7.6423,0.0,0.0,0.0,0.0,0.0,0.0,0.0,0.0,4.9574,0.0,0.0,0.0,0.0,0.0,0.0,0.0,0.0,0.0,0.0,0.0,0.0,0.0,0.0,0.0,0.0,0.0,0.0,0.0,5.7746,0.0,5.6878,5.7274,5.7687,5.7983,5.802,5.8031,5.8031,5.8031,5.8031,5.8031,5.8008,5.8008,5.8054,5.8503,5.8723,5.8736,5.9194,5.9389,5.943,5.9791,6.0989,6.2635,6.2971,6.4257,6.609,6.7776,6.8391,6.8622,7.0321,7.0937,7.1245,7.2969,7.2937,7.2713,7.5245,7.5399,7.4938,7.5745,7.6015,7.6015,7.6053,7.5644,7.531,7.5949,7.5844,7.5933,7.7341,7.8294,7.9114,7.9991,8.0634,8.0863,8.0201,8.0115,7.9898,7.929,7.9198,7.9414,7.9989,8.0057,8.0057,8.0057,7.9524,7.8926,7.8363,7.768,7.7289,7.7289,7.7289,7.7289,7.7289,7.7289,7.7289,7.7289,7.7289,7.7289,7.7289,7.7289,7.7289,7.7289,7.7289,7.7252,0.0,0.0,4.9958,5.0004,0.0,0.0,0.0,0.0,0.0,0.0,0.0,0.0,0.0,0.0,0.0,0.0,0.0,0.0,0.0,0.0,0.0,0.0,0.0,0.0,0.0,0.0,0.0,5.6393,5.5807,5.5607,0.0,5.6643,5.7096,5.7189,5.7703,5.7997,5.7997,5.7997,5.7997,5.7997,5.7997,5.7997,5.8008,5.8175,5.8227,5.8238,5.8397,5.8482,5.8471,5.86,5.9525,6.0952,6.1937,6.325,6.4903,6.7465,6.8391,6.8622,7.0321,7.0898,7.1091,7.2245,7.2437,7.2559,7.4553,7.493,7.4892,7.5745,7.6015,7.613,7.6707,7.5981,7.5216,7.5589,7.5195,7.5041,7.6204,7.7006,7.7952,7.9751,7.9949,8.0037,8.0643,8.0066,7.9567,7.9785,7.9816,8.0046,8.0698,8.0758,8.0758,8.0758,7.9827,7.9117,7.8901,7.7932,7.7289,7.7289,7.7289,7.7289,7.7289,7.7289,7.7289,7.7289,7.7289,7.7289,7.7289,7.7289,7.7289,7.7289,7.7289,7.7289,4.7388,4.7672,0.0,0.0,4.8489,0.0,0.0,0.0,0.0,0.0,0.0,0.0,0.0,0.0,0.0,0.0,0.0,0.0,0.0,4.9003,0.0,0.0,0.0,0.0,0.0,0.0,5.4924,5.5144,5.4693,5.462,0.0,0.0,5.6492,5.6774,5.7593,5.7997,5.7997,5.7997,5.7997,5.7997,5.7997,5.7997,5.7997,5.7997,5.7997,5.7997,5.7997,5.7997,5.7997,5.7997,5.8878,6.0359,6.1467,6.2832,6.4444,6.7011,6.8314,6.9045,7.0437,7.0898,7.1052,7.1905,7.1982,7.2052,7.3738,7.4276,7.443,7.5284,7.5745,7.613,7.6669,7.6132,7.5468,7.5647,7.5195,7.503,7.6265,7.6858,7.7688,7.9429,7.9632,7.9723,8.0306,7.9908,7.9716,8.0352,8.023,8.0343,8.0999,8.1093,8.1093,8.1093,7.9967,7.9022,7.8576,7.7774,7.7289,7.7289,7.7289,7.7289,7.7289,7.7289,7.7436,7.7766,7.7472,7.7436,7.7766,7.7436,7.7289,7.7289,7.7289,7.7289]}]]